Wetterdaten: Sonntag, 21.05.2017
Datum Zeit Temp. A. Pool Temp. Feuchte A. Luftdruck Regen Wind Richtung Richtung Sonnenschein ET UV Solar Taupunkt Windchill Windben Empfang
21.05.2017 00:00 13,9 C 21,1 C 69 % 1022,8 hPa 0,0 l/m 2,3 km/h (1 Bft) N-NO 12 0 min 0,000 mm 0,0 UV-I 0 W/m 8,3 C 13,9 C 12,9 km/h (3 Bft) 92,45 %
21.05.2017 00:02 13,7 C 21,1 C 72 % 1023,0 hPa 0,0 l/m 13,0 km/h (3 Bft) N-NO 22 0 min 0,000 mm 0,0 UV-I 0 W/m 8,7 C 10,4 C 17,7 km/h (3 Bft) 100,00 %
21.05.2017 00:04 13,5 C 21,1 C 72 % 1023,0 hPa 0,0 l/m 10,3 km/h (2 Bft) N-NO 19 0 min 0,000 mm 0,0 UV-I 0 W/m 8,6 C 11,3 C 17,7 km/h (3 Bft) 95,38 %
21.05.2017 00:06 13,4 C 21,1 C 73 % 1023,0 hPa 0,0 l/m 10,9 km/h (2 Bft) N-NO 26 0 min 0,000 mm 0,0 UV-I 0 W/m 8,7 C 10,9 C 19,3 km/h (3 Bft) 95,45 %
21.05.2017 00:08 13,3 C 21,1 C 73 % 1023,0 hPa 0,0 l/m 7,5 km/h (2 Bft) NO 42 0 min 0,000 mm 0,0 UV-I 0 W/m 8,6 C 12,6 C 11,3 km/h (2 Bft) 97,73 %
21.05.2017 00:10 13,3 C 21,1 C 74 % 1023,0 hPa 0,0 l/m 7,5 km/h (2 Bft) NO 41 0 min 0,000 mm 0,0 UV-I 0 W/m 8,8 C 12,6 C 9,7 km/h (2 Bft) 96,00 %
21.05.2017 00:12 13,3 C 21,1 C 74 % 1023,0 hPa 0,0 l/m 6,5 km/h (2 Bft) NO 53 0 min 0,000 mm 0,0 UV-I 0 W/m 8,8 C 13,3 C 8,0 km/h (2 Bft) 94,00 %
21.05.2017 00:14 13,3 C 21,1 C 74 % 1023,0 hPa 0,0 l/m 6,0 km/h (2 Bft) NO 50 0 min 0,000 mm 0,0 UV-I 0 W/m 8,8 C 13,3 C 8,0 km/h (2 Bft) 97,56 %
21.05.2017 00:16 13,3 C 21,1 C 75 % 1023,0 hPa 0,0 l/m 6,5 km/h (2 Bft) NO 41 0 min 0,000 mm 0,0 UV-I 0 W/m 9,0 C 13,3 C 8,0 km/h (2 Bft) 94,00 %
21.05.2017 00:18 13,3 C 21,1 C 75 % 1023,0 hPa 0,0 l/m 3,3 km/h (1 Bft) NO 41 0 min 0,000 mm 0,0 UV-I 0 W/m 9,0 C 13,3 C 4,8 km/h (1 Bft) 94,00 %
21.05.2017 00:20 13,3 C 21,1 C 75 % 1023,0 hPa 0,0 l/m 2,6 km/h (1 Bft) NO 41 0 min 0,000 mm 0,0 UV-I 0 W/m 9,0 C 13,3 C 4,8 km/h (1 Bft) 95,74 %
21.05.2017 00:22 13,2 C 21,1 C 76 % 1023,0 hPa 0,0 l/m 3,1 km/h (1 Bft) NO 41 0 min 0,000 mm 0,0 UV-I 0 W/m 9,1 C 13,2 C 4,8 km/h (1 Bft) 96,30 %
21.05.2017 00:24 13,2 C 21,1 C 77 % 1023,0 hPa 0,0 l/m 0,4 km/h (0 Bft) NO 41 0 min 0,000 mm 0,0 UV-I 0 W/m 9,3 C 13,2 C 3,2 km/h (1 Bft) 95,31 %
21.05.2017 00:26 13,2 C 21,1 C 76 % 1023,0 hPa 0,0 l/m 0,0 km/h (0 Bft) NO 41 0 min 0,000 mm 0,0 UV-I 0 W/m 9,1 C 13,2 C 0,0 km/h (0 Bft) 96,00 %
21.05.2017 00:28 13,2 C 21,1 C 76 % 1023,0 hPa 0,0 l/m 0,0 km/h (0 Bft) NO 41 0 min 0,000 mm 0,0 UV-I 0 W/m 9,1 C 13,2 C 0,0 km/h (0 Bft) 97,37 %
21.05.2017 00:30 13,2 C 21,1 C 77 % 1023,0 hPa 0,0 l/m 2,1 km/h (1 Bft) O-NO 69 0 min 0,000 mm 0,0 UV-I 0 W/m 9,3 C 13,2 C 4,8 km/h (1 Bft) 94,34 %
21.05.2017 00:32 13,2 C 21,1 C 76 % 1023,0 hPa 0,0 l/m 0,6 km/h (0 Bft) O-NO 69 0 min 0,000 mm 0,0 UV-I 0 W/m 9,1 C 13,2 C 3,2 km/h (1 Bft) 93,62 %
21.05.2017 00:34 13,2 C 21,1 C 77 % 1023,0 hPa 0,0 l/m 0,2 km/h (0 Bft) O-NO 69 0 min 0,000 mm 0,0 UV-I 0 W/m 9,3 C 13,2 C 1,6 km/h (1 Bft) 97,87 %
21.05.2017 00:36 13,2 C 21,1 C 76 % 1023,0 hPa 0,0 l/m 0,7 km/h (0 Bft) O-NO 70 0 min 0,000 mm 0,0 UV-I 0 W/m 9,1 C 13,2 C 1,6 km/h (1 Bft) 100,00 %
21.05.2017 00:38 13,2 C 21,1 C 76 % 1023,0 hPa 0,0 l/m 3,5 km/h (1 Bft) S 174 0 min 0,000 mm 0,0 UV-I 0 W/m 9,1 C 13,2 C 6,4 km/h (2 Bft) 96,92 %
21.05.2017 00:40 13,2 C 21,1 C 77 % 1022,9 hPa 0,0 l/m 5,1 km/h (1 Bft) S-SW 203 0 min 0,000 mm 0,0 UV-I 0 W/m 9,3 C 13,2 C 6,4 km/h (2 Bft) 97,87 %
21.05.2017 00:42 13,2 C 21,1 C 77 % 1023,0 hPa 0,0 l/m 3,3 km/h (1 Bft) S-SW 203 0 min 0,000 mm 0,0 UV-I 0 W/m 9,3 C 13,2 C 4,8 km/h (1 Bft) 96,00 %
21.05.2017 00:44 13,1 C 21,1 C 77 % 1023,0 hPa 0,0 l/m 3,0 km/h (1 Bft) S-SW 203 0 min 0,000 mm 0,0 UV-I 0 W/m 9,2 C 13,1 C 4,8 km/h (1 Bft) 98,00 %
21.05.2017 00:46 13,1 C 21,1 C 77 % 1023,0 hPa 0,0 l/m 3,3 km/h (1 Bft) S-SW 203 0 min 0,000 mm 0,0 UV-I 0 W/m 9,2 C 13,1 C 4,8 km/h (1 Bft) 95,74 %
21.05.2017 00:48 13,1 C 21,1 C 77 % 1023,0 hPa 0,0 l/m 2,9 km/h (1 Bft) S-SW 203 0 min 0,000 mm 0,0 UV-I 0 W/m 9,2 C 13,1 C 4,8 km/h (1 Bft) 97,73 %
21.05.2017 00:50 13,1 C 21,1 C 77 % 1023,0 hPa 0,0 l/m 3,7 km/h (1 Bft) S-SW 203 0 min 0,000 mm 0,0 UV-I 0 W/m 9,2 C 13,1 C 6,4 km/h (2 Bft) 100,00 %
21.05.2017 00:52 13,1 C 21,1 C 77 % 1022,9 hPa 0,0 l/m 5,6 km/h (1 Bft) S-SW 199 0 min 0,000 mm 0,0 UV-I 0 W/m 9,2 C 13,1 C 6,4 km/h (2 Bft) 97,37 %
21.05.2017 00:54 13,1 C 21,1 C 77 % 1022,9 hPa 0,0 l/m 5,6 km/h (1 Bft) S-SW 211 0 min 0,000 mm 0,0 UV-I 0 W/m 9,2 C 13,1 C 8,0 km/h (2 Bft) 97,87 %
21.05.2017 00:56 13,1 C 21,1 C 77 % 1022,9 hPa 0,0 l/m 4,4 km/h (1 Bft) S-SW 212 0 min 0,000 mm 0,0 UV-I 0 W/m 9,2 C 13,1 C 6,4 km/h (2 Bft) 98,00 %
21.05.2017 00:58 13,0 C 21,1 C 77 % 1022,9 hPa 0,0 l/m 3,7 km/h (1 Bft) S-SW 206 0 min 0,000 mm 0,0 UV-I 0 W/m 9,1 C 13,0 C 6,4 km/h (2 Bft) 96,23 %
21.05.2017 01:00 13,0 C 21,1 C 78 % 1023,0 hPa 0,0 l/m 1,5 km/h (1 Bft) S-SW 206 0 min 0,025 mm 0,0 UV-I 0 W/m 9,3 C 13,0 C 3,2 km/h (1 Bft) 97,14 %
21.05.2017 01:01 13,0 C 21,1 C 78 % 1023,0 hPa 0,0 l/m 1,5 km/h (1 Bft) S-SW 206 0 min 0,000 mm 0,0 UV-I 0 W/m 9,3 C 13,0 C 3,2 km/h (1 Bft) 94,12 %
21.05.2017 01:04 12,9 C 21,1 C 78 % 1023,0 hPa 0,0 l/m 0,9 km/h (0 Bft) S-SW 206 0 min 0,000 mm 0,0 UV-I 0 W/m 9,2 C 12,9 C 4,8 km/h (1 Bft) 97,87 %
21.05.2017 01:06 13,0 C 21,1 C 78 % 1023,0 hPa 0,0 l/m 0,0 km/h (0 Bft) S-SW 206 0 min 0,000 mm 0,0 UV-I 0 W/m 9,3 C 13,0 C 0,0 km/h (0 Bft) 98,00 %
21.05.2017 01:08 12,9 C 21,1 C 78 % 1023,0 hPa 0,0 l/m 0,4 km/h (0 Bft) S-SW 206 0 min 0,000 mm 0,0 UV-I 0 W/m 9,2 C 12,9 C 1,6 km/h (1 Bft) 100,00 %
21.05.2017 01:10 12,9 C 21,1 C 78 % 1023,1 hPa 0,0 l/m 0,3 km/h (0 Bft) S-SW 206 0 min 0,000 mm 0,0 UV-I 0 W/m 9,2 C 12,9 C 1,6 km/h (1 Bft) 98,00 %
21.05.2017 01:12 13,0 C 21,1 C 78 % 1023,1 hPa 0,0 l/m 0,0 km/h (0 Bft) S-SW 206 0 min 0,000 mm 0,0 UV-I 0 W/m 9,3 C 13,0 C 0,0 km/h (0 Bft) 98,00 %
21.05.2017 01:14 13,0 C 21,1 C 78 % 1023,2 hPa 0,0 l/m 0,0 km/h (0 Bft) S-SW 206 0 min 0,000 mm 0,0 UV-I 0 W/m 9,3 C 13,0 C 0,0 km/h (0 Bft) 100,00 %
21.05.2017 01:16 13,0 C 21,1 C 78 % 1023,2 hPa 0,0 l/m 0,0 km/h (0 Bft) S-SW 206 0 min 0,000 mm 0,0 UV-I 0 W/m 9,3 C 13,0 C 0,0 km/h (0 Bft) 95,74 %
21.05.2017 01:18 13,0 C 21,1 C 78 % 1023,2 hPa 0,0 l/m 0,0 km/h (0 Bft) S-SW 206 0 min 0,000 mm 0,0 UV-I 0 W/m 9,3 C 13,0 C 0,0 km/h (0 Bft) 100,00 %
21.05.2017 01:20 13,0 C 21,1 C 79 % 1023,2 hPa 0,0 l/m 0,0 km/h (0 Bft) S-SW 206 0 min 0,000 mm 0,0 UV-I 0 W/m 9,4 C 13,0 C 0,0 km/h (0 Bft) 96,23 %
21.05.2017 01:22 13,0 C 21,1 C 79 % 1023,1 hPa 0,0 l/m 0,2 km/h (0 Bft) S-SW 206 0 min 0,000 mm 0,0 UV-I 0 W/m 9,4 C 13,0 C 1,6 km/h (1 Bft) 97,87 %
21.05.2017 01:24 13,0 C 21,1 C 79 % 1023,1 hPa 0,0 l/m 1,9 km/h (1 Bft) S-SW 206 0 min 0,000 mm 0,0 UV-I 0 W/m 9,4 C 13,0 C 3,2 km/h (1 Bft) 100,00 %
21.05.2017 01:26 13,0 C 21,1 C 79 % 1023,1 hPa 0,0 l/m 2,2 km/h (1 Bft) S-SW 206 0 min 0,000 mm 0,0 UV-I 0 W/m 9,4 C 13,0 C 3,2 km/h (1 Bft) 96,23 %
21.05.2017 01:28 13,0 C 21,1 C 79 % 1023,1 hPa 0,0 l/m 3,1 km/h (1 Bft) S-SW 206 0 min 0,000 mm 0,0 UV-I 0 W/m 9,4 C 13,0 C 4,8 km/h (1 Bft) 97,14 %
21.05.2017 01:30 12,9 C 21,1 C 79 % 1023,1 hPa 0,0 l/m 2,6 km/h (1 Bft) S-SW 206 0 min 0,000 mm 0,0 UV-I 0 W/m 9,3 C 12,9 C 4,8 km/h (1 Bft) 98,21 %
21.05.2017 01:32 12,9 C 21,1 C 80 % 1023,1 hPa 0,0 l/m 3,7 km/h (1 Bft) S-SW 206 0 min 0,000 mm 0,0 UV-I 0 W/m 9,5 C 12,9 C 4,8 km/h (1 Bft) 97,37 %
21.05.2017 01:34 12,8 C 21,1 C 81 % 1023,1 hPa 0,0 l/m 3,4 km/h (1 Bft) S-SW 206 0 min 0,000 mm 0,0 UV-I 0 W/m 9,6 C 12,8 C 4,8 km/h (1 Bft) 95,74 %
21.05.2017 01:36 12,8 C 21,1 C 83 % 1023,1 hPa 0,0 l/m 4,2 km/h (1 Bft) SW 222 0 min 0,000 mm 0,0 UV-I 0 W/m 10,0 C 12,8 C 6,4 km/h (2 Bft) 94,00 %
21.05.2017 01:38 12,7 C 21,1 C 83 % 1023,1 hPa 0,0 l/m 5,3 km/h (1 Bft) SW 223 0 min 0,000 mm 0,0 UV-I 0 W/m 9,9 C 12,7 C 8,0 km/h (2 Bft) 97,87 %
21.05.2017 01:40 12,7 C 21,1 C 84 % 1023,1 hPa 0,0 l/m 5,9 km/h (2 Bft) SW 229 0 min 0,000 mm 0,0 UV-I 0 W/m 10,1 C 12,7 C 8,0 km/h (2 Bft) 100,00 %
21.05.2017 01:42 12,6 C 21,1 C 84 % 1023,1 hPa 0,0 l/m 5,1 km/h (1 Bft) SW 227 0 min 0,000 mm 0,0 UV-I 0 W/m 10,0 C 12,6 C 6,4 km/h (2 Bft) 93,62 %
21.05.2017 01:44 12,6 C 21,1 C 84 % 1023,0 hPa 0,0 l/m 5,4 km/h (1 Bft) SW 219 0 min 0,000 mm 0,0 UV-I 0 W/m 10,0 C 12,6 C 8,0 km/h (2 Bft) 100,00 %
21.05.2017 01:46 12,6 C 21,1 C 84 % 1023,0 hPa 0,0 l/m 6,6 km/h (2 Bft) SW 230 0 min 0,000 mm 0,0 UV-I 0 W/m 10,0 C 12,5 C 8,0 km/h (2 Bft) 98,00 %
21.05.2017 01:48 12,6 C 21,1 C 84 % 1023,0 hPa 0,0 l/m 7,0 km/h (2 Bft) SW 225 0 min 0,000 mm 0,0 UV-I 0 W/m 10,0 C 12,2 C 9,7 km/h (2 Bft) 97,37 %
21.05.2017 01:50 12,5 C 21,1 C 84 % 1023,0 hPa 0,0 l/m 6,7 km/h (2 Bft) SW 222 0 min 0,000 mm 0,0 UV-I 0 W/m 9,9 C 12,3 C 8,0 km/h (2 Bft) 98,11 %
21.05.2017 01:52 12,5 C 21,1 C 84 % 1022,9 hPa 0,0 l/m 6,8 km/h (2 Bft) SW 236 0 min 0,000 mm 0,0 UV-I 0 W/m 9,9 C 12,2 C 11,3 km/h (2 Bft) 96,00 %
21.05.2017 01:54 12,5 C 21,1 C 83 % 1022,9 hPa 0,0 l/m 7,8 km/h (2 Bft) SW 219 0 min 0,000 mm 0,0 UV-I 0 W/m 9,7 C 11,6 C 12,9 km/h (3 Bft) 97,44 %
21.05.2017 01:56 12,5 C 21,1 C 82 % 1022,9 hPa 0,0 l/m 7,2 km/h (2 Bft) W-SW 250 0 min 0,000 mm 0,0 UV-I 0 W/m 9,5 C 12,0 C 12,9 km/h (3 Bft) 97,37 %
21.05.2017 01:58 12,6 C 21,1 C 81 % 1022,9 hPa 0,0 l/m 6,8 km/h (2 Bft) W 259 0 min 0,000 mm 0,0 UV-I 0 W/m 9,4 C 12,4 C 12,9 km/h (3 Bft) 98,21 %
21.05.2017 02:00 12,6 C 21,1 C 81 % 1022,9 hPa 0,0 l/m 8,5 km/h (2 Bft) W-SW 246 0 min 0,026 mm 0,0 UV-I 0 W/m 9,4 C 11,3 C 12,9 km/h (3 Bft) 92,68 %
21.05.2017 02:02 12,6 C 21,1 C 80 % 1022,9 hPa 0,0 l/m 7,4 km/h (2 Bft) W-SW 249 0 min 0,000 mm 0,0 UV-I 0 W/m 9,2 C 12,0 C 11,3 km/h (2 Bft) 92,86 %
21.05.2017 02:04 12,7 C 21,1 C 80 % 1022,8 hPa 0,0 l/m 7,3 km/h (2 Bft) W-SW 250 0 min 0,000 mm 0,0 UV-I 0 W/m 9,3 C 12,1 C 12,9 km/h (3 Bft) 94,74 %
21.05.2017 02:06 12,7 C 21,1 C 79 % 1022,8 hPa 0,0 l/m 8,4 km/h (2 Bft) W-SW 246 0 min 0,000 mm 0,0 UV-I 0 W/m 9,2 C 11,5 C 12,9 km/h (3 Bft) 98,21 %
21.05.2017 02:08 12,7 C 21,1 C 79 % 1022,8 hPa 0,0 l/m 6,4 km/h (2 Bft) SW 220 0 min 0,000 mm 0,0 UV-I 0 W/m 9,2 C 12,7 C 11,3 km/h (2 Bft) 96,00 %
21.05.2017 02:10 12,7 C 21,1 C 78 % 1022,8 hPa 0,0 l/m 9,2 km/h (2 Bft) W-SW 242 0 min 0,000 mm 0,0 UV-I 0 W/m 9,0 C 11,0 C 12,9 km/h (3 Bft) 97,56 %
21.05.2017 02:12 12,7 C 21,1 C 78 % 1022,8 hPa 0,0 l/m 8,8 km/h (2 Bft) W-SW 256 0 min 0,000 mm 0,0 UV-I 0 W/m 9,0 C 11,2 C 12,9 km/h (3 Bft) 95,45 %
21.05.2017 02:14 12,8 C 21,1 C 78 % 1022,8 hPa 0,0 l/m 9,1 km/h (2 Bft) W 261 0 min 0,000 mm 0,0 UV-I 0 W/m 9,1 C 11,2 C 14,5 km/h (3 Bft) 92,86 %
21.05.2017 02:16 12,8 C 21,1 C 78 % 1022,8 hPa 0,0 l/m 7,8 km/h (2 Bft) W-SW 257 0 min 0,000 mm 0,0 UV-I 0 W/m 9,1 C 11,9 C 11,3 km/h (2 Bft) 97,56 %
21.05.2017 02:18 12,8 C 21,1 C 78 % 1022,8 hPa 0,0 l/m 9,1 km/h (2 Bft) W-SW 242 0 min 0,000 mm 0,0 UV-I 0 W/m 9,1 C 11,2 C 14,5 km/h (3 Bft) 95,45 %
21.05.2017 02:20 12,8 C 21,1 C 77 % 1022,8 hPa 0,0 l/m 7,3 km/h (2 Bft) SW 227 0 min 0,000 mm 0,0 UV-I 0 W/m 8,9 C 12,2 C 12,9 km/h (3 Bft) 95,74 %
21.05.2017 02:22 12,8 C 21,1 C 77 % 1022,8 hPa 0,0 l/m 6,3 km/h (2 Bft) W-SW 237 0 min 0,000 mm 0,0 UV-I 0 W/m 8,9 C 12,8 C 8,0 km/h (2 Bft) 96,00 %
21.05.2017 02:24 12,8 C 21,1 C 77 % 1022,8 hPa 0,0 l/m 5,8 km/h (2 Bft) SW 236 0 min 0,000 mm 0,0 UV-I 0 W/m 8,9 C 12,8 C 9,7 km/h (2 Bft) 94,74 %
21.05.2017 02:26 12,8 C 21,1 C 77 % 1022,8 hPa 0,0 l/m 7,5 km/h (2 Bft) W-SW 244 0 min 0,000 mm 0,0 UV-I 0 W/m 8,9 C 12,1 C 12,9 km/h (3 Bft) 94,00 %
21.05.2017 02:28 12,8 C 21,1 C 77 % 1022,9 hPa 0,0 l/m 7,7 km/h (2 Bft) W 261 0 min 0,000 mm 0,0 UV-I 0 W/m 8,9 C 12,0 C 12,9 km/h (3 Bft) 92,00 %
21.05.2017 02:30 12,8 C 21,1 C 77 % 1022,9 hPa 0,0 l/m 6,6 km/h (2 Bft) W-SW 252 0 min 0,000 mm 0,0 UV-I 0 W/m 8,9 C 12,7 C 11,3 km/h (2 Bft) 97,62 %
21.05.2017 02:32 12,8 C 21,1 C 77 % 1022,9 hPa 0,0 l/m 6,4 km/h (2 Bft) W-SW 243 0 min 0,000 mm 0,0 UV-I 0 W/m 8,9 C 12,8 C 11,3 km/h (2 Bft) 92,73 %
21.05.2017 02:34 12,8 C 21,1 C 77 % 1022,9 hPa 0,0 l/m 6,5 km/h (2 Bft) SW 229 0 min 0,000 mm 0,0 UV-I 0 W/m 8,9 C 12,8 C 11,3 km/h (2 Bft) 94,00 %
21.05.2017 02:36 12,8 C 21,1 C 77 % 1022,9 hPa 0,0 l/m 5,8 km/h (2 Bft) W-SW 242 0 min 0,000 mm 0,0 UV-I 0 W/m 8,9 C 12,8 C 8,0 km/h (2 Bft) 92,86 %
21.05.2017 02:38 12,8 C 21,1 C 77 % 1022,9 hPa 0,0 l/m 6,7 km/h (2 Bft) W 269 0 min 0,000 mm 0,0 UV-I 0 W/m 8,9 C 12,6 C 11,3 km/h (2 Bft) 97,73 %
21.05.2017 02:40 12,8 C 21,1 C 77 % 1022,9 hPa 0,0 l/m 7,9 km/h (2 Bft) W-SW 238 0 min 0,000 mm 0,0 UV-I 0 W/m 8,9 C 11,9 C 12,9 km/h (3 Bft) 96,23 %
21.05.2017 02:42 12,7 C 21,1 C 77 % 1022,9 hPa 0,0 l/m 6,8 km/h (2 Bft) W-SW 238 0 min 0,000 mm 0,0 UV-I 0 W/m 8,8 C 12,5 C 11,3 km/h (2 Bft) 97,73 %
21.05.2017 02:44 12,7 C 21,1 C 77 % 1022,9 hPa 0,0 l/m 6,3 km/h (2 Bft) W-SW 239 0 min 0,000 mm 0,0 UV-I 0 W/m 8,8 C 12,7 C 9,7 km/h (2 Bft) 94,34 %
21.05.2017 02:46 12,8 C 21,1 C 77 % 1022,9 hPa 0,0 l/m 7,6 km/h (2 Bft) S-SW 211 0 min 0,000 mm 0,0 UV-I 0 W/m 8,9 C 12,0 C 12,9 km/h (3 Bft) 100,00 %
21.05.2017 02:48 12,8 C 21,1 C 77 % 1022,9 hPa 0,0 l/m 6,5 km/h (2 Bft) W-SW 254 0 min 0,000 mm 0,0 UV-I 0 W/m 8,9 C 12,8 C 11,3 km/h (2 Bft) 92,00 %
21.05.2017 02:50 12,7 C 21,1 C 77 % 1022,9 hPa 0,0 l/m 6,6 km/h (2 Bft) W-SW 245 0 min 0,000 mm 0,0 UV-I 0 W/m 8,8 C 12,6 C 8,0 km/h (2 Bft) 95,74 %
21.05.2017 02:52 12,7 C 21,1 C 77 % 1022,9 hPa 0,0 l/m 7,1 km/h (2 Bft) SW 217 0 min 0,000 mm 0,0 UV-I 0 W/m 8,8 C 12,3 C 14,5 km/h (3 Bft) 97,87 %
21.05.2017 02:54 12,7 C 21,1 C 77 % 1022,9 hPa 0,0 l/m 8,4 km/h (2 Bft) SW 230 0 min 0,000 mm 0,0 UV-I 0 W/m 8,8 C 11,5 C 14,5 km/h (3 Bft) 95,74 %
21.05.2017 02:56 12,8 C 21,1 C 77 % 1022,9 hPa 0,0 l/m 7,6 km/h (2 Bft) W-SW 244 0 min 0,000 mm 0,0 UV-I 0 W/m 8,9 C 12,0 C 14,5 km/h (3 Bft) 98,00 %
21.05.2017 02:58 12,7 C 21,1 C 76 % 1022,9 hPa 0,0 l/m 8,3 km/h (2 Bft) W-SW 253 0 min 0,000 mm 0,0 UV-I 0 W/m 8,6 C 11,5 C 12,9 km/h (3 Bft) 94,74 %
21.05.2017 03:00 12,8 C 21,1 C 76 % 1023,0 hPa 0,0 l/m 7,7 km/h (2 Bft) SW 235 0 min 0,025 mm 0,0 UV-I 0 W/m 8,7 C 12,0 C 12,9 km/h (3 Bft) 94,74 %
21.05.2017 03:02 12,8 C 21,1 C 76 % 1023,0 hPa 0,0 l/m 6,8 km/h (2 Bft) W-SW 240 0 min 0,000 mm 0,0 UV-I 0 W/m 8,7 C 12,6 C 9,7 km/h (2 Bft) 95,38 %
21.05.2017 03:04 12,8 C 21,1 C 76 % 1023,0 hPa 0,0 l/m 6,8 km/h (2 Bft) SW 217 0 min 0,000 mm 0,0 UV-I 0 W/m 8,7 C 12,6 C 9,7 km/h (2 Bft) 97,37 %
21.05.2017 03:06 12,8 C 21,1 C 76 % 1023,0 hPa 0,0 l/m 8,4 km/h (2 Bft) SW 231 0 min 0,000 mm 0,0 UV-I 0 W/m 8,7 C 11,6 C 12,9 km/h (3 Bft) 96,00 %
21.05.2017 03:08 12,8 C 21,1 C 76 % 1023,0 hPa 0,0 l/m 7,2 km/h (2 Bft) SW 235 0 min 0,000 mm 0,0 UV-I 0 W/m 8,7 C 12,3 C 9,7 km/h (2 Bft) 91,49 %
21.05.2017 03:10 12,8 C 21,1 C 76 % 1023,0 hPa 0,0 l/m 6,7 km/h (2 Bft) SW 234 0 min 0,000 mm 0,0 UV-I 0 W/m 8,7 C 12,6 C 9,7 km/h (2 Bft) 92,00 %
21.05.2017 03:12 12,8 C 21,1 C 76 % 1023,0 hPa 0,0 l/m 6,7 km/h (2 Bft) SW 226 0 min 0,000 mm 0,0 UV-I 0 W/m 8,7 C 12,6 C 9,7 km/h (2 Bft) 95,45 %
21.05.2017 03:14 12,8 C 21,1 C 76 % 1022,9 hPa 0,0 l/m 6,8 km/h (2 Bft) SW 229 0 min 0,000 mm 0,0 UV-I 0 W/m 8,7 C 12,6 C 12,9 km/h (3 Bft) 98,00 %
21.05.2017 03:16 12,8 C 21,1 C 76 % 1022,9 hPa 0,0 l/m 7,3 km/h (2 Bft) SW 227 0 min 0,000 mm 0,0 UV-I 0 W/m 8,7 C 12,2 C 12,9 km/h (3 Bft) 95,24 %
21.05.2017 03:18 12,8 C 21,1 C 76 % 1022,9 hPa 0,0 l/m 7,2 km/h (2 Bft) SW 223 0 min 0,000 mm 0,0 UV-I 0 W/m 8,7 C 12,3 C 9,7 km/h (2 Bft) 96,00 %
21.05.2017 03:20 12,8 C 21,1 C 77 % 1022,9 hPa 0,0 l/m 9,3 km/h (2 Bft) W 262 0 min 0,000 mm 0,0 UV-I 0 W/m 8,9 C 11,1 C 12,9 km/h (3 Bft) 95,74 %
21.05.2017 03:22 12,8 C 21,1 C 76 % 1022,9 hPa 0,0 l/m 8,4 km/h (2 Bft) SW 225 0 min 0,000 mm 0,0 UV-I 0 W/m 8,7 C 11,6 C 12,9 km/h (3 Bft) 97,56 %
21.05.2017 03:25 12,8 C 21,1 C 76 % 1022,8 hPa 0,0 l/m 9,5 km/h (2 Bft) SW 235 0 min 0,000 mm 0,0 UV-I 0 W/m 8,7 C 10,9 C 12,9 km/h (3 Bft) 95,71 %
21.05.2017 03:26 12,7 C 21,1 C 77 % 1022,9 hPa 0,0 l/m 7,7 km/h (2 Bft) SW 231 0 min 0,000 mm 0,0 UV-I 0 W/m 8,8 C 11,9 C 11,3 km/h (2 Bft) 96,30 %
21.05.2017 03:28 12,7 C 21,1 C 77 % 1022,9 hPa 0,0 l/m 6,4 km/h (2 Bft) SW 227 0 min 0,000 mm 0,0 UV-I 0 W/m 8,8 C 12,7 C 9,7 km/h (2 Bft) 97,56 %
21.05.2017 03:30 12,7 C 21,1 C 77 % 1022,9 hPa 0,0 l/m 7,9 km/h (2 Bft) W-SW 237 0 min 0,000 mm 0,0 UV-I 0 W/m 8,8 C 11,7 C 14,5 km/h (3 Bft) 94,92 %
21.05.2017 03:32 12,7 C 21,1 C 77 % 1022,9 hPa 0,0 l/m 8,4 km/h (2 Bft) SW 231 0 min 0,000 mm 0,0 UV-I 0 W/m 8,8 C 11,5 C 12,9 km/h (3 Bft) 95,74 %
21.05.2017 03:34 12,7 C 21,1 C 77 % 1022,9 hPa 0,0 l/m 7,8 km/h (2 Bft) S-SW 212 0 min 0,000 mm 0,0 UV-I 0 W/m 8,8 C 11,8 C 11,3 km/h (2 Bft) 94,74 %
21.05.2017 03:36 12,7 C 21,1 C 77 % 1022,9 hPa 0,0 l/m 8,3 km/h (2 Bft) W-SW 256 0 min 0,000 mm 0,0 UV-I 0 W/m 8,8 C 11,5 C 12,9 km/h (3 Bft) 96,43 %
21.05.2017 03:38 12,7 C 21,1 C 77 % 1022,9 hPa 0,0 l/m 8,7 km/h (2 Bft) SW 228 0 min 0,000 mm 0,0 UV-I 0 W/m 8,8 C 11,3 C 14,5 km/h (3 Bft) 97,73 %
21.05.2017 03:40 12,7 C 21,1 C 77 % 1022,9 hPa 0,0 l/m 8,2 km/h (2 Bft) W-SW 239 0 min 0,000 mm 0,0 UV-I 0 W/m 8,8 C 11,6 C 14,5 km/h (3 Bft) 97,56 %
21.05.2017 03:42 12,7 C 21,1 C 77 % 1022,9 hPa 0,0 l/m 8,5 km/h (2 Bft) SW 223 0 min 0,000 mm 0,0 UV-I 0 W/m 8,8 C 11,4 C 14,5 km/h (3 Bft) 98,00 %
21.05.2017 03:44 12,7 C 21,1 C 77 % 1022,9 hPa 0,0 l/m 8,5 km/h (2 Bft) W-SW 244 0 min 0,000 mm 0,0 UV-I 0 W/m 8,8 C 11,4 C 14,5 km/h (3 Bft) 97,56 %
21.05.2017 03:46 12,7 C 21,1 C 77 % 1023,0 hPa 0,0 l/m 7,6 km/h (2 Bft) W-SW 251 0 min 0,000 mm 0,0 UV-I 0 W/m 8,8 C 11,9 C 14,5 km/h (3 Bft) 96,23 %
21.05.2017 03:48 12,7 C 21,1 C 76 % 1022,9 hPa 0,0 l/m 6,0 km/h (2 Bft) SW 229 0 min 0,000 mm 0,0 UV-I 0 W/m 8,6 C 12,7 C 8,0 km/h (2 Bft) 98,00 %
21.05.2017 03:50 12,7 C 21,1 C 77 % 1022,9 hPa 0,0 l/m 7,5 km/h (2 Bft) SW 225 0 min 0,000 mm 0,0 UV-I 0 W/m 8,8 C 12,0 C 11,3 km/h (2 Bft) 97,73 %
21.05.2017 03:52 12,7 C 21,1 C 77 % 1023,0 hPa 0,0 l/m 7,6 km/h (2 Bft) W-SW 253 0 min 0,000 mm 0,0 UV-I 0 W/m 8,8 C 11,9 C 11,3 km/h (2 Bft) 98,00 %
21.05.2017 03:54 12,7 C 21,1 C 77 % 1023,0 hPa 0,0 l/m 8,7 km/h (2 Bft) SW 224 0 min 0,000 mm 0,0 UV-I 0 W/m 8,8 C 11,3 C 11,3 km/h (2 Bft) 97,78 %
21.05.2017 03:56 12,7 C 21,1 C 77 % 1023,0 hPa 0,0 l/m 8,4 km/h (2 Bft) SW 225 0 min 0,000 mm 0,0 UV-I 0 W/m 8,8 C 11,5 C 11,3 km/h (2 Bft) 97,37 %
21.05.2017 03:58 12,7 C 21,1 C 77 % 1023,0 hPa 0,0 l/m 8,6 km/h (2 Bft) S-SW 209 0 min 0,000 mm 0,0 UV-I 0 W/m 8,8 C 11,3 C 14,5 km/h (3 Bft) 96,23 %
21.05.2017 04:00 12,7 C 21,1 C 77 % 1023,0 hPa 0,0 l/m 8,4 km/h (2 Bft) SW 227 0 min 0,026 mm 0,0 UV-I 0 W/m 8,8 C 11,5 C 11,3 km/h (2 Bft) 95,12 %
21.05.2017 04:04 12,7 C 21,1 C 77 % 1022,9 hPa 0,0 l/m 8,7 km/h (2 Bft) W-SW 239 0 min 0,000 mm 0,0 UV-I 0 W/m 8,8 C 11,3 C 14,5 km/h (3 Bft) 97,37 %
21.05.2017 04:06 12,7 C 21,1 C 77 % 1022,9 hPa 0,0 l/m 9,8 km/h (2 Bft) W-SW 238 0 min 0,000 mm 0,0 UV-I 0 W/m 8,8 C 10,7 C 16,1 km/h (3 Bft) 94,74 %
21.05.2017 04:09 12,6 C 21,1 C 77 % 1022,9 hPa 0,0 l/m 9,0 km/h (2 Bft) W-SW 244 0 min 0,000 mm 0,0 UV-I 0 W/m 8,7 C 11,0 C 12,9 km/h (3 Bft) 94,94 %
21.05.2017 04:10 12,6 C 21,1 C 77 % 1022,9 hPa 0,0 l/m 8,0 km/h (2 Bft) SW 217 0 min 0,000 mm 0,0 UV-I 0 W/m 8,7 C 11,6 C 11,3 km/h (2 Bft) 100,00 %
21.05.2017 04:12 12,6 C 21,1 C 77 % 1022,9 hPa 0,0 l/m 9,1 km/h (2 Bft) SW 232 0 min 0,000 mm 0,0 UV-I 0 W/m 8,7 C 10,9 C 12,9 km/h (3 Bft) 96,43 %
21.05.2017 04:14 12,6 C 21,1 C 77 % 1022,9 hPa 0,0 l/m 8,5 km/h (2 Bft) SW 232 0 min 0,000 mm 0,0 UV-I 0 W/m 8,7 C 11,3 C 14,5 km/h (3 Bft) 95,12 %
21.05.2017 04:16 12,6 C 20,6 C 77 % 1022,9 hPa 0,0 l/m 9,5 km/h (2 Bft) SW 236 0 min 0,000 mm 0,0 UV-I 0 W/m 8,7 C 10,7 C 14,5 km/h (3 Bft) 94,64 %
21.05.2017 04:18 12,6 C 21,1 C 77 % 1022,9 hPa 0,0 l/m 9,9 km/h (2 Bft) SW 236 0 min 0,000 mm 0,0 UV-I 0 W/m 8,7 C 10,5 C 14,5 km/h (3 Bft) 95,74 %
21.05.2017 04:20 12,6 C 20,6 C 77 % 1022,9 hPa 0,0 l/m 8,0 km/h (2 Bft) SW 218 0 min 0,000 mm 0,0 UV-I 0 W/m 8,7 C 11,6 C 12,9 km/h (3 Bft) 95,74 %
21.05.2017 04:22 12,6 C 20,6 C 77 % 1023,0 hPa 0,0 l/m 6,8 km/h (2 Bft) S-SW 209 0 min 0,000 mm 0,0 UV-I 0 W/m 8,7 C 12,4 C 9,7 km/h (2 Bft) 97,73 %
21.05.2017 04:24 12,6 C 20,6 C 77 % 1023,0 hPa 0,0 l/m 7,6 km/h (2 Bft) SW 234 0 min 0,000 mm 0,0 UV-I 0 W/m 8,7 C 11,8 C 11,3 km/h (2 Bft) 96,00 %
21.05.2017 04:26 12,6 C 20,6 C 77 % 1023,0 hPa 0,0 l/m 6,3 km/h (2 Bft) S-SW 205 0 min 0,000 mm 0,0 UV-I 0 W/m 8,7 C 12,6 C 11,3 km/h (2 Bft) 94,74 %
21.05.2017 04:28 12,6 C 20,6 C 77 % 1023,1 hPa 0,0 l/m 6,8 km/h (2 Bft) SW 234 0 min 0,000 mm 0,0 UV-I 0 W/m 8,7 C 12,4 C 9,7 km/h (2 Bft) 96,61 %
21.05.2017 04:30 12,6 C 20,6 C 77 % 1023,1 hPa 0,0 l/m 6,8 km/h (2 Bft) S-SW 212 0 min 0,000 mm 0,0 UV-I 0 W/m 8,7 C 12,4 C 12,9 km/h (3 Bft) 94,44 %
21.05.2017 04:32 12,6 C 20,6 C 77 % 1023,1 hPa 0,0 l/m 7,5 km/h (2 Bft) S-SW 205 0 min 0,000 mm 0,0 UV-I 0 W/m 8,7 C 11,9 C 9,7 km/h (2 Bft) 96,00 %
21.05.2017 04:34 12,6 C 20,6 C 77 % 1023,1 hPa 0,0 l/m 7,0 km/h (2 Bft) SW 229 0 min 0,000 mm 0,0 UV-I 0 W/m 8,7 C 12,2 C 11,3 km/h (2 Bft) 96,00 %
21.05.2017 04:36 12,6 C 20,6 C 77 % 1023,1 hPa 0,0 l/m 6,7 km/h (2 Bft) S-SW 207 0 min 0,000 mm 0,0 UV-I 0 W/m 8,7 C 12,4 C 9,7 km/h (2 Bft) 100,00 %
21.05.2017 04:38 12,6 C 20,6 C 77 % 1023,1 hPa 0,0 l/m 6,8 km/h (2 Bft) SW 229 0 min 0,000 mm 0,0 UV-I 0 W/m 8,7 C 12,4 C 11,3 km/h (2 Bft) 97,50 %
21.05.2017 04:40 12,6 C 20,6 C 77 % 1023,1 hPa 0,0 l/m 7,6 km/h (2 Bft) SW 217 0 min 0,000 mm 0,0 UV-I 0 W/m 8,7 C 11,8 C 11,3 km/h (2 Bft) 100,00 %
21.05.2017 04:42 12,6 C 20,6 C 77 % 1023,1 hPa 0,0 l/m 7,0 km/h (2 Bft) S-SW 200 0 min 0,000 mm 0,0 UV-I 0 W/m 8,7 C 12,2 C 11,3 km/h (2 Bft) 97,18 %
21.05.2017 04:44 12,5 C 20,6 C 77 % 1023,1 hPa 0,0 l/m 8,3 km/h (2 Bft) SW 227 0 min 0,000 mm 0,0 UV-I 0 W/m 8,6 C 11,3 C 11,3 km/h (2 Bft) 94,74 %
21.05.2017 04:46 12,5 C 20,6 C 78 % 1023,1 hPa 0,0 l/m 6,2 km/h (2 Bft) SW 218 0 min 0,000 mm 0,0 UV-I 0 W/m 8,8 C 12,5 C 11,3 km/h (2 Bft) 98,00 %
21.05.2017 04:48 12,5 C 20,6 C 77 % 1023,1 hPa 0,0 l/m 6,5 km/h (2 Bft) SW 225 0 min 0,000 mm 0,0 UV-I 0 W/m 8,6 C 12,5 C 9,7 km/h (2 Bft) 94,00 %
21.05.2017 04:50 12,5 C 20,6 C 77 % 1023,1 hPa 0,0 l/m 8,0 km/h (2 Bft) SW 229 0 min 0,000 mm 0,0 UV-I 0 W/m 8,6 C 11,5 C 9,7 km/h (2 Bft) 97,73 %
21.05.2017 04:52 12,5 C 20,6 C 78 % 1023,2 hPa 0,0 l/m 8,0 km/h (2 Bft) S-SW 200 0 min 0,000 mm 0,0 UV-I 0 W/m 8,8 C 11,5 C 12,9 km/h (3 Bft) 97,56 %
21.05.2017 04:54 12,5 C 20,6 C 77 % 1023,1 hPa 0,0 l/m 9,3 km/h (2 Bft) SW 218 0 min 0,000 mm 0,0 UV-I 0 W/m 8,6 C 10,7 C 12,9 km/h (3 Bft) 96,23 %
21.05.2017 04:56 12,5 C 20,6 C 77 % 1023,1 hPa 0,0 l/m 8,9 km/h (2 Bft) SW 231 0 min 0,000 mm 0,0 UV-I 0 W/m 8,6 C 11,0 C 12,9 km/h (3 Bft) 95,45 %
21.05.2017 04:58 12,5 C 20,6 C 78 % 1023,2 hPa 0,0 l/m 9,1 km/h (2 Bft) SW 228 0 min 0,000 mm 0,0 UV-I 0 W/m 8,8 C 10,8 C 16,1 km/h (3 Bft) 98,11 %
21.05.2017 05:00 12,5 C 20,6 C 78 % 1023,2 hPa 0,0 l/m 9,7 km/h (2 Bft) S-SW 201 0 min 0,025 mm 0,0 UV-I 0 W/m 8,8 C 10,5 C 14,5 km/h (3 Bft) 97,87 %
21.05.2017 05:02 12,5 C 20,6 C 78 % 1023,2 hPa 0,0 l/m 10,7 km/h (2 Bft) SW 227 0 min 0,000 mm 0,0 UV-I 0 W/m 8,8 C 10,0 C 16,1 km/h (3 Bft) 100,00 %
21.05.2017 05:04 12,5 C 20,6 C 78 % 1023,2 hPa 0,0 l/m 9,9 km/h (2 Bft) S-SW 212 0 min 0,000 mm 0,0 UV-I 0 W/m 8,8 C 10,4 C 17,7 km/h (3 Bft) 96,00 %
21.05.2017 05:06 12,5 C 20,6 C 78 % 1023,2 hPa 0,0 l/m 10,7 km/h (2 Bft) S-SW 208 0 min 0,000 mm 0,0 UV-I 0 W/m 8,8 C 10,0 C 16,1 km/h (3 Bft) 100,00 %
21.05.2017 05:08 12,5 C 20,6 C 78 % 1023,1 hPa 0,0 l/m 9,3 km/h (2 Bft) SW 234 0 min 0,000 mm 0,0 UV-I 0 W/m 8,8 C 10,7 C 16,1 km/h (3 Bft) 97,87 %
21.05.2017 05:10 12,5 C 20,6 C 78 % 1023,2 hPa 0,0 l/m 10,0 km/h (2 Bft) S-SW 213 0 min 0,000 mm 0,0 UV-I 0 W/m 8,8 C 10,4 C 14,5 km/h (3 Bft) 97,62 %
21.05.2017 05:12 12,5 C 20,6 C 78 % 1023,1 hPa 0,0 l/m 9,7 km/h (2 Bft) W-SW 245 0 min 0,000 mm 0,0 UV-I 0 W/m 8,8 C 10,5 C 14,5 km/h (3 Bft) 97,87 %
21.05.2017 05:14 12,5 C 20,6 C 78 % 1023,1 hPa 0,0 l/m 10,3 km/h (2 Bft) W-SW 242 0 min 0,000 mm 0,0 UV-I 0 W/m 8,8 C 10,2 C 16,1 km/h (3 Bft) 98,00 %
21.05.2017 05:16 12,4 C 20,6 C 78 % 1023,1 hPa 0,0 l/m 8,8 km/h (2 Bft) W-SW 242 0 min 0,000 mm 0,0 UV-I 4 W/m 8,7 C 10,9 C 14,5 km/h (3 Bft) 100,00 %
21.05.2017 05:18 12,4 C 20,6 C 79 % 1023,1 hPa 0,0 l/m 10,7 km/h (2 Bft) SW 228 0 min 0,000 mm 0,0 UV-I 5 W/m 8,9 C 9,9 C 16,1 km/h (3 Bft) 97,87 %
21.05.2017 05:20 12,4 C 20,6 C 78 % 1023,1 hPa 0,0 l/m 11,0 km/h (2 Bft) W-SW 238 0 min 0,000 mm 0,0 UV-I 5 W/m 8,7 C 9,7 C 16,1 km/h (3 Bft) 98,00 %
21.05.2017 05:22 12,4 C 20,6 C 79 % 1023,1 hPa 0,0 l/m 11,4 km/h (2 Bft) SW 236 0 min 0,000 mm 0,0 UV-I 5 W/m 8,9 C 9,6 C 14,5 km/h (3 Bft) 97,37 %
21.05.2017 05:24 12,4 C 20,6 C 78 % 1023,1 hPa 0,0 l/m 8,6 km/h (2 Bft) W-SW 238 0 min 0,000 mm 0,0 UV-I 5 W/m 8,7 C 11,0 C 12,9 km/h (3 Bft) 95,45 %
21.05.2017 05:26 12,4 C 20,6 C 78 % 1023,2 hPa 0,0 l/m 9,7 km/h (2 Bft) W-SW 252 0 min 0,000 mm 0,0 UV-I 5 W/m 8,7 C 10,4 C 16,1 km/h (3 Bft) 96,23 %
21.05.2017 05:28 12,4 C 20,6 C 79 % 1023,2 hPa 0,0 l/m 10,3 km/h (2 Bft) W-SW 238 0 min 0,000 mm 0,0 UV-I 6 W/m 8,9 C 10,1 C 16,1 km/h (3 Bft) 96,23 %
21.05.2017 05:30 12,4 C 20,6 C 78 % 1023,2 hPa 0,0 l/m 12,4 km/h (3 Bft) SW 228 0 min 0,000 mm 0,0 UV-I 7 W/m 8,7 C 9,1 C 17,7 km/h (3 Bft) 97,37 %
21.05.2017 05:32 12,4 C 20,6 C 79 % 1023,2 hPa 0,0 l/m 10,6 km/h (2 Bft) SW 222 0 min 0,000 mm 0,0 UV-I 7 W/m 8,9 C 9,9 C 14,5 km/h (3 Bft) 97,87 %
21.05.2017 05:34 12,4 C 20,6 C 78 % 1023,2 hPa 0,0 l/m 8,9 km/h (2 Bft) W-SW 242 0 min 0,000 mm 0,0 UV-I 7 W/m 8,7 C 10,8 C 16,1 km/h (3 Bft) 97,96 %
21.05.2017 05:36 12,4 C 20,6 C 79 % 1023,2 hPa 0,0 l/m 8,6 km/h (2 Bft) S-SW 211 0 min 0,000 mm 0,0 UV-I 7 W/m 8,9 C 11,0 C 14,5 km/h (3 Bft) 100,00 %
21.05.2017 05:38 12,4 C 20,6 C 78 % 1023,2 hPa 0,0 l/m 10,3 km/h (2 Bft) W-SW 253 0 min 0,000 mm 0,0 UV-I 7 W/m 8,7 C 10,1 C 12,9 km/h (3 Bft) 96,43 %
21.05.2017 05:40 12,4 C 20,6 C 78 % 1023,3 hPa 0,0 l/m 9,3 km/h (2 Bft) W-SW 244 0 min 0,000 mm 0,0 UV-I 8 W/m 8,7 C 10,6 C 14,5 km/h (3 Bft) 97,37 %
21.05.2017 05:42 12,4 C 20,6 C 78 % 1023,3 hPa 0,0 l/m 9,4 km/h (2 Bft) SW 235 0 min 0,000 mm 0,0 UV-I 9 W/m 8,7 C 10,6 C 14,5 km/h (3 Bft) 98,11 %
21.05.2017 05:44 12,4 C 20,6 C 78 % 1023,3 hPa 0,0 l/m 7,1 km/h (2 Bft) SW 229 0 min 0,000 mm 0,0 UV-I 9 W/m 8,7 C 11,9 C 9,7 km/h (2 Bft) 97,87 %
21.05.2017 05:46 12,4 C 20,6 C 79 % 1023,3 hPa 0,0 l/m 7,5 km/h (2 Bft) SW 232 0 min 0,000 mm 0,0 UV-I 10 W/m 8,9 C 11,7 C 11,3 km/h (2 Bft) 97,87 %
21.05.2017 05:48 12,4 C 20,6 C 78 % 1023,4 hPa 0,0 l/m 7,9 km/h (2 Bft) W-SW 248 0 min 0,000 mm 0,0 UV-I 11 W/m 8,7 C 11,4 C 11,3 km/h (2 Bft) 97,22 %
21.05.2017 05:50 12,4 C 20,6 C 79 % 1023,3 hPa 0,0 l/m 7,9 km/h (2 Bft) W-SW 237 0 min 0,000 mm 0,0 UV-I 12 W/m 8,9 C 11,4 C 11,3 km/h (2 Bft) 98,21 %
21.05.2017 05:52 12,4 C 20,6 C 79 % 1023,4 hPa 0,0 l/m 7,1 km/h (2 Bft) SW 229 0 min 0,000 mm 0,0 UV-I 12 W/m 8,9 C 11,9 C 9,7 km/h (2 Bft) 100,00 %
21.05.2017 05:54 12,4 C 20,6 C 79 % 1023,4 hPa 0,0 l/m 8,0 km/h (2 Bft) SW 217 0 min 0,000 mm 0,0 UV-I 12 W/m 8,9 C 11,4 C 11,3 km/h (2 Bft) 97,44 %
21.05.2017 05:56 12,4 C 20,6 C 79 % 1023,4 hPa 0,0 l/m 7,8 km/h (2 Bft) W-SW 252 0 min 0,000 mm 0,0 UV-I 14 W/m 8,9 C 11,5 C 12,9 km/h (3 Bft) 100,00 %
21.05.2017 05:58 12,4 C 20,6 C 78 % 1023,4 hPa 0,0 l/m 6,8 km/h (2 Bft) SW 236 0 min 0,000 mm 0,0 UV-I 15 W/m 8,7 C 12,1 C 9,7 km/h (2 Bft) 98,00 %
21.05.2017 06:00 12,4 C 20,6 C 79 % 1023,3 hPa 0,0 l/m 7,9 km/h (2 Bft) W-SW 244 0 min 0,025 mm 0,0 UV-I 18 W/m 8,9 C 11,4 C 12,9 km/h (3 Bft) 93,62 %
21.05.2017 06:02 12,4 C 20,6 C 79 % 1023,4 hPa 0,0 l/m 6,3 km/h (2 Bft) W-SW 245 0 min 0,000 mm 0,0 UV-I 18 W/m 8,9 C 12,4 C 9,7 km/h (2 Bft) 100,00 %
21.05.2017 06:04 12,4 C 20,6 C 79 % 1023,4 hPa 0,0 l/m 7,6 km/h (2 Bft) SW 221 0 min 0,000 mm 0,0 UV-I 19 W/m 8,9 C 11,6 C 12,9 km/h (3 Bft) 94,12 %
21.05.2017 06:06 12,3 C 20,6 C 79 % 1023,5 hPa 0,0 l/m 8,5 km/h (2 Bft) W-SW 240 0 min 0,000 mm 0,0 UV-I 19 W/m 8,8 C 11,0 C 11,3 km/h (2 Bft) 98,00 %
21.05.2017 06:08 12,3 C 20,6 C 79 % 1023,5 hPa 0,0 l/m 6,9 km/h (2 Bft) SW 234 0 min 0,000 mm 0,0 UV-I 19 W/m 8,8 C 12,0 C 9,7 km/h (2 Bft) 92,86 %
21.05.2017 06:10 12,3 C 20,6 C 79 % 1023,6 hPa 0,0 l/m 7,2 km/h (2 Bft) SW 225 0 min 0,000 mm 0,0 UV-I 19 W/m 8,8 C 11,8 C 11,3 km/h (2 Bft) 95,45 %
21.05.2017 06:12 12,4 C 20,6 C 79 % 1023,6 hPa 0,0 l/m 5,9 km/h (2 Bft) W-SW 239 0 min 0,000 mm 0,0 UV-I 19 W/m 8,9 C 12,4 C 8,0 km/h (2 Bft) 97,37 %
21.05.2017 06:14 12,4 C 20,6 C 79 % 1023,6 hPa 0,0 l/m 6,8 km/h (2 Bft) SW 234 0 min 0,000 mm 0,0 UV-I 21 W/m 8,9 C 12,1 C 9,7 km/h (2 Bft) 96,00 %
21.05.2017 06:16 12,4 C 20,6 C 79 % 1023,7 hPa 0,0 l/m 8,0 km/h (2 Bft) W-SW 246 0 min 0,000 mm 0,0 UV-I 21 W/m 8,9 C 11,4 C 11,3 km/h (2 Bft) 92,45 %
21.05.2017 06:18 12,4 C 20,6 C 80 % 1023,6 hPa 0,0 l/m 7,8 km/h (2 Bft) W-SW 240 0 min 0,000 mm 0,0 UV-I 22 W/m 9,0 C 11,5 C 9,7 km/h (2 Bft) 97,37 %
21.05.2017 06:20 12,4 C 20,6 C 79 % 1023,6 hPa 0,0 l/m 7,0 km/h (2 Bft) SW 234 0 min 0,000 mm 0,0 UV-I 23 W/m 8,9 C 12,0 C 9,7 km/h (2 Bft) 96,00 %
21.05.2017 06:22 12,4 C 20,6 C 79 % 1023,7 hPa 0,0 l/m 7,3 km/h (2 Bft) SW 222 0 min 0,000 mm 0,0 UV-I 21 W/m 8,9 C 11,8 C 12,9 km/h (3 Bft) 94,00 %
21.05.2017 06:24 12,4 C 20,6 C 79 % 1023,7 hPa 0,0 l/m 8,1 km/h (2 Bft) SW 235 0 min 0,000 mm 0,0 UV-I 21 W/m 8,9 C 11,3 C 11,3 km/h (2 Bft) 92,68 %
21.05.2017 06:26 12,4 C 20,6 C 80 % 1023,7 hPa 0,0 l/m 7,5 km/h (2 Bft) SW 236 0 min 0,000 mm 0,0 UV-I 23 W/m 9,0 C 11,7 C 11,3 km/h (2 Bft) 92,86 %
21.05.2017 06:28 12,3 C 20,6 C 80 % 1023,7 hPa 0,0 l/m 7,3 km/h (2 Bft) SW 227 0 min 0,000 mm 0,0 UV-I 28 W/m 8,9 C 11,7 C 11,3 km/h (2 Bft) 90,57 %
21.05.2017 06:30 12,3 C 20,6 C 80 % 1023,7 hPa 0,0 l/m 7,2 km/h (2 Bft) W-SW 238 0 min 0,000 mm 0,0 UV-I 33 W/m 8,9 C 11,8 C 12,9 km/h (3 Bft) 90,38 %
21.05.2017 06:32 12,3 C 20,6 C 80 % 1023,7 hPa 0,0 l/m 6,6 km/h (2 Bft) W-SW 238 0 min 0,000 mm 0,0 UV-I 32 W/m 8,9 C 12,2 C 11,3 km/h (2 Bft) 92,31 %
21.05.2017 06:34 12,4 C 20,6 C 80 % 1023,8 hPa 0,0 l/m 5,6 km/h (1 Bft) W-SW 255 0 min 0,000 mm 0,0 UV-I 30 W/m 9,0 C 12,4 C 8,0 km/h (2 Bft) 93,62 %
21.05.2017 06:36 12,3 C 20,6 C 80 % 1023,8 hPa 0,0 l/m 5,8 km/h (2 Bft) SW 223 0 min 0,000 mm 0,0 UV-I 27 W/m 8,9 C 12,3 C 8,0 km/h (2 Bft) 95,35 %
21.05.2017 06:38 12,4 C 20,6 C 80 % 1023,9 hPa 0,0 l/m 5,8 km/h (2 Bft) SW 226 0 min 0,000 mm 0,0 UV-I 26 W/m 9,0 C 12,4 C 11,3 km/h (2 Bft) 98,11 %
21.05.2017 06:40 12,4 C 20,6 C 80 % 1023,9 hPa 0,0 l/m 5,5 km/h (1 Bft) SW 225 0 min 0,000 mm 0,0 UV-I 26 W/m 9,0 C 12,4 C 8,0 km/h (2 Bft) 92,45 %
21.05.2017 06:42 12,4 C 20,6 C 79 % 1023,9 hPa 0,0 l/m 6,0 km/h (2 Bft) W-SW 245 0 min 0,000 mm 0,0 UV-I 26 W/m 8,9 C 12,4 C 11,3 km/h (2 Bft) 97,14 %
21.05.2017 06:44 12,4 C 20,6 C 79 % 1023,9 hPa 0,0 l/m 5,5 km/h (1 Bft) W-SW 238 0 min 0,000 mm 0,0 UV-I 26 W/m 8,9 C 12,4 C 8,0 km/h (2 Bft) 96,00 %
21.05.2017 06:46 12,4 C 20,6 C 79 % 1023,9 hPa 0,0 l/m 6,4 km/h (2 Bft) W-SW 239 0 min 0,000 mm 0,0 UV-I 27 W/m 8,9 C 12,4 C 9,7 km/h (2 Bft) 96,00 %
21.05.2017 06:48 12,4 C 20,6 C 79 % 1024,0 hPa 0,0 l/m 6,2 km/h (2 Bft) SW 226 0 min 0,000 mm 0,0 UV-I 29 W/m 8,9 C 12,4 C 8,0 km/h (2 Bft) 97,73 %
21.05.2017 06:50 12,4 C 20,6 C 79 % 1024,0 hPa 0,0 l/m 6,8 km/h (2 Bft) S-SW 212 0 min 0,000 mm 0,0 UV-I 30 W/m 8,9 C 12,1 C 11,3 km/h (2 Bft) 98,11 %
21.05.2017 06:52 12,4 C 20,6 C 79 % 1024,0 hPa 0,0 l/m 6,4 km/h (2 Bft) W-SW 242 0 min 0,000 mm 0,0 UV-I 30 W/m 8,9 C 12,4 C 9,7 km/h (2 Bft) 97,87 %
21.05.2017 06:54 12,5 C 20,6 C 79 % 1024,0 hPa 0,0 l/m 6,6 km/h (2 Bft) SW 232 0 min 0,000 mm 0,0 UV-I 30 W/m 9,0 C 12,4 C 9,7 km/h (2 Bft) 97,56 %
21.05.2017 06:56 12,5 C 20,6 C 79 % 1024,1 hPa 0,0 l/m 8,3 km/h (2 Bft) SW 229 0 min 0,000 mm 0,0 UV-I 31 W/m 9,0 C 11,3 C 11,3 km/h (2 Bft) 98,00 %
21.05.2017 06:58 12,5 C 20,6 C 79 % 1024,0 hPa 0,0 l/m 7,6 km/h (2 Bft) SW 234 0 min 0,000 mm 0,0 UV-I 32 W/m 9,0 C 11,7 C 9,7 km/h (2 Bft) 96,00 %
21.05.2017 07:00 12,5 C 20,6 C 79 % 1024,1 hPa 0,0 l/m 6,6 km/h (2 Bft) SW 221 0 min 0,026 mm 0,0 UV-I 33 W/m 9,0 C 12,4 C 9,7 km/h (2 Bft) 97,37 %
21.05.2017 07:02 12,5 C 20,6 C 80 % 1024,1 hPa 0,0 l/m 6,1 km/h (2 Bft) W-SW 248 0 min 0,000 mm 0,0 UV-I 33 W/m 9,1 C 12,5 C 8,0 km/h (2 Bft) 97,87 %
21.05.2017 07:04 12,5 C 20,6 C 79 % 1024,1 hPa 0,0 l/m 8,0 km/h (2 Bft) SW 216 0 min 0,000 mm 0,0 UV-I 33 W/m 9,0 C 11,5 C 11,3 km/h (2 Bft) 92,45 %
21.05.2017 07:06 12,4 C 20,6 C 80 % 1024,2 hPa 0,0 l/m 7,2 km/h (2 Bft) SW 215 0 min 0,000 mm 0,0 UV-I 32 W/m 9,0 C 11,9 C 11,3 km/h (2 Bft) 92,00 %
21.05.2017 07:08 12,5 C 20,6 C 80 % 1024,1 hPa 0,0 l/m 7,3 km/h (2 Bft) SW 234 0 min 0,000 mm 0,0 UV-I 32 W/m 9,1 C 11,9 C 12,9 km/h (3 Bft) 94,87 %
21.05.2017 07:10 12,5 C 20,6 C 79 % 1024,2 hPa 0,0 l/m 8,1 km/h (2 Bft) SW 217 0 min 0,000 mm 0,0 UV-I 32 W/m 9,0 C 11,4 C 11,3 km/h (2 Bft) 90,00 %
21.05.2017 07:12 12,5 C 20,6 C 79 % 1024,2 hPa 0,0 l/m 9,3 km/h (2 Bft) SW 221 0 min 0,000 mm 0,0 UV-I 32 W/m 9,0 C 10,7 C 14,5 km/h (3 Bft) 94,00 %
21.05.2017 07:14 12,6 C 20,6 C 79 % 1024,2 hPa 0,0 l/m 9,0 km/h (2 Bft) SW 236 0 min 0,000 mm 0,0 UV-I 29 W/m 9,1 C 11,0 C 11,3 km/h (2 Bft) 96,00 %
21.05.2017 07:16 12,6 C 20,6 C 79 % 1024,2 hPa 0,0 l/m 8,5 km/h (2 Bft) SW 229 0 min 0,000 mm 0,0 UV-I 28 W/m 9,1 C 11,3 C 12,9 km/h (3 Bft) 97,14 %
21.05.2017 07:18 12,6 C 20,6 C 80 % 1024,2 hPa 0,0 l/m 7,4 km/h (2 Bft) SW 235 0 min 0,000 mm 0,0 UV-I 28 W/m 9,2 C 12,0 C 11,3 km/h (2 Bft) 92,86 %
21.05.2017 07:20 12,6 C 20,6 C 79 % 1024,2 hPa 0,0 l/m 6,9 km/h (2 Bft) W 265 0 min 0,000 mm 0,0 UV-I 26 W/m 9,1 C 12,3 C 9,7 km/h (2 Bft) 97,56 %
21.05.2017 07:22 12,5 C 20,6 C 79 % 1024,3 hPa 0,0 l/m 6,1 km/h (2 Bft) W-SW 246 0 min 0,000 mm 0,0 UV-I 27 W/m 9,0 C 12,5 C 8,0 km/h (2 Bft) 96,00 %
21.05.2017 07:24 12,5 C 20,6 C 79 % 1024,3 hPa 0,0 l/m 7,7 km/h (2 Bft) W-SW 242 0 min 0,000 mm 0,0 UV-I 29 W/m 9,0 C 11,7 C 11,3 km/h (2 Bft) 98,11 %
21.05.2017 07:26 12,5 C 20,6 C 79 % 1024,3 hPa 0,0 l/m 8,2 km/h (2 Bft) S-SW 207 0 min 0,000 mm 0,0 UV-I 31 W/m 9,0 C 11,4 C 12,9 km/h (3 Bft) 100,00 %
21.05.2017 07:28 12,5 C 20,6 C 79 % 1024,3 hPa 0,0 l/m 6,6 km/h (2 Bft) SW 225 0 min 0,000 mm 0,0 UV-I 32 W/m 9,0 C 12,4 C 11,3 km/h (2 Bft) 95,74 %
21.05.2017 07:30 12,5 C 20,6 C 80 % 1024,3 hPa 0,0 l/m 6,4 km/h (2 Bft) SW 227 0 min 0,000 mm 0,0 UV-I 33 W/m 9,1 C 12,5 C 11,3 km/h (2 Bft) 94,34 %
21.05.2017 07:32 12,5 C 20,6 C 79 % 1024,4 hPa 0,0 l/m 7,4 km/h (2 Bft) W-SW 249 0 min 0,000 mm 0,0 UV-I 35 W/m 9,0 C 11,9 C 11,3 km/h (2 Bft) 100,00 %
21.05.2017 07:34 12,6 C 20,6 C 80 % 1024,4 hPa 0,0 l/m 6,7 km/h (2 Bft) S-SW 209 0 min 0,000 mm 0,0 UV-I 35 W/m 9,2 C 12,4 C 8,0 km/h (2 Bft) 98,00 %
21.05.2017 07:36 12,6 C 20,6 C 80 % 1024,4 hPa 0,0 l/m 6,7 km/h (2 Bft) SW 232 0 min 0,000 mm 0,0 UV-I 35 W/m 9,2 C 12,4 C 9,7 km/h (2 Bft) 100,00 %
21.05.2017 07:38 12,6 C 20,6 C 80 % 1024,4 hPa 0,0 l/m 6,1 km/h (2 Bft) W-SW 249 0 min 0,000 mm 0,0 UV-I 33 W/m 9,2 C 12,6 C 12,9 km/h (3 Bft) 96,00 %
21.05.2017 07:40 12,6 C 20,6 C 79 % 1024,5 hPa 0,0 l/m 7,5 km/h (2 Bft) SW 219 0 min 0,000 mm 0,0 UV-I 34 W/m 9,1 C 11,9 C 14,5 km/h (3 Bft) 95,74 %
21.05.2017 07:42 12,6 C 20,6 C 80 % 1024,4 hPa 0,0 l/m 6,4 km/h (2 Bft) SW 217 0 min 0,000 mm 0,0 UV-I 37 W/m 9,2 C 12,6 C 9,7 km/h (2 Bft) 95,74 %
21.05.2017 07:44 12,6 C 20,6 C 80 % 1024,5 hPa 0,0 l/m 6,7 km/h (2 Bft) S-SW 196 0 min 0,000 mm 0,0 UV-I 36 W/m 9,2 C 12,4 C 11,3 km/h (2 Bft) 100,00 %
21.05.2017 07:46 12,6 C 20,6 C 80 % 1024,6 hPa 0,0 l/m 5,4 km/h (1 Bft) W-SW 238 0 min 0,000 mm 0,0 UV-I 33 W/m 9,2 C 12,6 C 8,0 km/h (2 Bft) 98,11 %
21.05.2017 07:48 12,6 C 20,6 C 80 % 1024,6 hPa 0,0 l/m 5,2 km/h (1 Bft) SW 233 0 min 0,000 mm 0,0 UV-I 33 W/m 9,2 C 12,6 C 6,4 km/h (2 Bft) 96,15 %
21.05.2017 07:50 12,6 C 20,6 C 80 % 1024,6 hPa 0,0 l/m 4,7 km/h (1 Bft) W-SW 237 0 min 0,000 mm 0,0 UV-I 35 W/m 9,2 C 12,6 C 6,4 km/h (2 Bft) 100,00 %
21.05.2017 07:52 12,6 C 20,6 C 81 % 1024,6 hPa 0,0 l/m 5,6 km/h (1 Bft) SW 236 0 min 0,000 mm 0,0 UV-I 39 W/m 9,4 C 12,6 C 9,7 km/h (2 Bft) 96,00 %
21.05.2017 07:54 12,6 C 20,6 C 81 % 1024,7 hPa 0,0 l/m 5,3 km/h (1 Bft) SW 236 0 min 0,000 mm 0,0 UV-I 42 W/m 9,4 C 12,6 C 9,7 km/h (2 Bft) 100,00 %
21.05.2017 07:56 12,6 C 20,6 C 80 % 1024,7 hPa 0,0 l/m 5,1 km/h (1 Bft) W-SW 253 0 min 0,000 mm 0,0 UV-I 41 W/m 9,2 C 12,6 C 8,0 km/h (2 Bft) 100,00 %
21.05.2017 07:58 12,6 C 20,6 C 80 % 1024,7 hPa 0,0 l/m 4,7 km/h (1 Bft) SW 225 0 min 0,000 mm 0,0 UV-I 36 W/m 9,2 C 12,6 C 8,0 km/h (2 Bft) 98,00 %
21.05.2017 08:00 12,6 C 20,6 C 81 % 1024,7 hPa 0,0 l/m 5,4 km/h (1 Bft) W-SW 252 0 min 0,025 mm 0,0 UV-I 35 W/m 9,4 C 12,6 C 9,7 km/h (2 Bft) 97,56 %
21.05.2017 08:02 12,6 C 20,6 C 81 % 1024,8 hPa 0,0 l/m 5,7 km/h (1 Bft) W 279 0 min 0,000 mm 0,0 UV-I 36 W/m 9,4 C 12,6 C 11,3 km/h (2 Bft) 92,86 %
21.05.2017 08:04 12,6 C 20,6 C 81 % 1024,7 hPa 0,0 l/m 3,6 km/h (1 Bft) S-SW 212 0 min 0,000 mm 0,0 UV-I 40 W/m 9,4 C 12,6 C 6,4 km/h (2 Bft) 97,37 %
21.05.2017 08:06 12,5 C 20,6 C 82 % 1024,7 hPa 0,0 l/m 3,7 km/h (1 Bft) SW 215 0 min 0,000 mm 0,0 UV-I 45 W/m 9,5 C 12,5 C 4,8 km/h (1 Bft) 93,62 %
21.05.2017 08:08 12,5 C 20,6 C 82 % 1024,8 hPa 0,0 l/m 3,4 km/h (1 Bft) SW 215 0 min 0,000 mm 0,0 UV-I 51 W/m 9,5 C 12,5 C 4,8 km/h (1 Bft) 98,11 %
21.05.2017 08:10 12,5 C 20,6 C 82 % 1024,9 hPa 0,0 l/m 3,5 km/h (1 Bft) SW 226 0 min 0,000 mm 0,0 UV-I 57 W/m 9,5 C 12,5 C 4,8 km/h (1 Bft) 93,62 %
21.05.2017 08:12 12,5 C 20,6 C 83 % 1024,8 hPa 0,0 l/m 3,3 km/h (1 Bft) SW 226 0 min 0,000 mm 0,0 UV-I 61 W/m 9,7 C 12,5 C 6,4 km/h (2 Bft) 91,49 %
21.05.2017 08:14 12,5 C 20,6 C 82 % 1024,9 hPa 0,0 l/m 2,3 km/h (1 Bft) SW 226 0 min 0,000 mm 0,0 UV-I 62 W/m 9,5 C 12,5 C 3,2 km/h (1 Bft) 97,37 %
21.05.2017 08:16 12,5 C 20,6 C 83 % 1024,9 hPa 0,0 l/m 3,7 km/h (1 Bft) S-SW 198 0 min 0,000 mm 0,0 UV-I 62 W/m 9,7 C 12,5 C 6,4 km/h (2 Bft) 98,21 %
21.05.2017 08:18 12,5 C 20,6 C 82 % 1024,9 hPa 0,0 l/m 2,4 km/h (1 Bft) S-SW 198 0 min 0,000 mm 0,0 UV-I 64 W/m 9,5 C 12,5 C 4,8 km/h (1 Bft) 90,00 %
21.05.2017 08:20 12,5 C 20,6 C 82 % 1024,9 hPa 0,0 l/m 1,5 km/h (1 Bft) S-SW 198 0 min 0,000 mm 0,0 UV-I 68 W/m 9,5 C 12,5 C 4,8 km/h (1 Bft) 97,37 %
21.05.2017 08:22 12,5 C 20,6 C 82 % 1024,9 hPa 0,0 l/m 3,3 km/h (1 Bft) S-SW 197 0 min 0,000 mm 0,0 UV-I 72 W/m 9,5 C 12,5 C 6,4 km/h (2 Bft) 98,11 %
21.05.2017 08:24 12,6 C 20,6 C 83 % 1025,0 hPa 0,0 l/m 1,3 km/h (1 Bft) S-SW 197 0 min 0,000 mm 0,0 UV-I 70 W/m 9,8 C 12,6 C 3,2 km/h (1 Bft) 97,87 %
21.05.2017 08:26 12,6 C 20,6 C 83 % 1025,0 hPa 0,0 l/m 0,3 km/h (0 Bft) S-SW 197 0 min 0,000 mm 0,0 UV-I 69 W/m 9,8 C 12,6 C 1,6 km/h (1 Bft) 97,22 %
21.05.2017 08:28 12,6 C 20,6 C 82 % 1025,0 hPa 0,0 l/m 1,5 km/h (1 Bft) S-SW 197 0 min 0,000 mm 0,0 UV-I 70 W/m 9,6 C 12,6 C 3,2 km/h (1 Bft) 98,00 %
21.05.2017 08:30 12,6 C 20,6 C 82 % 1025,1 hPa 0,0 l/m 0,8 km/h (0 Bft) S-SW 197 0 min 0,000 mm 0,0 UV-I 70 W/m 9,6 C 12,6 C 1,6 km/h (1 Bft) 94,34 %
21.05.2017 08:32 12,6 C 20,6 C 83 % 1025,0 hPa 0,0 l/m 0,6 km/h (0 Bft) S-SW 197 0 min 0,000 mm 0,0 UV-I 72 W/m 9,8 C 12,6 C 3,2 km/h (1 Bft) 96,00 %
21.05.2017 08:34 12,6 C 20,6 C 84 % 1025,0 hPa 0,0 l/m 1,7 km/h (1 Bft) S-SW 197 0 min 0,000 mm 0,0 UV-I 74 W/m 10,0 C 12,6 C 3,2 km/h (1 Bft) 92,68 %
21.05.2017 08:36 12,6 C 20,6 C 83 % 1025,0 hPa 0,0 l/m 1,7 km/h (1 Bft) S-SW 194 0 min 0,000 mm 0,0 UV-I 79 W/m 9,8 C 12,6 C 4,8 km/h (1 Bft) 98,00 %
21.05.2017 08:38 12,6 C 20,6 C 84 % 1025,1 hPa 0,0 l/m 1,0 km/h (0 Bft) S-SW 194 0 min 0,000 mm 0,0 UV-I 84 W/m 10,0 C 12,6 C 3,2 km/h (1 Bft) 96,55 %
21.05.2017 08:40 12,6 C 20,6 C 84 % 1025,1 hPa 0,0 l/m 1,4 km/h (1 Bft) S-SW 194 0 min 0,000 mm 0,0 UV-I 90 W/m 10,0 C 12,6 C 3,2 km/h (1 Bft) 98,46 %
21.05.2017 08:42 12,6 C 20,6 C 84 % 1025,0 hPa 0,0 l/m 2,9 km/h (1 Bft) S-SW 194 0 min 0,000 mm 0,0 UV-I 97 W/m 10,0 C 12,6 C 6,4 km/h (2 Bft) 97,37 %
21.05.2017 08:44 12,6 C 20,6 C 85 % 1025,0 hPa 0,0 l/m 3,2 km/h (1 Bft) S-SW 192 0 min 0,000 mm 0,0 UV-I 105 W/m 10,1 C 12,6 C 6,4 km/h (2 Bft) 96,61 %
21.05.2017 08:46 12,6 C 20,6 C 84 % 1025,1 hPa 0,0 l/m 2,4 km/h (1 Bft) S-SW 192 0 min 0,000 mm 0,0 UV-I 113 W/m 10,0 C 12,6 C 4,8 km/h (1 Bft) 97,37 %
21.05.2017 08:48 12,6 C 20,6 C 84 % 1025,0 hPa 0,0 l/m 1,3 km/h (1 Bft) S-SW 192 0 min 0,000 mm 0,5 UV-I 118 W/m 10,0 C 12,6 C 3,2 km/h (1 Bft) 100,00 %
21.05.2017 08:50 12,6 C 20,6 C 84 % 1025,1 hPa 0,0 l/m 2,5 km/h (1 Bft) S-SW 192 0 min 0,000 mm 0,5 UV-I 124 W/m 10,0 C 12,6 C 4,8 km/h (1 Bft) 96,59 %
21.05.2017 08:52 12,7 C 20,6 C 84 % 1025,1 hPa 0,0 l/m 1,7 km/h (1 Bft) S-SW 192 0 min 0,000 mm 0,5 UV-I 133 W/m 10,1 C 12,7 C 4,8 km/h (1 Bft) 94,74 %
21.05.2017 08:54 12,7 C 20,6 C 83 % 1025,1 hPa 0,0 l/m 2,3 km/h (1 Bft) S-SW 193 0 min 0,000 mm 0,6 UV-I 141 W/m 9,9 C 12,7 C 4,8 km/h (1 Bft) 91,49 %
21.05.2017 08:56 12,7 C 20,6 C 83 % 1025,2 hPa 0,0 l/m 2,3 km/h (1 Bft) S 190 0 min 0,000 mm 0,6 UV-I 151 W/m 9,9 C 12,7 C 6,4 km/h (2 Bft) 97,87 %
21.05.2017 08:58 12,8 C 20,6 C 84 % 1025,1 hPa 0,0 l/m 4,7 km/h (1 Bft) S-SW 208 0 min 0,000 mm 0,6 UV-I 157 W/m 10,2 C 12,8 C 8,0 km/h (2 Bft) 98,00 %
21.05.2017 09:00 12,9 C 20,6 C 84 % 1025,2 hPa 0,0 l/m 4,0 km/h (1 Bft) S-SW 207 0 min 0,051 mm 0,6 UV-I 156 W/m 10,3 C 12,9 C 9,7 km/h (2 Bft) 97,87 %
21.05.2017 09:02 12,9 C 20,6 C 83 % 1025,2 hPa 0,0 l/m 5,0 km/h (1 Bft) S-SW 211 0 min 0,000 mm 0,6 UV-I 153 W/m 10,1 C 12,9 C 9,7 km/h (2 Bft) 98,00 %
21.05.2017 09:04 13,0 C 20,6 C 82 % 1025,2 hPa 0,0 l/m 4,5 km/h (1 Bft) S-SW 211 0 min 0,000 mm 0,7 UV-I 158 W/m 10,0 C 13,0 C 6,4 km/h (2 Bft) 97,87 %
21.05.2017 09:06 13,1 C 20,6 C 82 % 1025,2 hPa 0,0 l/m 3,4 km/h (1 Bft) S-SW 210 0 min 0,000 mm 0,7 UV-I 170 W/m 10,1 C 13,1 C 6,4 km/h (2 Bft) 97,44 %
21.05.2017 09:08 13,1 C 20,6 C 82 % 1025,2 hPa 0,0 l/m 3,8 km/h (1 Bft) S-SW 198 0 min 0,000 mm 0,8 UV-I 186 W/m 10,1 C 13,1 C 6,4 km/h (2 Bft) 96,00 %
21.05.2017 09:10 13,1 C 20,6 C 82 % 1025,2 hPa 0,0 l/m 6,1 km/h (2 Bft) S-SW 202 0 min 0,000 mm 0,8 UV-I 195 W/m 10,1 C 13,1 C 9,7 km/h (2 Bft) 96,00 %
21.05.2017 09:12 13,1 C 20,6 C 81 % 1025,2 hPa 0,0 l/m 7,6 km/h (2 Bft) S-SW 207 0 min 0,000 mm 0,8 UV-I 187 W/m 9,9 C 12,3 C 11,3 km/h (2 Bft) 97,87 %
21.05.2017 09:14 13,1 C 20,6 C 81 % 1025,2 hPa 0,0 l/m 5,6 km/h (1 Bft) S 187 0 min 0,000 mm 0,8 UV-I 175 W/m 9,9 C 13,1 C 9,7 km/h (2 Bft) 97,56 %
21.05.2017 09:16 13,1 C 20,6 C 81 % 1025,2 hPa 0,0 l/m 5,2 km/h (1 Bft) S-SW 207 0 min 0,000 mm 0,8 UV-I 177 W/m 9,9 C 13,1 C 8,0 km/h (2 Bft) 100,00 %
21.05.2017 09:18 13,1 C 20,6 C 82 % 1025,3 hPa 0,0 l/m 6,3 km/h (2 Bft) S-SW 213 0 min 0,000 mm 0,8 UV-I 188 W/m 10,1 C 13,1 C 9,7 km/h (2 Bft) 100,00 %
21.05.2017 09:20 13,2 C 20,6 C 83 % 1025,2 hPa 0,0 l/m 4,9 km/h (1 Bft) SW 224 0 min 0,000 mm 0,9 UV-I 202 W/m 10,4 C 13,2 C 8,0 km/h (2 Bft) 94,00 %
21.05.2017 09:22 13,2 C 20,6 C 83 % 1025,2 hPa 0,0 l/m 5,0 km/h (1 Bft) S-SW 202 0 min 0,000 mm 1,0 UV-I 214 W/m 10,4 C 13,2 C 8,0 km/h (2 Bft) 97,56 %
21.05.2017 09:24 13,3 C 20,6 C 82 % 1025,3 hPa 0,0 l/m 4,8 km/h (1 Bft) SW 221 0 min 0,000 mm 1,0 UV-I 226 W/m 10,3 C 13,3 C 6,4 km/h (2 Bft) 100,00 %
21.05.2017 09:26 13,4 C 20,6 C 83 % 1025,3 hPa 0,0 l/m 3,4 km/h (1 Bft) SW 221 0 min 0,000 mm 1,0 UV-I 238 W/m 10,6 C 13,4 C 4,8 km/h (1 Bft) 98,00 %
21.05.2017 09:28 13,4 C 20,6 C 82 % 1025,3 hPa 0,0 l/m 6,9 km/h (2 Bft) SW 226 0 min 0,000 mm 1,1 UV-I 244 W/m 10,4 C 13,1 C 11,3 km/h (2 Bft) 94,00 %
21.05.2017 09:30 13,4 C 20,6 C 82 % 1025,3 hPa 0,0 l/m 5,5 km/h (1 Bft) S-SW 196 0 min 0,000 mm 1,1 UV-I 248 W/m 10,4 C 13,4 C 9,7 km/h (2 Bft) 98,00 %
21.05.2017 09:32 13,5 C 20,6 C 82 % 1025,3 hPa 0,0 l/m 5,9 km/h (2 Bft) S-SW 212 0 min 0,000 mm 1,2 UV-I 260 W/m 10,5 C 13,5 C 9,7 km/h (2 Bft) 100,00 %
21.05.2017 09:34 13,5 C 20,6 C 81 % 1025,2 hPa 0,0 l/m 9,1 km/h (2 Bft) SW 225 0 min 0,000 mm 1,3 UV-I 271 W/m 10,3 C 11,9 C 12,9 km/h (3 Bft) 98,00 %
21.05.2017 09:36 13,5 C 20,6 C 80 % 1025,3 hPa 0,0 l/m 4,8 km/h (1 Bft) S 184 0 min 0,000 mm 1,3 UV-I 271 W/m 10,1 C 13,5 C 11,3 km/h (2 Bft) 96,00 %
21.05.2017 09:38 13,5 C 20,6 C 80 % 1025,3 hPa 0,0 l/m 5,4 km/h (1 Bft) SW 218 0 min 0,000 mm 1,3 UV-I 262 W/m 10,1 C 13,5 C 9,7 km/h (2 Bft) 95,45 %
21.05.2017 09:40 13,6 C 20,6 C 80 % 1025,2 hPa 0,0 l/m 7,4 km/h (2 Bft) SW 220 0 min 0,000 mm 1,2 UV-I 257 W/m 10,2 C 13,0 C 9,7 km/h (2 Bft) 100,00 %
21.05.2017 09:42 13,6 C 20,6 C 80 % 1025,2 hPa 0,0 l/m 5,7 km/h (1 Bft) W-SW 245 0 min 0,000 mm 1,2 UV-I 252 W/m 10,2 C 13,6 C 9,7 km/h (2 Bft) 97,87 %
21.05.2017 09:44 13,7 C 20,6 C 80 % 1025,3 hPa 0,0 l/m 5,2 km/h (1 Bft) W-SW 253 0 min 0,000 mm 1,2 UV-I 245 W/m 10,3 C 13,7 C 8,0 km/h (2 Bft) 97,44 %
21.05.2017 09:46 13,8 C 20,6 C 80 % 1025,2 hPa 0,0 l/m 6,4 km/h (2 Bft) W-SW 245 0 min 0,000 mm 1,2 UV-I 238 W/m 10,4 C 13,8 C 11,3 km/h (2 Bft) 94,00 %
21.05.2017 09:48 13,8 C 20,6 C 79 % 1025,2 hPa 0,0 l/m 5,4 km/h (1 Bft) SW 221 0 min 0,000 mm 1,1 UV-I 231 W/m 10,2 C 13,8 C 8,0 km/h (2 Bft) 97,87 %
21.05.2017 09:50 13,8 C 20,6 C 79 % 1025,2 hPa 0,0 l/m 5,0 km/h (1 Bft) S-SW 202 0 min 0,000 mm 1,1 UV-I 222 W/m 10,2 C 13,8 C 8,0 km/h (2 Bft) 95,45 %
21.05.2017 09:52 13,8 C 20,6 C 78 % 1025,2 hPa 0,0 l/m 7,8 km/h (2 Bft) S 191 0 min 0,000 mm 1,1 UV-I 217 W/m 10,0 C 13,0 C 14,5 km/h (3 Bft) 95,74 %
21.05.2017 09:54 13,8 C 20,6 C 78 % 1025,2 hPa 0,0 l/m 6,0 km/h (2 Bft) SW 229 0 min 0,000 mm 1,0 UV-I 212 W/m 10,0 C 13,8 C 8,0 km/h (2 Bft) 100,00 %
21.05.2017 09:56 13,8 C 20,6 C 78 % 1025,3 hPa 0,0 l/m 8,4 km/h (2 Bft) W 274 0 min 0,000 mm 1,0 UV-I 209 W/m 10,0 C 12,6 C 11,3 km/h (2 Bft) 100,00 %
21.05.2017 09:58 13,8 C 20,6 C 79 % 1025,3 hPa 0,0 l/m 6,2 km/h (2 Bft) SW 232 0 min 0,000 mm 1,0 UV-I 206 W/m 10,2 C 13,8 C 11,3 km/h (2 Bft) 93,22 %
21.05.2017 10:00 13,8 C 20,6 C 79 % 1025,2 hPa 0,0 l/m 7,3 km/h (2 Bft) W-SW 240 0 min 0,127 mm 1,0 UV-I 209 W/m 10,2 C 13,3 C 12,9 km/h (3 Bft) 92,68 %
21.05.2017 10:02 13,8 C 20,6 C 77 % 1025,3 hPa 0,0 l/m 8,3 km/h (2 Bft) S-SW 206 0 min 0,000 mm 1,1 UV-I 214 W/m 9,8 C 12,7 C 12,9 km/h (3 Bft) 94,00 %
21.05.2017 10:04 13,9 C 20,6 C 77 % 1025,3 hPa 0,0 l/m 7,6 km/h (2 Bft) W-SW 246 0 min 0,000 mm 1,1 UV-I 221 W/m 9,9 C 13,2 C 12,9 km/h (3 Bft) 94,00 %
21.05.2017 10:06 13,9 C 20,6 C 77 % 1025,2 hPa 0,0 l/m 7,5 km/h (2 Bft) S-SW 210 0 min 0,000 mm 1,2 UV-I 233 W/m 9,9 C 13,2 C 12,9 km/h (3 Bft) 94,00 %
21.05.2017 10:08 13,9 C 20,6 C 77 % 1025,2 hPa 0,0 l/m 3,0 km/h (1 Bft) SW 222 0 min 0,000 mm 1,3 UV-I 249 W/m 9,9 C 13,9 C 4,8 km/h (1 Bft) 91,49 %
21.05.2017 10:10 14,1 C 20,6 C 78 % 1025,2 hPa 0,0 l/m 4,3 km/h (1 Bft) SW 227 0 min 0,000 mm 1,4 UV-I 265 W/m 10,3 C 14,1 C 11,3 km/h (2 Bft) 97,37 %
21.05.2017 10:12 14,1 C 20,6 C 77 % 1025,2 hPa 0,0 l/m 6,9 km/h (2 Bft) W 265 0 min 0,000 mm 1,5 UV-I 279 W/m 10,1 C 13,8 C 11,3 km/h (2 Bft) 97,56 %
21.05.2017 10:14 14,2 C 20,6 C 77 % 1025,2 hPa 0,0 l/m 6,6 km/h (2 Bft) S-SW 207 0 min 0,000 mm 1,5 UV-I 286 W/m 10,2 C 14,1 C 11,3 km/h (2 Bft) 90,57 %
21.05.2017 10:16 14,2 C 20,6 C 77 % 1025,3 hPa 0,0 l/m 6,6 km/h (2 Bft) W 270 0 min 0,000 mm 1,5 UV-I 290 W/m 10,2 C 14,1 C 11,3 km/h (2 Bft) 95,12 %
21.05.2017 10:18 14,3 C 20,6 C 77 % 1025,2 hPa 0,0 l/m 4,0 km/h (1 Bft) SW 228 0 min 0,000 mm 1,5 UV-I 293 W/m 10,3 C 14,3 C 6,4 km/h (2 Bft) 98,21 %
21.05.2017 10:20 14,4 C 20,6 C 77 % 1025,2 hPa 0,0 l/m 8,5 km/h (2 Bft) W 264 0 min 0,000 mm 1,5 UV-I 289 W/m 10,4 C 13,2 C 14,5 km/h (3 Bft) 92,00 %
21.05.2017 10:22 14,4 C 20,6 C 74 % 1025,3 hPa 0,0 l/m 7,8 km/h (2 Bft) W 281 0 min 0,000 mm 1,5 UV-I 282 W/m 9,8 C 13,6 C 14,5 km/h (3 Bft) 92,31 %
21.05.2017 10:24 14,4 C 20,6 C 75 % 1025,3 hPa 0,0 l/m 4,6 km/h (1 Bft) W 273 0 min 0,000 mm 1,5 UV-I 281 W/m 10,0 C 14,4 C 9,7 km/h (2 Bft) 90,00 %
21.05.2017 10:26 14,4 C 20,6 C 74 % 1025,3 hPa 0,0 l/m 8,8 km/h (2 Bft) W 269 0 min 0,000 mm 1,5 UV-I 284 W/m 9,8 C 13,0 C 12,9 km/h (3 Bft) 90,91 %
21.05.2017 10:28 14,3 C 20,6 C 73 % 1025,3 hPa 0,0 l/m 8,2 km/h (2 Bft) W-SW 238 0 min 0,000 mm 1,6 UV-I 291 W/m 9,5 C 13,3 C 12,9 km/h (3 Bft) 96,43 %
21.05.2017 10:30 14,3 C 20,6 C 74 % 1025,3 hPa 0,0 l/m 8,4 km/h (2 Bft) W-SW 249 0 min 0,000 mm 1,6 UV-I 293 W/m 9,7 C 13,1 C 11,3 km/h (2 Bft) 92,68 %
21.05.2017 10:32 14,3 C 20,6 C 74 % 1025,2 hPa 0,0 l/m 5,5 km/h (1 Bft) W 265 0 min 0,000 mm 1,6 UV-I 294 W/m 9,7 C 14,3 C 9,7 km/h (2 Bft) 98,00 %
21.05.2017 10:34 14,4 C 20,6 C 75 % 1025,2 hPa 0,0 l/m 5,3 km/h (1 Bft) SW 232 0 min 0,000 mm 1,7 UV-I 300 W/m 10,0 C 14,4 C 9,7 km/h (2 Bft) 94,00 %
21.05.2017 10:36 14,4 C 20,6 C 74 % 1025,2 hPa 0,0 l/m 8,1 km/h (2 Bft) W-SW 246 0 min 0,000 mm 1,7 UV-I 303 W/m 9,8 C 13,4 C 12,9 km/h (3 Bft) 86,84 %
21.05.2017 10:38 14,4 C 20,6 C 73 % 1025,1 hPa 0,0 l/m 9,0 km/h (2 Bft) SW 231 0 min 0,000 mm 1,7 UV-I 308 W/m 9,6 C 12,9 C 14,5 km/h (3 Bft) 97,73 %
21.05.2017 10:40 14,5 C 20,6 C 73 % 1025,1 hPa 0,0 l/m 8,6 km/h (2 Bft) SW 219 0 min 0,000 mm 1,7 UV-I 311 W/m 9,7 C 13,3 C 14,5 km/h (3 Bft) 94,00 %
21.05.2017 10:42 14,5 C 20,6 C 72 % 1025,2 hPa 0,0 l/m 8,5 km/h (2 Bft) W-SW 252 0 min 0,000 mm 1,7 UV-I 312 W/m 9,5 C 13,3 C 12,9 km/h (3 Bft) 93,18 %
21.05.2017 10:44 14,6 C 20,6 C 73 % 1025,2 hPa 0,0 l/m 6,5 km/h (2 Bft) S-SW 202 0 min 0,000 mm 1,8 UV-I 310 W/m 9,8 C 14,6 C 9,7 km/h (2 Bft) 96,00 %
21.05.2017 10:46 14,6 C 20,6 C 73 % 1025,2 hPa 0,0 l/m 7,6 km/h (2 Bft) SW 232 0 min 0,000 mm 1,7 UV-I 306 W/m 9,8 C 13,9 C 9,7 km/h (2 Bft) 97,56 %
21.05.2017 10:48 14,7 C 20,6 C 73 % 1025,2 hPa 0,0 l/m 7,1 km/h (2 Bft) SW 236 0 min 0,000 mm 1,7 UV-I 302 W/m 9,9 C 14,3 C 12,9 km/h (3 Bft) 96,00 %
21.05.2017 10:50 14,7 C 20,6 C 72 % 1025,1 hPa 0,0 l/m 8,0 km/h (2 Bft) W-SW 247 0 min 0,000 mm 1,7 UV-I 299 W/m 9,7 C 13,8 C 12,9 km/h (3 Bft) 92,86 %
21.05.2017 10:52 14,6 C 20,6 C 72 % 1025,2 hPa 0,0 l/m 7,7 km/h (2 Bft) W-SW 240 0 min 0,000 mm 1,7 UV-I 292 W/m 9,6 C 13,8 C 12,9 km/h (3 Bft) 92,11 %
21.05.2017 10:54 14,6 C 20,6 C 73 % 1025,2 hPa 0,0 l/m 7,8 km/h (2 Bft) W 260 0 min 0,000 mm 1,6 UV-I 281 W/m 9,8 C 13,8 C 12,9 km/h (3 Bft) 97,44 %
21.05.2017 10:56 14,6 C 20,6 C 72 % 1025,2 hPa 0,0 l/m 7,1 km/h (2 Bft) W 259 0 min 0,000 mm 1,5 UV-I 270 W/m 9,6 C 14,2 C 11,3 km/h (2 Bft) 95,31 %
21.05.2017 10:58 14,7 C 20,6 C 73 % 1025,2 hPa 0,0 l/m 4,2 km/h (1 Bft) W-SW 243 0 min 0,000 mm 1,5 UV-I 270 W/m 9,9 C 14,7 C 9,7 km/h (2 Bft) 95,12 %
21.05.2017 11:00 14,7 C 20,6 C 73 % 1025,2 hPa 0,0 l/m 6,2 km/h (2 Bft) W-SW 246 0 min 0,178 mm 1,6 UV-I 278 W/m 9,9 C 14,7 C 9,7 km/h (2 Bft) 90,57 %
21.05.2017 11:02 14,7 C 20,6 C 73 % 1025,2 hPa 0,0 l/m 6,6 km/h (2 Bft) W-SW 244 0 min 0,000 mm 1,6 UV-I 281 W/m 9,9 C 14,6 C 11,3 km/h (2 Bft) 97,73 %
21.05.2017 11:04 14,7 C 20,6 C 73 % 1025,2 hPa 0,0 l/m 4,4 km/h (1 Bft) W 265 0 min 0,000 mm 1,6 UV-I 280 W/m 9,9 C 14,7 C 6,4 km/h (2 Bft) 93,62 %
21.05.2017 11:06 14,7 C 20,6 C 72 % 1025,2 hPa 0,0 l/m 5,7 km/h (1 Bft) W-SW 245 0 min 0,000 mm 1,6 UV-I 279 W/m 9,7 C 14,7 C 11,3 km/h (2 Bft) 94,87 %
21.05.2017 11:08 14,7 C 20,6 C 71 % 1025,2 hPa 0,0 l/m 5,6 km/h (1 Bft) SW 231 0 min 0,000 mm 1,6 UV-I 276 W/m 9,5 C 14,7 C 8,0 km/h (2 Bft) 90,00 %
21.05.2017 11:10 14,7 C 20,6 C 73 % 1025,3 hPa 0,0 l/m 6,5 km/h (2 Bft) SW 224 0 min 0,000 mm 1,6 UV-I 272 W/m 9,9 C 14,7 C 12,9 km/h (3 Bft) 96,00 %
21.05.2017 11:12 14,7 C 20,6 C 70 % 1025,2 hPa 0,0 l/m 8,1 km/h (2 Bft) W-SW 242 0 min 0,000 mm 1,7 UV-I 274 W/m 9,3 C 13,7 C 11,3 km/h (2 Bft) 96,00 %
21.05.2017 11:14 14,7 C 20,6 C 71 % 1025,2 hPa 0,0 l/m 5,8 km/h (2 Bft) W 259 0 min 0,000 mm 1,7 UV-I 280 W/m 9,5 C 14,7 C 12,9 km/h (3 Bft) 95,12 %
21.05.2017 11:16 14,8 C 20,6 C 72 % 1025,2 hPa 0,0 l/m 4,2 km/h (1 Bft) W-SW 239 0 min 0,000 mm 1,7 UV-I 287 W/m 9,8 C 14,8 C 8,0 km/h (2 Bft) 97,56 %
21.05.2017 11:18 14,8 C 20,6 C 72 % 1025,2 hPa 0,0 l/m 5,4 km/h (1 Bft) S-SW 205 0 min 0,000 mm 1,8 UV-I 289 W/m 9,8 C 14,8 C 11,3 km/h (2 Bft) 91,53 %
21.05.2017 11:20 14,8 C 20,6 C 71 % 1025,2 hPa 0,0 l/m 5,2 km/h (1 Bft) S-SW 194 0 min 0,000 mm 1,8 UV-I 289 W/m 9,6 C 14,8 C 8,0 km/h (2 Bft) 97,37 %
21.05.2017 11:22 14,8 C 20,6 C 71 % 1025,2 hPa 0,0 l/m 6,7 km/h (2 Bft) W-SW 255 0 min 0,000 mm 1,8 UV-I 288 W/m 9,6 C 14,6 C 12,9 km/h (3 Bft) 98,04 %
21.05.2017 11:24 14,9 C 20,6 C 72 % 1025,2 hPa 0,0 l/m 4,1 km/h (1 Bft) W-SW 253 0 min 0,000 mm 1,8 UV-I 288 W/m 9,9 C 14,9 C 8,0 km/h (2 Bft) 89,66 %
21.05.2017 11:26 15,0 C 20,6 C 73 % 1025,3 hPa 0,0 l/m 3,7 km/h (1 Bft) W-SW 257 0 min 0,000 mm 1,8 UV-I 286 W/m 10,2 C 15,0 C 6,4 km/h (2 Bft) 97,06 %
21.05.2017 11:28 15,0 C 20,6 C 71 % 1025,3 hPa 0,0 l/m 5,5 km/h (1 Bft) W-SW 250 0 min 0,000 mm 1,7 UV-I 278 W/m 9,8 C 15,0 C 8,0 km/h (2 Bft) 92,11 %
21.05.2017 11:30 15,1 C 20,6 C 71 % 1025,3 hPa 0,0 l/m 4,0 km/h (1 Bft) SW 236 0 min 0,000 mm 1,7 UV-I 266 W/m 9,9 C 15,1 C 8,0 km/h (2 Bft) 92,45 %
21.05.2017 11:32 15,0 C 20,6 C 71 % 1025,3 hPa 0,0 l/m 4,9 km/h (1 Bft) W-SW 245 0 min 0,000 mm 1,7 UV-I 261 W/m 9,8 C 15,0 C 6,4 km/h (2 Bft) 97,56 %
21.05.2017 11:34 15,1 C 20,6 C 71 % 1025,3 hPa 0,0 l/m 5,6 km/h (1 Bft) SW 234 0 min 0,000 mm 1,7 UV-I 267 W/m 9,9 C 15,1 C 8,0 km/h (2 Bft) 95,74 %
21.05.2017 11:36 15,0 C 20,6 C 71 % 1025,3 hPa 0,0 l/m 6,1 km/h (2 Bft) W 262 0 min 0,000 mm 1,8 UV-I 276 W/m 9,8 C 15,0 C 11,3 km/h (2 Bft) 98,00 %
21.05.2017 11:38 15,0 C 20,6 C 70 % 1025,2 hPa 0,0 l/m 5,2 km/h (1 Bft) W-SW 256 0 min 0,000 mm 1,9 UV-I 285 W/m 9,6 C 15,0 C 9,7 km/h (2 Bft) 92,45 %
21.05.2017 11:40 15,0 C 20,6 C 70 % 1025,3 hPa 0,0 l/m 8,2 km/h (2 Bft) W-SW 247 0 min 0,000 mm 1,9 UV-I 287 W/m 9,6 C 14,0 C 11,3 km/h (2 Bft) 100,00 %
21.05.2017 11:42 14,9 C 20,6 C 70 % 1025,2 hPa 0,0 l/m 5,0 km/h (1 Bft) W-SW 250 0 min 0,000 mm 1,8 UV-I 285 W/m 9,5 C 14,9 C 6,4 km/h (2 Bft) 100,00 %
21.05.2017 11:44 15,0 C 20,6 C 70 % 1025,2 hPa 0,0 l/m 6,6 km/h (2 Bft) W-SW 258 0 min 0,000 mm 1,8 UV-I 278 W/m 9,6 C 14,9 C 11,3 km/h (2 Bft) 95,92 %
21.05.2017 11:46 15,1 C 20,6 C 69 % 1025,2 hPa 0,0 l/m 5,4 km/h (1 Bft) W 271 0 min 0,000 mm 1,7 UV-I 266 W/m 9,5 C 15,1 C 9,7 km/h (2 Bft) 97,44 %
21.05.2017 11:48 15,1 C 20,6 C 71 % 1025,3 hPa 0,0 l/m 6,9 km/h (2 Bft) W-SW 240 0 min 0,000 mm 1,6 UV-I 257 W/m 9,9 C 14,8 C 11,3 km/h (2 Bft) 98,00 %
21.05.2017 11:50 15,1 C 20,6 C 69 % 1025,3 hPa 0,0 l/m 5,2 km/h (1 Bft) W-SW 248 0 min 0,000 mm 1,6 UV-I 252 W/m 9,5 C 15,1 C 9,7 km/h (2 Bft) 97,14 %
21.05.2017 11:52 15,1 C 20,6 C 69 % 1025,3 hPa 0,0 l/m 7,0 km/h (2 Bft) W-SW 248 0 min 0,000 mm 1,5 UV-I 241 W/m 9,5 C 14,8 C 12,9 km/h (3 Bft) 92,86 %
21.05.2017 11:54 15,1 C 20,6 C 69 % 1025,3 hPa 0,0 l/m 6,8 km/h (2 Bft) W 259 0 min 0,000 mm 1,4 UV-I 230 W/m 9,5 C 14,9 C 11,3 km/h (2 Bft) 98,00 %
21.05.2017 11:56 15,1 C 20,6 C 69 % 1025,2 hPa 0,0 l/m 5,9 km/h (2 Bft) SW 214 0 min 0,000 mm 1,4 UV-I 224 W/m 9,5 C 15,1 C 9,7 km/h (2 Bft) 94,00 %
21.05.2017 11:58 15,0 C 20,6 C 69 % 1025,2 hPa 0,0 l/m 8,3 km/h (2 Bft) S-SW 201 0 min 0,000 mm 1,4 UV-I 224 W/m 9,4 C 13,9 C 12,9 km/h (3 Bft) 95,12 %
21.05.2017 12:00 15,0 C 20,6 C 69 % 1025,2 hPa 0,0 l/m 8,3 km/h (2 Bft) SW 231 0 min 0,152 mm 1,4 UV-I 225 W/m 9,4 C 13,9 C 14,5 km/h (3 Bft) 92,00 %
21.05.2017 12:02 15,0 C 20,6 C 69 % 1025,2 hPa 0,0 l/m 6,1 km/h (2 Bft) SW 216 0 min 0,000 mm 1,4 UV-I 228 W/m 9,4 C 15,0 C 9,7 km/h (2 Bft) 93,18 %
21.05.2017 12:04 15,1 C 20,6 C 69 % 1025,2 hPa 0,0 l/m 6,5 km/h (2 Bft) S-SW 209 0 min 0,000 mm 1,4 UV-I 230 W/m 9,5 C 15,1 C 9,7 km/h (2 Bft) 92,00 %
21.05.2017 12:06 15,0 C 20,6 C 68 % 1025,2 hPa 0,0 l/m 5,7 km/h (1 Bft) S-SW 209 0 min 0,000 mm 1,4 UV-I 230 W/m 9,1 C 15,0 C 8,0 km/h (2 Bft) 92,00 %
21.05.2017 12:08 15,0 C 20,6 C 68 % 1025,2 hPa 0,0 l/m 6,3 km/h (2 Bft) W-SW 253 0 min 0,000 mm 1,4 UV-I 229 W/m 9,1 C 15,0 C 9,7 km/h (2 Bft) 95,74 %
21.05.2017 12:10 15,1 C 20,6 C 68 % 1025,2 hPa 0,0 l/m 3,7 km/h (1 Bft) W-SW 244 0 min 0,000 mm 1,5 UV-I 233 W/m 9,2 C 15,1 C 8,0 km/h (2 Bft) 97,56 %
21.05.2017 12:12 15,1 C 20,6 C 68 % 1025,2 hPa 0,0 l/m 5,7 km/h (1 Bft) SW 235 0 min 0,000 mm 1,6 UV-I 253 W/m 9,2 C 15,1 C 9,7 km/h (2 Bft) 96,00 %
21.05.2017 12:14 15,1 C 20,6 C 67 % 1025,2 hPa 0,0 l/m 3,6 km/h (1 Bft) SW 229 0 min 0,000 mm 1,7 UV-I 270 W/m 9,0 C 15,1 C 6,4 km/h (2 Bft) 92,68 %
21.05.2017 12:16 15,2 C 20,6 C 68 % 1025,2 hPa 0,0 l/m 7,2 km/h (2 Bft) W 259 0 min 0,000 mm 1,8 UV-I 280 W/m 9,3 C 14,8 C 11,3 km/h (2 Bft) 94,64 %
21.05.2017 12:18 15,2 C 20,6 C 68 % 1025,2 hPa 0,0 l/m 5,2 km/h (1 Bft) W 275 0 min 0,000 mm 1,8 UV-I 286 W/m 9,3 C 15,2 C 9,7 km/h (2 Bft) 97,22 %
21.05.2017 12:20 15,3 C 20,6 C 70 % 1025,2 hPa 0,0 l/m 4,3 km/h (1 Bft) W-SW 253 0 min 0,000 mm 1,9 UV-I 290 W/m 9,9 C 15,3 C 6,4 km/h (2 Bft) 96,00 %
21.05.2017 12:22 15,3 C 20,6 C 68 % 1025,2 hPa 0,0 l/m 6,3 km/h (2 Bft) W-SW 248 0 min 0,000 mm 1,9 UV-I 294 W/m 9,4 C 15,3 C 9,7 km/h (2 Bft) 93,62 %
21.05.2017 12:24 15,3 C 20,6 C 68 % 1025,3 hPa 0,0 l/m 6,8 km/h (2 Bft) SW 234 0 min 0,000 mm 1,9 UV-I 303 W/m 9,4 C 15,1 C 14,5 km/h (3 Bft) 96,23 %
21.05.2017 12:26 15,4 C 20,6 C 67 % 1025,2 hPa 0,0 l/m 4,0 km/h (1 Bft) SW 214 0 min 0,000 mm 2,0 UV-I 314 W/m 9,3 C 15,4 C 6,4 km/h (2 Bft) 97,73 %
21.05.2017 12:28 15,4 C 20,6 C 67 % 1025,2 hPa 0,0 l/m 5,0 km/h (1 Bft) SW 232 0 min 0,000 mm 2,0 UV-I 328 W/m 9,3 C 15,4 C 11,3 km/h (2 Bft) 98,00 %
21.05.2017 12:30 15,4 C 20,6 C 67 % 1025,2 hPa 0,0 l/m 3,8 km/h (1 Bft) W 263 0 min 0,000 mm 2,3 UV-I 361 W/m 9,3 C 15,4 C 6,4 km/h (2 Bft) 95,45 %
21.05.2017 12:32 15,6 C 20,6 C 67 % 1025,2 hPa 0,0 l/m 4,8 km/h (1 Bft) SW 223 0 min 0,000 mm 2,6 UV-I 399 W/m 9,5 C 15,6 C 11,3 km/h (2 Bft) 96,00 %
21.05.2017 12:34 15,7 C 20,6 C 67 % 1025,2 hPa 0,0 l/m 2,5 km/h (1 Bft) W-SW 249 0 min 0,000 mm 2,8 UV-I 430 W/m 9,6 C 15,7 C 6,4 km/h (2 Bft) 95,74 %
21.05.2017 12:36 15,7 C 20,6 C 65 % 1025,2 hPa 0,0 l/m 9,3 km/h (2 Bft) SW 232 0 min 0,000 mm 2,9 UV-I 445 W/m 9,1 C 14,2 C 14,5 km/h (3 Bft) 95,45 %
21.05.2017 12:38 15,6 C 20,6 C 64 % 1025,2 hPa 0,0 l/m 8,2 km/h (2 Bft) S-SW 200 0 min 0,000 mm 2,9 UV-I 448 W/m 8,8 C 14,6 C 11,3 km/h (2 Bft) 100,00 %
21.05.2017 12:40 15,7 C 20,6 C 67 % 1025,2 hPa 0,0 l/m 6,6 km/h (2 Bft) W-SW 257 0 min 0,000 mm 2,9 UV-I 447 W/m 9,6 C 15,6 C 12,9 km/h (3 Bft) 97,37 %
21.05.2017 12:42 15,8 C 20,6 C 64 % 1025,2 hPa 0,0 l/m 7,0 km/h (2 Bft) SW 228 0 min 0,000 mm 2,9 UV-I 441 W/m 9,0 C 15,5 C 12,9 km/h (3 Bft) 100,00 %
21.05.2017 12:44 15,7 C 20,6 C 64 % 1025,2 hPa 0,0 l/m 5,5 km/h (1 Bft) S-SW 207 0 min 0,000 mm 2,8 UV-I 429 W/m 8,9 C 15,7 C 9,7 km/h (2 Bft) 100,00 %
21.05.2017 12:46 15,7 C 20,6 C 64 % 1025,2 hPa 0,0 l/m 2,1 km/h (1 Bft) S 180 0 min 0,000 mm 2,8 UV-I 422 W/m 8,9 C 15,7 C 4,8 km/h (1 Bft) 98,00 %
21.05.2017 12:48 15,8 C 20,6 C 66 % 1025,2 hPa 0,0 l/m 5,0 km/h (1 Bft) SW 227 0 min 0,000 mm 2,8 UV-I 421 W/m 9,5 C 15,8 C 9,7 km/h (2 Bft) 100,00 %
21.05.2017 12:50 15,8 C 20,6 C 64 % 1025,1 hPa 0,0 l/m 6,1 km/h (2 Bft) S-SW 198 0 min 0,000 mm 2,7 UV-I 415 W/m 9,0 C 15,8 C 9,7 km/h (2 Bft) 98,11 %
21.05.2017 12:52 15,8 C 20,6 C 67 % 1025,1 hPa 0,0 l/m 7,1 km/h (2 Bft) S-SW 192 0 min 0,000 mm 2,7 UV-I 411 W/m 9,7 C 15,4 C 11,3 km/h (2 Bft) 97,56 %
21.05.2017 12:54 15,8 C 20,6 C 65 % 1025,1 hPa 0,0 l/m 5,2 km/h (1 Bft) S 180 0 min 0,000 mm 2,8 UV-I 417 W/m 9,2 C 15,8 C 9,7 km/h (2 Bft) 94,34 %
21.05.2017 12:56 15,8 C 20,6 C 64 % 1025,0 hPa 0,0 l/m 4,5 km/h (1 Bft) W-SW 237 0 min 0,000 mm 2,8 UV-I 423 W/m 9,0 C 15,8 C 6,4 km/h (2 Bft) 97,37 %
21.05.2017 12:58 15,8 C 20,6 C 64 % 1025,0 hPa 0,0 l/m 3,1 km/h (1 Bft) W 261 0 min 0,000 mm 2,7 UV-I 414 W/m 9,0 C 15,8 C 4,8 km/h (1 Bft) 98,00 %
21.05.2017 13:00 15,8 C 20,6 C 65 % 1025,0 hPa 0,0 l/m 3,7 km/h (1 Bft) S-SO 159 0 min 0,203 mm 2,6 UV-I 399 W/m 9,2 C 15,8 C 8,0 km/h (2 Bft) 100,00 %
21.05.2017 13:02 15,9 C 20,6 C 65 % 1025,0 hPa 0,0 l/m 4,5 km/h (1 Bft) S-SO 153 0 min 0,000 mm 2,6 UV-I 384 W/m 9,3 C 15,9 C 8,0 km/h (2 Bft) 92,86 %
21.05.2017 13:04 15,8 C 20,6 C 64 % 1025,0 hPa 0,0 l/m 3,6 km/h (1 Bft) S-SO 147 0 min 0,000 mm 2,4 UV-I 361 W/m 9,0 C 15,8 C 9,7 km/h (2 Bft) 100,00 %
21.05.2017 13:06 15,8 C 20,6 C 65 % 1025,0 hPa 0,0 l/m 1,1 km/h (1 Bft) S-SO 153 0 min 0,000 mm 2,4 UV-I 359 W/m 9,2 C 15,8 C 3,2 km/h (1 Bft) 92,11 %
21.05.2017 13:08 15,9 C 20,6 C 67 % 1025,0 hPa 0,0 l/m 4,3 km/h (1 Bft) SW 223 0 min 0,000 mm 2,4 UV-I 358 W/m 9,8 C 15,9 C 6,4 km/h (2 Bft) 95,74 %
21.05.2017 13:10 16,1 C 20,6 C 65 % 1025,0 hPa 0,0 l/m 5,4 km/h (1 Bft) W-SW 253 0 min 0,000 mm 2,2 UV-I 334 W/m 9,5 C 16,1 C 11,3 km/h (2 Bft) 100,00 %
21.05.2017 13:12 16,1 C 20,6 C 64 % 1024,9 hPa 0,0 l/m 5,7 km/h (1 Bft) S-SO 162 0 min 0,000 mm 2,1 UV-I 324 W/m 9,3 C 16,1 C 11,3 km/h (2 Bft) 100,00 %
21.05.2017 13:14 16,0 C 20,6 C 63 % 1025,0 hPa 0,0 l/m 6,5 km/h (2 Bft) S-SW 198 0 min 0,000 mm 2,2 UV-I 341 W/m 9,0 C 16,0 C 14,5 km/h (3 Bft) 92,11 %
21.05.2017 13:16 15,9 C 20,6 C 65 % 1025,0 hPa 0,0 l/m 6,7 km/h (2 Bft) W-NW 284 0 min 0,000 mm 2,3 UV-I 364 W/m 9,3 C 15,7 C 12,9 km/h (3 Bft) 94,00 %
21.05.2017 13:18 15,9 C 20,6 C 64 % 1025,0 hPa 0,0 l/m 5,4 km/h (1 Bft) W 266 0 min 0,000 mm 2,5 UV-I 386 W/m 9,1 C 15,9 C 12,9 km/h (3 Bft) 98,11 %
21.05.2017 13:20 15,9 C 20,6 C 65 % 1025,0 hPa 0,0 l/m 1,3 km/h (1 Bft) S-SW 204 0 min 0,000 mm 2,5 UV-I 389 W/m 9,3 C 15,9 C 4,8 km/h (1 Bft) 97,37 %
21.05.2017 13:22 15,9 C 20,6 C 65 % 1025,0 hPa 0,0 l/m 3,0 km/h (1 Bft) SW 218 0 min 0,000 mm 2,6 UV-I 390 W/m 9,3 C 15,9 C 6,4 km/h (2 Bft) 98,00 %
21.05.2017 13:24 15,9 C 20,6 C 63 % 1025,0 hPa 0,0 l/m 3,3 km/h (1 Bft) S 184 0 min 0,000 mm 2,5 UV-I 384 W/m 8,9 C 15,9 C 6,4 km/h (2 Bft) 100,00 %
21.05.2017 13:26 15,9 C 20,6 C 65 % 1025,0 hPa 0,0 l/m 3,5 km/h (1 Bft) S-SW 209 0 min 0,000 mm 2,5 UV-I 380 W/m 9,3 C 15,9 C 6,4 km/h (2 Bft) 97,37 %
21.05.2017 13:28 16,1 C 20,6 C 66 % 1025,0 hPa 0,0 l/m 6,6 km/h (2 Bft) SW 220 0 min 0,000 mm 2,5 UV-I 385 W/m 9,7 C 16,0 C 8,0 km/h (2 Bft) 100,00 %
21.05.2017 13:30 16,1 C 20,6 C 63 % 1025,0 hPa 0,0 l/m 6,0 km/h (2 Bft) W-SW 255 0 min 0,000 mm 2,5 UV-I 387 W/m 9,1 C 16,1 C 8,0 km/h (2 Bft) 96,43 %
21.05.2017 13:32 16,1 C 20,6 C 63 % 1025,0 hPa 0,0 l/m 4,8 km/h (1 Bft) S-SW 203 0 min 0,000 mm 2,5 UV-I 388 W/m 9,1 C 16,1 C 9,7 km/h (2 Bft) 97,87 %
21.05.2017 13:34 16,1 C 20,6 C 63 % 1025,0 hPa 0,0 l/m 5,2 km/h (1 Bft) S-SW 208 0 min 0,000 mm 2,4 UV-I 378 W/m 9,1 C 16,1 C 9,7 km/h (2 Bft) 98,00 %
21.05.2017 13:36 16,1 C 20,6 C 63 % 1025,0 hPa 0,0 l/m 2,6 km/h (1 Bft) W-SW 255 0 min 0,000 mm 2,3 UV-I 356 W/m 9,1 C 16,1 C 4,8 km/h (1 Bft) 95,45 %
21.05.2017 13:38 16,1 C 20,6 C 66 % 1025,0 hPa 0,0 l/m 3,5 km/h (1 Bft) SW 223 0 min 0,000 mm 2,2 UV-I 333 W/m 9,7 C 16,1 C 6,4 km/h (2 Bft) 100,00 %
21.05.2017 13:40 16,2 C 20,6 C 64 % 1025,0 hPa 0,0 l/m 4,1 km/h (1 Bft) W 263 0 min 0,000 mm 2,0 UV-I 317 W/m 9,4 C 16,2 C 6,4 km/h (2 Bft) 98,08 %
21.05.2017 13:42 16,2 C 20,6 C 63 % 1025,0 hPa 0,0 l/m 2,2 km/h (1 Bft) W 268 0 min 0,000 mm 2,0 UV-I 322 W/m 9,1 C 16,2 C 4,8 km/h (1 Bft) 95,24 %
21.05.2017 13:44 16,2 C 20,6 C 65 % 1025,0 hPa 0,0 l/m 1,6 km/h (1 Bft) W 268 0 min 0,000 mm 2,2 UV-I 336 W/m 9,6 C 16,2 C 3,2 km/h (1 Bft) 95,45 %
21.05.2017 13:46 16,2 C 20,6 C 64 % 1025,0 hPa 0,0 l/m 4,1 km/h (1 Bft) SW 226 0 min 0,000 mm 2,2 UV-I 341 W/m 9,4 C 16,2 C 8,0 km/h (2 Bft) 95,74 %
21.05.2017 13:48 16,3 C 20,6 C 65 % 1025,0 hPa 0,0 l/m 4,8 km/h (1 Bft) SW 229 0 min 0,000 mm 2,2 UV-I 350 W/m 9,7 C 16,3 C 9,7 km/h (2 Bft) 91,49 %
21.05.2017 13:50 16,3 C 20,6 C 63 % 1025,0 hPa 0,0 l/m 7,2 km/h (2 Bft) S-SW 210 0 min 0,000 mm 2,3 UV-I 366 W/m 9,2 C 15,9 C 12,9 km/h (3 Bft) 98,00 %
21.05.2017 13:52 16,3 C 20,6 C 63 % 1025,0 hPa 0,0 l/m 6,3 km/h (2 Bft) SW 229 0 min 0,000 mm 2,5 UV-I 385 W/m 9,2 C 16,3 C 12,9 km/h (3 Bft) 97,73 %
21.05.2017 13:54 16,4 C 20,6 C 64 % 1025,0 hPa 0,0 l/m 3,4 km/h (1 Bft) SW 229 0 min 0,000 mm 2,6 UV-I 400 W/m 9,6 C 16,4 C 4,8 km/h (1 Bft) 92,00 %
21.05.2017 13:56 16,4 C 20,6 C 64 % 1025,0 hPa 0,0 l/m 3,9 km/h (1 Bft) W 267 0 min 0,000 mm 2,6 UV-I 399 W/m 9,6 C 16,4 C 8,0 km/h (2 Bft) 94,74 %
21.05.2017 13:58 16,3 C 20,6 C 62 % 1025,0 hPa 0,0 l/m 3,5 km/h (1 Bft) W-SW 244 0 min 0,000 mm 2,4 UV-I 381 W/m 9,0 C 16,3 C 6,4 km/h (2 Bft) 96,23 %
21.05.2017 14:00 16,2 C 20,6 C 63 % 1024,9 hPa 0,0 l/m 2,0 km/h (1 Bft) W-SW 244 0 min 0,204 mm 2,2 UV-I 340 W/m 9,1 C 16,2 C 6,4 km/h (2 Bft) 89,36 %
21.05.2017 14:02 16,1 C 20,6 C 62 % 1024,9 hPa 0,0 l/m 2,9 km/h (1 Bft) W 279 0 min 0,000 mm 2,0 UV-I 312 W/m 8,8 C 16,1 C 6,4 km/h (2 Bft) 98,11 %
21.05.2017 14:04 16,1 C 20,6 C 63 % 1024,9 hPa 0,0 l/m 0,5 km/h (0 Bft) W 279 0 min 0,000 mm 2,0 UV-I 317 W/m 9,1 C 16,1 C 1,6 km/h (1 Bft) 90,91 %
21.05.2017 14:06 16,1 C 20,6 C 63 % 1024,9 hPa 0,0 l/m 1,7 km/h (1 Bft) W 261 0 min 0,000 mm 2,2 UV-I 347 W/m 9,1 C 16,1 C 4,8 km/h (1 Bft) 97,56 %
21.05.2017 14:08 15,9 C 20,6 C 62 % 1024,9 hPa 0,0 l/m 0,2 km/h (0 Bft) W 259 0 min 0,000 mm 2,4 UV-I 378 W/m 8,6 C 15,9 C 1,6 km/h (1 Bft) 97,87 %
21.05.2017 14:10 16,0 C 20,6 C 65 % 1024,9 hPa 0,0 l/m 1,4 km/h (1 Bft) W 259 0 min 0,000 mm 2,6 UV-I 405 W/m 9,4 C 16,0 C 3,2 km/h (1 Bft) 96,23 %
21.05.2017 14:12 16,2 C 20,6 C 65 % 1024,9 hPa 0,0 l/m 3,6 km/h (1 Bft) W 262 0 min 0,000 mm 2,6 UV-I 405 W/m 9,6 C 16,2 C 6,4 km/h (2 Bft) 96,00 %
21.05.2017 14:14 16,2 C 20,6 C 62 % 1024,9 hPa 0,0 l/m 3,5 km/h (1 Bft) W 263 0 min 0,000 mm 2,5 UV-I 390 W/m 8,9 C 16,2 C 6,4 km/h (2 Bft) 97,37 %
21.05.2017 14:16 16,3 C 20,6 C 62 % 1024,9 hPa 0,0 l/m 4,3 km/h (1 Bft) W-SW 238 0 min 0,000 mm 2,4 UV-I 375 W/m 9,0 C 16,3 C 8,0 km/h (2 Bft) 100,00 %
21.05.2017 14:18 16,2 C 20,6 C 62 % 1024,9 hPa 0,0 l/m 1,3 km/h (1 Bft) S 177 0 min 0,000 mm 2,4 UV-I 367 W/m 8,9 C 16,2 C 3,2 km/h (1 Bft) 95,74 %
21.05.2017 14:20 16,2 C 20,6 C 63 % 1024,8 hPa 0,0 l/m 2,1 km/h (1 Bft) S-SW 200 0 min 0,000 mm 2,4 UV-I 372 W/m 9,1 C 16,2 C 6,4 km/h (2 Bft) 95,74 %
21.05.2017 14:22 16,2 C 20,6 C 63 % 1024,8 hPa 0,0 l/m 1,0 km/h (0 Bft) S-SW 200 0 min 0,000 mm 2,4 UV-I 379 W/m 9,1 C 16,2 C 3,2 km/h (1 Bft) 92,31 %
21.05.2017 14:24 16,3 C 20,6 C 64 % 1024,8 hPa 0,0 l/m 2,2 km/h (1 Bft) S 188 0 min 0,000 mm 2,5 UV-I 393 W/m 9,5 C 16,3 C 6,4 km/h (2 Bft) 98,11 %
21.05.2017 14:26 16,3 C 20,6 C 63 % 1024,8 hPa 0,0 l/m 3,7 km/h (1 Bft) W 259 0 min 0,000 mm 2,6 UV-I 395 W/m 9,2 C 16,3 C 6,4 km/h (2 Bft) 97,37 %
21.05.2017 14:28 16,3 C 20,6 C 62 % 1024,8 hPa 0,0 l/m 6,9 km/h (2 Bft) SW 215 0 min 0,000 mm 2,5 UV-I 381 W/m 9,0 C 16,0 C 11,3 km/h (2 Bft) 100,00 %
21.05.2017 14:30 16,3 C 20,6 C 64 % 1024,7 hPa 0,0 l/m 5,9 km/h (2 Bft) S-SW 202 0 min 0,000 mm 2,4 UV-I 381 W/m 9,5 C 16,3 C 8,0 km/h (2 Bft) 98,00 %
21.05.2017 14:32 16,4 C 20,6 C 62 % 1024,7 hPa 0,0 l/m 8,9 km/h (2 Bft) SW 222 0 min 0,000 mm 2,6 UV-I 411 W/m 9,1 C 15,1 C 14,5 km/h (3 Bft) 100,00 %
21.05.2017 14:34 16,6 C 20,6 C 63 % 1024,7 hPa 0,0 l/m 6,7 km/h (2 Bft) W-SW 239 0 min 0,000 mm 2,7 UV-I 410 W/m 9,5 C 16,5 C 11,3 km/h (2 Bft) 98,00 %
21.05.2017 14:36 16,7 C 20,6 C 61 % 1024,7 hPa 0,0 l/m 5,6 km/h (1 Bft) W 264 0 min 0,000 mm 2,7 UV-I 408 W/m 9,1 C 16,7 C 9,7 km/h (2 Bft) 100,00 %
21.05.2017 14:38 16,6 C 20,6 C 61 % 1024,8 hPa 0,0 l/m 4,7 km/h (1 Bft) W-NW 290 0 min 0,000 mm 2,8 UV-I 414 W/m 9,0 C 16,6 C 8,0 km/h (2 Bft) 100,00 %
21.05.2017 14:40 16,4 C 20,6 C 62 % 1024,7 hPa 0,0 l/m 2,8 km/h (1 Bft) W-SW 249 0 min 0,000 mm 2,9 UV-I 441 W/m 9,1 C 16,4 C 4,8 km/h (1 Bft) 100,00 %
21.05.2017 14:42 16,6 C 20,6 C 62 % 1024,6 hPa 0,0 l/m 5,5 km/h (1 Bft) W-SW 257 2 min 0,000 mm 3,0 UV-I 484 W/m 9,3 C 16,6 C 9,7 km/h (2 Bft) 97,56 %
21.05.2017 14:44 16,7 C 20,6 C 64 % 1024,7 hPa 0,0 l/m 3,5 km/h (1 Bft) W-SW 254 2 min 0,000 mm 3,2 UV-I 540 W/m 9,9 C 16,7 C 6,4 km/h (2 Bft) 98,11 %
21.05.2017 14:46 17,0 C 20,6 C 64 % 1024,6 hPa 0,0 l/m 6,3 km/h (2 Bft) SW 219 2 min 0,000 mm 3,3 UV-I 583 W/m 10,1 C 17,0 C 12,9 km/h (3 Bft) 97,37 %
21.05.2017 14:48 17,3 C 20,6 C 62 % 1024,6 hPa 0,0 l/m 6,7 km/h (2 Bft) SW 236 2 min 0,000 mm 3,2 UV-I 537 W/m 9,9 C 17,2 C 11,3 km/h (2 Bft) 98,11 %
21.05.2017 14:50 17,3 C 20,6 C 61 % 1024,6 hPa 0,0 l/m 5,9 km/h (2 Bft) SW 226 2 min 0,000 mm 3,1 UV-I 508 W/m 9,7 C 17,3 C 8,0 km/h (2 Bft) 100,00 %
21.05.2017 14:52 17,2 C 20,6 C 59 % 1024,5 hPa 0,0 l/m 4,9 km/h (1 Bft) S 172 2 min 0,000 mm 3,0 UV-I 510 W/m 9,1 C 17,2 C 9,7 km/h (2 Bft) 96,00 %
21.05.2017 14:54 17,0 C 20,6 C 61 % 1024,4 hPa 0,0 l/m 5,4 km/h (1 Bft) S-SW 207 2 min 0,000 mm 3,0 UV-I 503 W/m 9,4 C 17,0 C 11,3 km/h (2 Bft) 97,62 %
21.05.2017 14:56 17,1 C 20,6 C 62 % 1024,4 hPa 0,0 l/m 6,6 km/h (2 Bft) S 184 2 min 0,000 mm 2,8 UV-I 468 W/m 9,8 C 17,0 C 12,9 km/h (3 Bft) 94,55 %
21.05.2017 14:58 16,8 C 20,6 C 59 % 1024,4 hPa 0,0 l/m 2,1 km/h (1 Bft) S 169 2 min 0,000 mm 2,7 UV-I 448 W/m 8,7 C 16,8 C 4,8 km/h (1 Bft) 100,00 %
21.05.2017 15:00 16,8 C 20,6 C 61 % 1024,4 hPa 0,0 l/m 6,0 km/h (2 Bft) S 170 2 min 0,254 mm 2,7 UV-I 446 W/m 9,2 C 16,8 C 12,9 km/h (3 Bft) 94,00 %
21.05.2017 15:02 16,8 C 20,6 C 62 % 1024,4 hPa 0,0 l/m 3,8 km/h (1 Bft) S 169 2 min 0,000 mm 2,7 UV-I 446 W/m 9,5 C 16,8 C 9,7 km/h (2 Bft) 94,00 %
21.05.2017 15:04 16,7 C 20,6 C 62 % 1024,4 hPa 0,0 l/m 1,7 km/h (1 Bft) S 190 2 min 0,000 mm 2,6 UV-I 440 W/m 9,4 C 16,7 C 4,8 km/h (1 Bft) 98,11 %
21.05.2017 15:06 16,7 C 20,6 C 60 % 1024,4 hPa 0,0 l/m 4,7 km/h (1 Bft) S-SW 209 2 min 0,000 mm 2,6 UV-I 434 W/m 8,9 C 16,7 C 9,7 km/h (2 Bft) 95,12 %
21.05.2017 15:08 16,6 C 20,6 C 60 % 1024,4 hPa 0,0 l/m 3,2 km/h (1 Bft) S-SW 203 2 min 0,000 mm 2,5 UV-I 431 W/m 8,8 C 16,6 C 6,4 km/h (2 Bft) 96,23 %
21.05.2017 15:10 16,6 C 20,6 C 61 % 1024,4 hPa 0,0 l/m 2,5 km/h (1 Bft) S 190 2 min 0,000 mm 2,6 UV-I 439 W/m 9,0 C 16,6 C 4,8 km/h (1 Bft) 97,37 %
21.05.2017 15:12 16,6 C 20,6 C 63 % 1024,3 hPa 0,0 l/m 1,0 km/h (0 Bft) S 169 2 min 0,000 mm 2,6 UV-I 458 W/m 9,5 C 16,6 C 3,2 km/h (1 Bft) 95,74 %
21.05.2017 15:14 16,7 C 20,6 C 61 % 1024,3 hPa 0,0 l/m 1,2 km/h (1 Bft) S 169 2 min 0,000 mm 2,7 UV-I 468 W/m 9,1 C 16,7 C 3,2 km/h (1 Bft) 98,00 %
21.05.2017 15:16 16,8 C 20,6 C 63 % 1024,3 hPa 0,0 l/m 6,1 km/h (2 Bft) S-SW 201 2 min 0,000 mm 2,8 UV-I 473 W/m 9,7 C 16,8 C 9,7 km/h (2 Bft) 97,67 %
21.05.2017 15:18 17,1 C 20,6 C 62 % 1024,3 hPa 0,0 l/m 4,9 km/h (1 Bft) SW 215 2 min 0,000 mm 2,8 UV-I 476 W/m 9,8 C 17,1 C 6,4 km/h (2 Bft) 94,64 %
21.05.2017 15:20 17,2 C 20,6 C 62 % 1024,2 hPa 0,0 l/m 6,5 km/h (2 Bft) S-SO 168 2 min 0,000 mm 2,9 UV-I 495 W/m 9,9 C 17,2 C 11,3 km/h (2 Bft) 100,00 %
21.05.2017 15:22 17,2 C 20,6 C 61 % 1024,2 hPa 0,0 l/m 6,9 km/h (2 Bft) SW 215 2 min 0,000 mm 2,9 UV-I 503 W/m 9,6 C 17,0 C 16,1 km/h (3 Bft) 96,23 %
21.05.2017 15:24 17,3 C 20,6 C 61 % 1024,2 hPa 0,0 l/m 9,6 km/h (2 Bft) SW 217 2 min 0,000 mm 2,8 UV-I 447 W/m 9,7 C 15,8 C 14,5 km/h (3 Bft) 95,12 %
21.05.2017 15:26 17,3 C 20,6 C 59 % 1024,2 hPa 0,0 l/m 7,6 km/h (2 Bft) SW 226 0 min 0,000 mm 2,6 UV-I 406 W/m 9,2 C 16,7 C 11,3 km/h (2 Bft) 94,64 %
21.05.2017 15:28 17,1 C 20,6 C 57 % 1024,2 hPa 0,0 l/m 4,6 km/h (1 Bft) W-SW 239 0 min 0,000 mm 2,5 UV-I 398 W/m 8,5 C 17,1 C 8,0 km/h (2 Bft) 95,74 %
21.05.2017 15:30 17,0 C 20,6 C 59 % 1024,1 hPa 0,0 l/m 3,8 km/h (1 Bft) SW 236 2 min 0,000 mm 2,6 UV-I 434 W/m 8,9 C 17,0 C 8,0 km/h (2 Bft) 94,74 %
21.05.2017 15:32 16,9 C 20,6 C 59 % 1024,1 hPa 0,0 l/m 0,5 km/h (0 Bft) SW 236 2 min 0,000 mm 2,8 UV-I 461 W/m 8,8 C 16,9 C 3,2 km/h (1 Bft) 95,83 %
21.05.2017 15:34 16,9 C 20,6 C 59 % 1024,1 hPa 0,0 l/m 0,4 km/h (0 Bft) SW 236 2 min 0,000 mm 2,8 UV-I 473 W/m 8,8 C 16,9 C 3,2 km/h (1 Bft) 96,00 %
21.05.2017 15:36 16,9 C 20,6 C 61 % 1024,0 hPa 0,0 l/m 0,2 km/h (0 Bft) SW 236 2 min 0,000 mm 3,1 UV-I 470 W/m 9,3 C 16,9 C 1,6 km/h (1 Bft) 97,14 %
21.05.2017 15:38 17,1 C 20,6 C 59 % 1024,0 hPa 0,0 l/m 2,6 km/h (1 Bft) SW 236 2 min 0,000 mm 2,8 UV-I 420 W/m 9,0 C 17,1 C 4,8 km/h (1 Bft) 95,31 %
21.05.2017 15:40 17,1 C 20,6 C 62 % 1024,0 hPa 0,0 l/m 2,5 km/h (1 Bft) S-SW 213 2 min 0,000 mm 2,9 UV-I 429 W/m 9,8 C 17,1 C 11,3 km/h (2 Bft) 95,24 %
21.05.2017 15:42 17,2 C 20,6 C 60 % 1024,0 hPa 0,0 l/m 4,2 km/h (1 Bft) SO 132 2 min 0,000 mm 3,0 UV-I 565 W/m 9,4 C 17,2 C 8,0 km/h (2 Bft) 92,45 %
21.05.2017 15:44 17,4 C 20,6 C 60 % 1024,0 hPa 0,0 l/m 1,8 km/h (1 Bft) S-SO 165 2 min 0,000 mm 3,3 UV-I 570 W/m 9,6 C 17,4 C 6,4 km/h (2 Bft) 93,62 %
21.05.2017 15:46 17,8 C 20,6 C 61 % 1024,0 hPa 0,0 l/m 2,7 km/h (1 Bft) W 259 2 min 0,000 mm 3,7 UV-I 944 W/m 10,2 C 17,8 C 8,0 km/h (2 Bft) 93,62 %
21.05.2017 15:48 18,1 C 20,6 C 59 % 1024,0 hPa 0,0 l/m 5,8 km/h (2 Bft) S-SW 196 2 min 0,000 mm 3,5 UV-I 961 W/m 10,0 C 18,1 C 11,3 km/h (2 Bft) 94,74 %
21.05.2017 15:50 18,2 C 20,6 C 58 % 1024,0 hPa 0,0 l/m 5,6 km/h (1 Bft) SW 236 2 min 0,000 mm 2,9 UV-I 768 W/m 9,8 C 18,2 C 11,3 km/h (2 Bft) 95,45 %
21.05.2017 15:52 18,2 C 20,6 C 58 % 1024,0 hPa 0,0 l/m 7,6 km/h (2 Bft) SW 233 2 min 0,000 mm 2,5 UV-I 508 W/m 9,8 C 17,6 C 12,9 km/h (3 Bft) 92,45 %
21.05.2017 15:54 18,0 C 20,6 C 55 % 1024,0 hPa 0,0 l/m 3,8 km/h (1 Bft) SW 216 2 min 0,000 mm 2,4 UV-I 476 W/m 8,8 C 18,0 C 8,0 km/h (2 Bft) 92,11 %
21.05.2017 15:56 17,6 C 20,6 C 56 % 1023,9 hPa 0,0 l/m 0,8 km/h (0 Bft) SW 219 2 min 0,000 mm 2,3 UV-I 458 W/m 8,7 C 17,6 C 3,2 km/h (1 Bft) 94,34 %
21.05.2017 15:58 17,3 C 20,6 C 57 % 1023,8 hPa 0,0 l/m 1,9 km/h (1 Bft) S-SO 162 2 min 0,000 mm 2,3 UV-I 458 W/m 8,7 C 17,3 C 6,4 km/h (2 Bft) 93,62 %
21.05.2017 16:00 17,2 C 20,6 C 58 % 1023,9 hPa 0,0 l/m 1,2 km/h (1 Bft) W-SW 238 2 min 0,000 mm 2,2 UV-I 443 W/m 8,9 C 17,2 C 4,8 km/h (1 Bft) 96,23 %
21.05.2017 16:02 17,3 C 20,6 C 59 % 1023,9 hPa 0,0 l/m 3,2 km/h (1 Bft) SW 219 2 min 0,279 mm 2,0 UV-I 389 W/m 9,2 C 17,3 C 6,4 km/h (2 Bft) 94,29 %
21.05.2017 16:04 17,4 C 20,6 C 60 % 1023,8 hPa 0,0 l/m 2,4 km/h (1 Bft) S-SW 213 2 min 0,000 mm 2,0 UV-I 387 W/m 9,6 C 17,4 C 6,4 km/h (2 Bft) 96,00 %
21.05.2017 16:06 17,6 C 20,6 C 61 % 1023,8 hPa 0,0 l/m 4,4 km/h (1 Bft) W-SW 250 2 min 0,000 mm 2,0 UV-I 394 W/m 10,0 C 17,6 C 8,0 km/h (2 Bft) 90,57 %
21.05.2017 16:08 17,5 C 20,6 C 57 % 1023,9 hPa 0,0 l/m 1,8 km/h (1 Bft) W-SW 250 2 min 0,000 mm 2,0 UV-I 395 W/m 8,9 C 17,5 C 6,4 km/h (2 Bft) 95,45 %
21.05.2017 16:10 17,4 C 20,6 C 60 % 1023,8 hPa 0,0 l/m 0,1 km/h (0 Bft) W-SW 250 2 min 0,000 mm 1,9 UV-I 383 W/m 9,6 C 17,4 C 1,6 km/h (1 Bft) 96,00 %
21.05.2017 16:12 17,4 C 20,6 C 59 % 1023,8 hPa 0,0 l/m 0,2 km/h (0 Bft) W-SW 250 0 min 0,000 mm 1,7 UV-I 357 W/m 9,3 C 17,4 C 1,6 km/h (1 Bft) 100,00 %
21.05.2017 16:14 17,4 C 20,6 C 62 % 1023,8 hPa 0,0 l/m 0,1 km/h (0 Bft) W-SW 250 0 min 0,000 mm 1,6 UV-I 335 W/m 10,0 C 17,4 C 1,6 km/h (1 Bft) 97,87 %
21.05.2017 16:16 17,4 C 21,1 C 61 % 1023,8 hPa 0,0 l/m 1,0 km/h (0 Bft) W-SW 250 0 min 0,000 mm 1,6 UV-I 320 W/m 9,8 C 17,4 C 3,2 km/h (1 Bft) 97,62 %
21.05.2017 16:18 17,3 C 20,6 C 60 % 1023,7 hPa 0,0 l/m 1,8 km/h (1 Bft) W-SW 250 0 min 0,000 mm 1,5 UV-I 306 W/m 9,5 C 17,3 C 3,2 km/h (1 Bft) 96,00 %
21.05.2017 16:20 17,3 C 21,1 C 59 % 1023,7 hPa 0,0 l/m 1,1 km/h (1 Bft) W-SW 250 0 min 0,000 mm 1,5 UV-I 291 W/m 9,2 C 17,3 C 3,2 km/h (1 Bft) 97,56 %
21.05.2017 16:22 17,3 C 21,1 C 59 % 1023,8 hPa 0,0 l/m 0,9 km/h (0 Bft) W-SW 250 0 min 0,000 mm 1,4 UV-I 290 W/m 9,2 C 17,3 C 3,2 km/h (1 Bft) 100,00 %
21.05.2017 16:24 17,2 C 21,1 C 58 % 1023,7 hPa 0,0 l/m 3,4 km/h (1 Bft) S-SO 157 0 min 0,000 mm 1,4 UV-I 297 W/m 8,9 C 17,2 C 8,0 km/h (2 Bft) 97,87 %
21.05.2017 16:26 17,1 C 21,1 C 59 % 1023,7 hPa 0,0 l/m 2,0 km/h (1 Bft) SW 215 0 min 0,000 mm 1,4 UV-I 298 W/m 9,0 C 17,1 C 6,4 km/h (2 Bft) 100,00 %
21.05.2017 16:28 17,2 C 21,1 C 60 % 1023,7 hPa 0,0 l/m 1,4 km/h (1 Bft) SW 227 0 min 0,000 mm 1,4 UV-I 297 W/m 9,4 C 17,2 C 4,8 km/h (1 Bft) 98,00 %
21.05.2017 16:30 17,3 C 21,1 C 62 % 1023,6 hPa 0,0 l/m 1,1 km/h (1 Bft) SW 219 0 min 0,000 mm 1,4 UV-I 301 W/m 9,9 C 17,3 C 6,4 km/h (2 Bft) 97,56 %
21.05.2017 16:32 17,4 C 21,1 C 59 % 1023,6 hPa 0,0 l/m 2,3 km/h (1 Bft) NW 318 0 min 0,000 mm 1,4 UV-I 309 W/m 9,3 C 17,4 C 4,8 km/h (1 Bft) 100,00 %
21.05.2017 16:34 17,6 C 21,1 C 62 % 1023,6 hPa 0,0 l/m 2,4 km/h (1 Bft) NW 310 0 min 0,000 mm 1,4 UV-I 312 W/m 10,2 C 17,6 C 6,4 km/h (2 Bft) 98,11 %
21.05.2017 16:36 17,4 C 21,1 C 57 % 1023,7 hPa 0,0 l/m 3,5 km/h (1 Bft) W-SW 257 0 min 0,000 mm 1,4 UV-I 302 W/m 8,8 C 17,4 C 6,4 km/h (2 Bft) 100,00 %
21.05.2017 16:38 17,3 C 21,1 C 56 % 1023,6 hPa 0,0 l/m 1,3 km/h (1 Bft) W-SW 257 0 min 0,000 mm 1,4 UV-I 287 W/m 8,4 C 17,3 C 4,8 km/h (1 Bft) 97,87 %
21.05.2017 16:40 17,2 C 21,1 C 58 % 1023,6 hPa 0,0 l/m 0,2 km/h (0 Bft) W-SW 257 0 min 0,000 mm 1,5 UV-I 290 W/m 8,9 C 17,2 C 1,6 km/h (1 Bft) 97,87 %
21.05.2017 16:42 17,2 C 21,1 C 61 % 1023,5 hPa 0,0 l/m 1,0 km/h (0 Bft) W 261 0 min 0,000 mm 1,6 UV-I 301 W/m 9,6 C 17,2 C 3,2 km/h (1 Bft) 98,00 %
21.05.2017 16:44 17,3 C 21,1 C 62 % 1023,5 hPa 0,0 l/m 0,0 km/h (0 Bft) W 261 2 min 0,000 mm 1,8 UV-I 340 W/m 9,9 C 17,3 C 1,6 km/h (1 Bft) 100,00 %
21.05.2017 16:46 17,5 C 21,1 C 61 % 1023,5 hPa 0,0 l/m 0,3 km/h (0 Bft) W 261 2 min 0,000 mm 2,2 UV-I 545 W/m 9,9 C 17,5 C 1,6 km/h (1 Bft) 95,74 %
21.05.2017 16:48 17,6 C 21,1 C 61 % 1023,5 hPa 0,0 l/m 0,1 km/h (0 Bft) W 261 2 min 0,000 mm 2,0 UV-I 602 W/m 10,0 C 17,6 C 1,6 km/h (1 Bft) 100,00 %
21.05.2017 16:50 17,7 C 21,1 C 58 % 1023,5 hPa 0,0 l/m 2,0 km/h (1 Bft) SO 132 2 min 0,000 mm 2,0 UV-I 574 W/m 9,3 C 17,7 C 6,4 km/h (2 Bft) 96,00 %
21.05.2017 16:52 17,8 C 21,1 C 58 % 1023,5 hPa 0,0 l/m 3,3 km/h (1 Bft) O-SO 113 2 min 0,000 mm 2,2 UV-I 717 W/m 9,4 C 17,8 C 6,4 km/h (2 Bft) 100,00 %
21.05.2017 16:54 18,1 C 21,1 C 59 % 1023,4 hPa 0,0 l/m 3,5 km/h (1 Bft) S 181 2 min 0,000 mm 2,1 UV-I 726 W/m 10,0 C 18,1 C 4,8 km/h (1 Bft) 96,23 %
21.05.2017 16:56 18,2 C 21,1 C 57 % 1023,4 hPa 0,0 l/m 1,7 km/h (1 Bft) S-SW 209 2 min 0,000 mm 2,0 UV-I 570 W/m 9,5 C 18,2 C 8,0 km/h (2 Bft) 100,00 %
21.05.2017 16:58 18,1 C 21,1 C 55 % 1023,5 hPa 0,0 l/m 7,6 km/h (2 Bft) S-SW 202 2 min 0,000 mm 1,8 UV-I 436 W/m 8,9 C 17,5 C 11,3 km/h (2 Bft) 97,87 %
21.05.2017 17:00 18,0 C 21,1 C 56 % 1023,4 hPa 0,0 l/m 7,3 km/h (2 Bft) S 190 2 min 0,229 mm 1,7 UV-I 414 W/m 9,1 C 17,6 C 12,9 km/h (3 Bft) 100,00 %
21.05.2017 17:02 17,9 C 21,1 C 55 % 1023,4 hPa 0,0 l/m 2,9 km/h (1 Bft) S-SO 167 2 min 0,000 mm 1,8 UV-I 436 W/m 8,7 C 17,9 C 6,4 km/h (2 Bft) 97,37 %
21.05.2017 17:04 17,8 C 21,1 C 57 % 1023,3 hPa 0,0 l/m 1,1 km/h (1 Bft) S 188 2 min 0,000 mm 1,7 UV-I 428 W/m 9,2 C 17,8 C 6,4 km/h (2 Bft) 97,87 %
21.05.2017 17:06 17,8 C 21,1 C 57 % 1023,3 hPa 0,0 l/m 3,8 km/h (1 Bft) S-SW 206 2 min 0,000 mm 1,7 UV-I 485 W/m 9,2 C 17,8 C 6,4 km/h (2 Bft) 98,11 %
21.05.2017 17:08 17,9 C 21,1 C 57 % 1023,3 hPa 0,0 l/m 6,4 km/h (2 Bft) S-SW 205 2 min 0,000 mm 1,7 UV-I 546 W/m 9,3 C 17,9 C 11,3 km/h (2 Bft) 97,56 %
21.05.2017 17:10 18,1 C 21,1 C 57 % 1023,3 hPa 0,0 l/m 6,4 km/h (2 Bft) SW 219 2 min 0,000 mm 1,5 UV-I 428 W/m 9,4 C 18,1 C 9,7 km/h (2 Bft) 100,00 %
21.05.2017 17:12 18,0 C 21,1 C 55 % 1023,3 hPa 0,0 l/m 3,6 km/h (1 Bft) S-SW 213 2 min 0,000 mm 1,4 UV-I 336 W/m 8,8 C 18,0 C 8,0 km/h (2 Bft) 97,87 %
21.05.2017 17:14 17,8 C 21,1 C 57 % 1023,3 hPa 0,0 l/m 2,8 km/h (1 Bft) SW 216 2 min 0,000 mm 1,3 UV-I 329 W/m 9,2 C 17,8 C 6,4 km/h (2 Bft) 98,00 %
21.05.2017 17:16 17,8 C 21,1 C 56 % 1023,2 hPa 0,0 l/m 4,1 km/h (1 Bft) W 271 2 min 0,000 mm 1,2 UV-I 301 W/m 8,9 C 17,8 C 6,4 km/h (2 Bft) 97,73 %
21.05.2017 17:18 17,7 C 21,1 C 58 % 1023,2 hPa 0,0 l/m 4,1 km/h (1 Bft) W 273 2 min 0,000 mm 1,2 UV-I 291 W/m 9,3 C 17,7 C 6,4 km/h (2 Bft) 100,00 %
21.05.2017 17:20 17,8 C 21,1 C 58 % 1023,2 hPa 0,0 l/m 3,7 km/h (1 Bft) S-SO 168 0 min 0,000 mm 1,2 UV-I 280 W/m 9,4 C 17,8 C 6,4 km/h (2 Bft) 98,00 %
21.05.2017 17:22 17,6 C 21,1 C 55 % 1023,2 hPa 0,0 l/m 2,9 km/h (1 Bft) S-SO 162 0 min 0,000 mm 1,2 UV-I 276 W/m 8,5 C 17,6 C 6,4 km/h (2 Bft) 100,00 %
21.05.2017 17:24 17,4 C 21,1 C 56 % 1023,2 hPa 0,0 l/m 3,0 km/h (1 Bft) S-SO 157 0 min 0,000 mm 1,2 UV-I 267 W/m 8,5 C 17,4 C 6,4 km/h (2 Bft) 100,00 %
21.05.2017 17:26 17,3 C 21,1 C 57 % 1023,2 hPa 0,0 l/m 3,2 km/h (1 Bft) S-SW 210 0 min 0,000 mm 1,2 UV-I 250 W/m 8,7 C 17,3 C 8,0 km/h (2 Bft) 100,00 %
21.05.2017 17:28 17,3 C 21,1 C 57 % 1023,1 hPa 0,0 l/m 2,6 km/h (1 Bft) S-SW 197 0 min 0,000 mm 1,1 UV-I 239 W/m 8,7 C 17,3 C 6,4 km/h (2 Bft) 100,00 %
21.05.2017 17:30 17,4 C 21,1 C 58 % 1023,2 hPa 0,0 l/m 1,6 km/h (1 Bft) S-SW 197 0 min 0,000 mm 1,1 UV-I 231 W/m 9,1 C 17,4 C 3,2 km/h (1 Bft) 100,00 %
21.05.2017 17:32 17,4 C 21,1 C 57 % 1023,1 hPa 0,0 l/m 0,5 km/h (0 Bft) S-SW 197 0 min 0,000 mm 1,1 UV-I 214 W/m 8,8 C 17,4 C 3,2 km/h (1 Bft) 96,00 %
21.05.2017 17:34 17,4 C 21,1 C 57 % 1023,1 hPa 0,0 l/m 1,0 km/h (0 Bft) S 185 0 min 0,000 mm 1,1 UV-I 211 W/m 8,8 C 17,4 C 3,2 km/h (1 Bft) 100,00 %
21.05.2017 17:36 17,4 C 21,1 C 57 % 1023,1 hPa 0,0 l/m 0,8 km/h (0 Bft) S 179 0 min 0,000 mm 1,1 UV-I 230 W/m 8,8 C 17,4 C 3,2 km/h (1 Bft) 95,71 %
21.05.2017 17:38 17,4 C 21,1 C 55 % 1023,0 hPa 0,0 l/m 1,8 km/h (1 Bft) S 181 2 min 0,000 mm 1,1 UV-I 306 W/m 8,3 C 17,4 C 4,8 km/h (1 Bft) 97,22 %
21.05.2017 17:40 17,4 C 21,1 C 57 % 1023,0 hPa 0,0 l/m 2,5 km/h (1 Bft) S 188 2 min 0,000 mm 1,2 UV-I 400 W/m 8,8 C 17,4 C 4,8 km/h (1 Bft) 96,00 %
21.05.2017 17:42 17,4 C 21,1 C 57 % 1023,0 hPa 0,0 l/m 3,2 km/h (1 Bft) S-SW 202 2 min 0,000 mm 1,1 UV-I 383 W/m 8,8 C 17,4 C 6,4 km/h (2 Bft) 95,74 %
21.05.2017 17:44 17,6 C 21,1 C 58 % 1022,9 hPa 0,0 l/m 2,9 km/h (1 Bft) SW 226 2 min 0,000 mm 1,1 UV-I 330 W/m 9,2 C 17,6 C 6,4 km/h (2 Bft) 98,00 %
21.05.2017 17:46 17,7 C 21,1 C 57 % 1022,9 hPa 0,0 l/m 3,5 km/h (1 Bft) S-SW 211 2 min 0,000 mm 1,1 UV-I 408 W/m 9,1 C 17,7 C 6,4 km/h (2 Bft) 96,00 %
21.05.2017 17:48 17,7 C 21,1 C 57 % 1022,9 hPa 0,0 l/m 3,8 km/h (1 Bft) W-SW 253 2 min 0,000 mm 1,1 UV-I 397 W/m 9,1 C 17,7 C 6,4 km/h (2 Bft) 97,73 %
21.05.2017 17:50 17,9 C 21,1 C 55 % 1022,8 hPa 0,0 l/m 5,4 km/h (1 Bft) SW 229 2 min 0,000 mm 1,1 UV-I 390 W/m 8,7 C 17,9 C 9,7 km/h (2 Bft) 91,49 %
21.05.2017 17:52 18,0 C 21,1 C 58 % 1022,8 hPa 0,0 l/m 1,1 km/h (1 Bft) SW 229 2 min 0,000 mm 1,0 UV-I 382 W/m 9,6 C 18,0 C 3,2 km/h (1 Bft) 95,12 %
21.05.2017 17:54 18,0 C 21,1 C 55 % 1022,7 hPa 0,0 l/m 0,7 km/h (0 Bft) SW 229 2 min 0,000 mm 1,0 UV-I 369 W/m 8,8 C 18,0 C 1,6 km/h (1 Bft) 96,23 %
21.05.2017 17:56 17,9 C 21,1 C 55 % 1022,7 hPa 0,0 l/m 0,3 km/h (0 Bft) SW 229 2 min 0,000 mm 1,0 UV-I 361 W/m 8,7 C 17,9 C 1,6 km/h (1 Bft) 95,74 %
21.05.2017 17:58 17,9 C 21,1 C 56 % 1022,7 hPa 0,0 l/m 1,6 km/h (1 Bft) W-SW 250 2 min 0,000 mm 1,0 UV-I 357 W/m 9,0 C 17,9 C 6,4 km/h (2 Bft) 98,00 %
21.05.2017 18:00 17,9 C 21,1 C 54 % 1022,7 hPa 0,0 l/m 3,3 km/h (1 Bft) W-SW 246 2 min 0,000 mm 1,0 UV-I 353 W/m 8,5 C 17,9 C 6,4 km/h (2 Bft) 94,29 %
21.05.2017 18:02 17,9 C 21,1 C 55 % 1022,6 hPa 0,0 l/m 1,6 km/h (1 Bft) S 169 2 min 0,203 mm 0,9 UV-I 344 W/m 8,7 C 17,9 C 4,8 km/h (1 Bft) 98,08 %
21.05.2017 18:04 17,8 C 21,1 C 54 % 1022,6 hPa 0,0 l/m 2,8 km/h (1 Bft) S 169 2 min 0,000 mm 0,9 UV-I 345 W/m 8,4 C 17,8 C 6,4 km/h (2 Bft) 96,23 %
21.05.2017 18:06 17,8 C 21,1 C 55 % 1022,6 hPa 0,0 l/m 3,8 km/h (1 Bft) SW 236 2 min 0,000 mm 0,9 UV-I 340 W/m 8,6 C 17,8 C 6,4 km/h (2 Bft) 94,74 %
21.05.2017 18:08 17,8 C 21,1 C 54 % 1022,6 hPa 0,0 l/m 3,0 km/h (1 Bft) SW 234 2 min 0,000 mm 0,9 UV-I 330 W/m 8,4 C 17,8 C 4,8 km/h (1 Bft) 98,00 %
21.05.2017 18:10 17,9 C 21,1 C 55 % 1022,6 hPa 0,0 l/m 3,7 km/h (1 Bft) SW 231 2 min 0,000 mm 0,8 UV-I 316 W/m 8,7 C 17,9 C 6,4 km/h (2 Bft) 100,00 %
21.05.2017 18:12 17,9 C 21,1 C 54 % 1022,6 hPa 0,0 l/m 0,8 km/h (0 Bft) SW 232 2 min 0,000 mm 0,8 UV-I 307 W/m 8,5 C 17,9 C 4,8 km/h (1 Bft) 100,00 %
21.05.2017 18:14 17,9 C 21,1 C 54 % 1022,6 hPa 0,0 l/m 2,3 km/h (1 Bft) SW 232 2 min 0,000 mm 0,8 UV-I 301 W/m 8,5 C 17,9 C 4,8 km/h (1 Bft) 100,00 %
21.05.2017 18:16 17,9 C 21,1 C 55 % 1022,6 hPa 0,0 l/m 1,2 km/h (1 Bft) SW 232 2 min 0,000 mm 0,7 UV-I 297 W/m 8,7 C 17,9 C 4,8 km/h (1 Bft) 100,00 %
21.05.2017 18:18 17,9 C 21,1 C 55 % 1022,6 hPa 0,0 l/m 0,5 km/h (0 Bft) SW 232 2 min 0,000 mm 0,7 UV-I 290 W/m 8,7 C 17,9 C 1,6 km/h (1 Bft) 96,00 %
21.05.2017 18:20 17,9 C 21,1 C 56 % 1022,6 hPa 0,0 l/m 0,2 km/h (0 Bft) SW 232 2 min 0,000 mm 0,7 UV-I 284 W/m 9,0 C 17,9 C 1,6 km/h (1 Bft) 100,00 %
21.05.2017 18:22 18,0 C 21,1 C 56 % 1022,5 hPa 0,0 l/m 0,8 km/h (0 Bft) SW 221 2 min 0,000 mm 0,7 UV-I 278 W/m 9,1 C 18,0 C 6,4 km/h (2 Bft) 97,87 %
21.05.2017 18:24 18,0 C 21,1 C 54 % 1022,5 hPa 0,0 l/m 4,8 km/h (1 Bft) S-SW 202 2 min 0,000 mm 0,7 UV-I 271 W/m 8,6 C 18,0 C 8,0 km/h (2 Bft) 100,00 %
21.05.2017 18:26 17,8 C 21,1 C 54 % 1022,5 hPa 0,0 l/m 3,9 km/h (1 Bft) S-SW 202 2 min 0,000 mm 0,6 UV-I 265 W/m 8,4 C 17,8 C 6,4 km/h (2 Bft) 97,73 %
21.05.2017 18:28 17,8 C 21,1 C 55 % 1022,5 hPa 0,0 l/m 3,9 km/h (1 Bft) S-SW 202 2 min 0,000 mm 0,6 UV-I 262 W/m 8,6 C 17,8 C 6,4 km/h (2 Bft) 100,00 %
21.05.2017 18:30 17,9 C 21,1 C 55 % 1022,5 hPa 0,0 l/m 5,2 km/h (1 Bft) S-SW 202 2 min 0,000 mm 0,6 UV-I 255 W/m 8,7 C 17,9 C 8,0 km/h (2 Bft) 98,21 %
21.05.2017 18:32 17,8 C 21,1 C 55 % 1022,5 hPa 0,0 l/m 2,3 km/h (1 Bft) S-SW 202 2 min 0,000 mm 0,6 UV-I 248 W/m 8,6 C 17,8 C 4,8 km/h (1 Bft) 97,37 %
21.05.2017 18:34 17,7 C 21,1 C 54 % 1022,4 hPa 0,0 l/m 0,9 km/h (0 Bft) S-SW 202 2 min 0,000 mm 0,5 UV-I 243 W/m 8,3 C 17,7 C 3,2 km/h (1 Bft) 100,00 %
21.05.2017 18:36 17,7 C 21,1 C 55 % 1022,4 hPa 0,0 l/m 1,7 km/h (1 Bft) S-SW 202 2 min 0,000 mm 0,5 UV-I 237 W/m 8,5 C 17,7 C 4,8 km/h (1 Bft) 97,14 %
21.05.2017 18:38 17,7 C 21,1 C 54 % 1022,4 hPa 0,0 l/m 0,1 km/h (0 Bft) S-SW 202 2 min 0,000 mm 0,5 UV-I 231 W/m 8,3 C 17,7 C 1,6 km/h (1 Bft) 100,00 %
21.05.2017 18:40 17,7 C 21,1 C 54 % 1022,4 hPa 0,0 l/m 0,2 km/h (0 Bft) S-SW 202 2 min 0,000 mm 0,5 UV-I 227 W/m 8,3 C 17,7 C 1,6 km/h (1 Bft) 96,00 %
21.05.2017 18:42 17,7 C 21,1 C 56 % 1022,4 hPa 0,0 l/m 0,1 km/h (0 Bft) S-SW 202 2 min 0,000 mm 0,5 UV-I 222 W/m 8,8 C 17,7 C 1,6 km/h (1 Bft) 97,87 %
21.05.2017 18:44 17,7 C 21,1 C 56 % 1022,4 hPa 0,0 l/m 0,2 km/h (0 Bft) S-SW 202 2 min 0,000 mm 0,4 UV-I 217 W/m 8,8 C 17,7 C 1,6 km/h (1 Bft) 100,00 %
21.05.2017 18:46 17,7 C 21,1 C 55 % 1022,4 hPa 0,0 l/m 0,5 km/h (0 Bft) S-SW 202 2 min 0,000 mm 0,0 UV-I 211 W/m 8,5 C 17,7 C 1,6 km/h (1 Bft) 98,00 %
21.05.2017 18:48 17,7 C 21,1 C 60 % 1022,3 hPa 0,0 l/m 1,4 km/h (1 Bft) S-SW 202 2 min 0,000 mm 0,0 UV-I 205 W/m 9,8 C 17,7 C 3,2 km/h (1 Bft) 100,00 %
21.05.2017 18:50 17,7 C 21,1 C 57 % 1022,4 hPa 0,0 l/m 0,4 km/h (0 Bft) S-SW 202 2 min 0,000 mm 0,0 UV-I 200 W/m 9,1 C 17,7 C 1,6 km/h (1 Bft) 98,00 %
21.05.2017 18:52 17,7 C 21,1 C 56 % 1022,3 hPa 0,0 l/m 0,0 km/h (0 Bft) S-SW 202 2 min 0,000 mm 0,0 UV-I 193 W/m 8,8 C 17,7 C 0,0 km/h (0 Bft) 100,00 %
21.05.2017 18:54 17,6 C 21,1 C 57 % 1022,3 hPa 0,0 l/m 0,1 km/h (0 Bft) S-SW 202 2 min 0,000 mm 0,0 UV-I 186 W/m 9,0 C 17,6 C 1,6 km/h (1 Bft) 100,00 %
21.05.2017 18:56 17,7 C 21,1 C 59 % 1022,3 hPa 0,0 l/m 2,0 km/h (1 Bft) S-SW 202 2 min 0,000 mm 0,0 UV-I 181 W/m 9,6 C 17,7 C 3,2 km/h (1 Bft) 100,00 %
21.05.2017 18:58 17,6 C 21,1 C 56 % 1022,2 hPa 0,0 l/m 0,2 km/h (0 Bft) S-SW 202 2 min 0,000 mm 0,0 UV-I 177 W/m 8,7 C 17,6 C 1,6 km/h (1 Bft) 100,00 %
21.05.2017 19:00 17,6 C 21,1 C 58 % 1022,3 hPa 0,0 l/m 1,3 km/h (1 Bft) O-SO 123 2 min 0,000 mm 0,0 UV-I 173 W/m 9,2 C 17,6 C 4,8 km/h (1 Bft) 100,00 %
21.05.2017 19:02 17,6 C 21,1 C 57 % 1022,3 hPa 0,0 l/m 4,1 km/h (1 Bft) O-SO 123 2 min 0,152 mm 0,0 UV-I 169 W/m 9,0 C 17,6 C 4,8 km/h (1 Bft) 100,00 %
21.05.2017 19:04 17,7 C 21,1 C 58 % 1022,2 hPa 0,0 l/m 2,4 km/h (1 Bft) O 96 2 min 0,000 mm 0,0 UV-I 165 W/m 9,3 C 17,7 C 4,8 km/h (1 Bft) 100,00 %
21.05.2017 19:06 17,6 C 21,1 C 56 % 1022,2 hPa 0,0 l/m 1,3 km/h (1 Bft) O 96 2 min 0,000 mm 0,0 UV-I 161 W/m 8,7 C 17,6 C 3,2 km/h (1 Bft) 98,00 %
21.05.2017 19:08 17,6 C 21,1 C 58 % 1022,2 hPa 0,0 l/m 0,7 km/h (0 Bft) O 96 2 min 0,000 mm 0,0 UV-I 155 W/m 9,2 C 17,6 C 3,2 km/h (1 Bft) 97,87 %
21.05.2017 19:10 17,6 C 21,1 C 60 % 1022,2 hPa 0,0 l/m 2,6 km/h (1 Bft) O 96 2 min 0,000 mm 0,0 UV-I 149 W/m 9,7 C 17,6 C 4,8 km/h (1 Bft) 100,00 %
21.05.2017 19:12 17,6 C 21,1 C 56 % 1022,2 hPa 0,0 l/m 0,9 km/h (0 Bft) O 96 2 min 0,000 mm 0,0 UV-I 144 W/m 8,7 C 17,6 C 3,2 km/h (1 Bft) 98,00 %
21.05.2017 19:14 17,5 C 21,1 C 60 % 1022,2 hPa 0,0 l/m 2,0 km/h (1 Bft) O 96 2 min 0,000 mm 0,0 UV-I 140 W/m 9,6 C 17,5 C 3,2 km/h (1 Bft) 100,00 %
21.05.2017 19:16 17,4 C 21,1 C 60 % 1022,2 hPa 0,0 l/m 2,3 km/h (1 Bft) O 96 2 min 0,000 mm 0,0 UV-I 136 W/m 9,6 C 17,4 C 4,8 km/h (1 Bft) 97,73 %
21.05.2017 19:18 17,4 C 21,1 C 58 % 1022,2 hPa 0,0 l/m 1,4 km/h (1 Bft) O 96 2 min 0,000 mm 0,0 UV-I 131 W/m 9,1 C 17,4 C 3,2 km/h (1 Bft) 98,11 %
21.05.2017 19:20 17,4 C 21,1 C 60 % 1022,2 hPa 0,0 l/m 2,2 km/h (1 Bft) O 96 2 min 0,000 mm 0,0 UV-I 125 W/m 9,6 C 17,4 C 3,2 km/h (1 Bft) 100,00 %
21.05.2017 19:22 17,3 C 21,1 C 63 % 1022,1 hPa 0,0 l/m 1,9 km/h (1 Bft) O 96 2 min 0,000 mm 0,0 UV-I 121 W/m 10,2 C 17,3 C 3,2 km/h (1 Bft) 94,74 %
21.05.2017 19:24 17,3 C 21,1 C 63 % 1022,1 hPa 0,0 l/m 1,6 km/h (1 Bft) O 96 2 min 0,000 mm 0,0 UV-I 116 W/m 10,2 C 17,3 C 3,2 km/h (1 Bft) 100,00 %
21.05.2017 19:26 17,2 C 21,1 C 61 % 1022,1 hPa 0,0 l/m 0,6 km/h (0 Bft) O 96 2 min 0,000 mm 0,0 UV-I 113 W/m 9,6 C 17,2 C 1,6 km/h (1 Bft) 97,87 %
21.05.2017 19:28 17,3 C 21,1 C 61 % 1022,1 hPa 0,0 l/m 0,6 km/h (0 Bft) O 96 2 min 0,000 mm 0,0 UV-I 109 W/m 9,7 C 17,3 C 3,2 km/h (1 Bft) 100,00 %
21.05.2017 19:30 17,2 C 21,1 C 58 % 1022,1 hPa 0,0 l/m 0,5 km/h (0 Bft) O 96 2 min 0,000 mm 0,0 UV-I 104 W/m 8,9 C 17,2 C 1,6 km/h (1 Bft) 98,25 %
21.05.2017 19:32 17,2 C 21,1 C 59 % 1022,1 hPa 0,0 l/m 0,4 km/h (0 Bft) O 96 2 min 0,000 mm 0,0 UV-I 100 W/m 9,1 C 17,2 C 1,6 km/h (1 Bft) 94,44 %
21.05.2017 19:34 17,2 C 21,1 C 57 % 1022,0 hPa 0,0 l/m 0,7 km/h (0 Bft) O 97 2 min 0,000 mm 0,0 UV-I 96 W/m 8,6 C 17,2 C 3,2 km/h (1 Bft) 98,00 %
21.05.2017 19:36 17,2 C 21,1 C 57 % 1022,0 hPa 0,0 l/m 1,0 km/h (0 Bft) O 97 2 min 0,000 mm 0,0 UV-I 92 W/m 8,6 C 17,2 C 3,2 km/h (1 Bft) 98,00 %
21.05.2017 19:38 17,1 C 21,1 C 57 % 1022,1 hPa 0,0 l/m 0,2 km/h (0 Bft) O 97 2 min 0,000 mm 0,0 UV-I 88 W/m 8,5 C 17,1 C 3,2 km/h (1 Bft) 89,47 %
21.05.2017 19:40 17,2 C 21,1 C 58 % 1022,0 hPa 0,0 l/m 0,8 km/h (0 Bft) O 97 2 min 0,000 mm 0,0 UV-I 85 W/m 8,9 C 17,2 C 3,2 km/h (1 Bft) 92,00 %
21.05.2017 19:42 17,1 C 21,1 C 58 % 1022,0 hPa 0,0 l/m 1,6 km/h (1 Bft) O 97 2 min 0,000 mm 0,0 UV-I 83 W/m 8,8 C 17,1 C 3,2 km/h (1 Bft) 97,87 %
21.05.2017 19:44 17,1 C 21,1 C 59 % 1022,0 hPa 0,0 l/m 3,0 km/h (1 Bft) O 97 2 min 0,000 mm 0,0 UV-I 78 W/m 9,0 C 17,1 C 3,2 km/h (1 Bft) 96,00 %
21.05.2017 19:46 17,1 C 21,1 C 58 % 1022,0 hPa 0,0 l/m 2,1 km/h (1 Bft) O 97 2 min 0,000 mm 0,0 UV-I 75 W/m 8,8 C 17,1 C 4,8 km/h (1 Bft) 96,23 %
21.05.2017 19:48 17,0 C 21,1 C 63 % 1022,0 hPa 0,0 l/m 3,1 km/h (1 Bft) O 97 2 min 0,000 mm 0,0 UV-I 71 W/m 9,9 C 17,0 C 4,8 km/h (1 Bft) 92,11 %
21.05.2017 19:50 16,8 C 21,1 C 63 % 1022,0 hPa 0,0 l/m 2,9 km/h (1 Bft) O 97 2 min 0,000 mm 0,0 UV-I 68 W/m 9,7 C 16,8 C 4,8 km/h (1 Bft) 97,87 %
21.05.2017 19:52 16,7 C 21,1 C 64 % 1022,0 hPa 0,0 l/m 1,9 km/h (1 Bft) O 97 0 min 0,000 mm 0,0 UV-I 64 W/m 9,9 C 16,7 C 3,2 km/h (1 Bft) 94,00 %
21.05.2017 19:54 16,6 C 21,1 C 65 % 1022,0 hPa 0,0 l/m 1,4 km/h (1 Bft) O 97 0 min 0,000 mm 0,0 UV-I 60 W/m 10,0 C 16,6 C 3,2 km/h (1 Bft) 97,87 %
21.05.2017 19:56 16,4 C 21,1 C 66 % 1022,0 hPa 0,0 l/m 2,3 km/h (1 Bft) O 97 0 min 0,000 mm 0,0 UV-I 56 W/m 10,0 C 16,4 C 4,8 km/h (1 Bft) 95,45 %
21.05.2017 19:58 16,3 C 21,1 C 66 % 1021,9 hPa 0,0 l/m 2,9 km/h (1 Bft) O 97 0 min 0,000 mm 0,0 UV-I 54 W/m 9,9 C 16,3 C 3,2 km/h (1 Bft) 98,11 %
21.05.2017 20:00 16,2 C 21,1 C 67 % 1021,9 hPa 0,0 l/m 2,7 km/h (1 Bft) O 97 0 min 0,076 mm 0,0 UV-I 51 W/m 10,1 C 16,2 C 4,8 km/h (1 Bft) 94,74 %
21.05.2017 20:02 16,1 C 21,1 C 67 % 1021,9 hPa 0,0 l/m 2,4 km/h (1 Bft) O 97 0 min 0,000 mm 0,0 UV-I 47 W/m 10,0 C 16,1 C 3,2 km/h (1 Bft) 98,00 %
21.05.2017 20:04 15,9 C 21,1 C 68 % 1021,9 hPa 0,0 l/m 1,6 km/h (1 Bft) O 97 0 min 0,000 mm 0,0 UV-I 44 W/m 10,0 C 15,9 C 3,2 km/h (1 Bft) 96,23 %
21.05.2017 20:06 15,8 C 21,1 C 68 % 1021,9 hPa 0,0 l/m 2,0 km/h (1 Bft) O 97 0 min 0,000 mm 0,0 UV-I 42 W/m 9,9 C 15,8 C 3,2 km/h (1 Bft) 97,87 %
21.05.2017 20:08 15,7 C 21,1 C 67 % 1022,0 hPa 0,0 l/m 1,7 km/h (1 Bft) O 97 0 min 0,000 mm 0,0 UV-I 39 W/m 9,6 C 15,7 C 3,2 km/h (1 Bft) 93,62 %
21.05.2017 20:10 15,8 C 21,1 C 66 % 1021,9 hPa 0,0 l/m 2,2 km/h (1 Bft) O 97 0 min 0,000 mm 0,0 UV-I 36 W/m 9,5 C 15,8 C 3,2 km/h (1 Bft) 87,18 %
21.05.2017 20:12 15,7 C 21,1 C 67 % 1021,9 hPa 0,0 l/m 2,4 km/h (1 Bft) O 97 0 min 0,000 mm 0,0 UV-I 35 W/m 9,6 C 15,7 C 3,2 km/h (1 Bft) 91,49 %
21.05.2017 20:14 15,7 C 21,1 C 67 % 1021,9 hPa 0,0 l/m 2,1 km/h (1 Bft) O 97 0 min 0,000 mm 0,0 UV-I 32 W/m 9,6 C 15,7 C 3,2 km/h (1 Bft) 92,00 %
21.05.2017 20:16 15,7 C 21,1 C 68 % 1021,9 hPa 0,0 l/m 0,4 km/h (0 Bft) O 97 0 min 0,000 mm 0,0 UV-I 30 W/m 9,8 C 15,7 C 1,6 km/h (1 Bft) 95,12 %
21.05.2017 20:18 15,6 C 21,1 C 68 % 1022,0 hPa 0,0 l/m 0,7 km/h (0 Bft) O 97 2 min 0,000 mm 0,0 UV-I 28 W/m 9,7 C 15,6 C 3,2 km/h (1 Bft) 98,00 %
21.05.2017 20:20 15,6 C 21,1 C 68 % 1021,9 hPa 0,0 l/m 1,5 km/h (1 Bft) O 97 2 min 0,000 mm 0,0 UV-I 26 W/m 9,7 C 15,6 C 3,2 km/h (1 Bft) 95,74 %
21.05.2017 20:22 15,4 C 21,1 C 70 % 1021,9 hPa 0,0 l/m 1,5 km/h (1 Bft) O 97 2 min 0,000 mm 0,0 UV-I 24 W/m 10,0 C 15,4 C 3,2 km/h (1 Bft) 94,00 %
21.05.2017 20:24 15,3 C 21,1 C 71 % 1021,8 hPa 0,0 l/m 1,6 km/h (1 Bft) O 97 2 min 0,000 mm 0,0 UV-I 21 W/m 10,1 C 15,3 C 1,6 km/h (1 Bft) 95,74 %
21.05.2017 20:26 15,2 C 21,1 C 71 % 1021,8 hPa 0,0 l/m 1,7 km/h (1 Bft) O 97 2 min 0,000 mm 0,0 UV-I 19 W/m 10,0 C 15,2 C 3,2 km/h (1 Bft) 92,00 %
21.05.2017 20:28 15,1 C 21,1 C 71 % 1021,9 hPa 0,0 l/m 1,6 km/h (1 Bft) O 97 2 min 0,000 mm 0,0 UV-I 17 W/m 9,9 C 15,1 C 3,2 km/h (1 Bft) 96,00 %
21.05.2017 20:30 14,9 C 21,1 C 71 % 1021,9 hPa 0,0 l/m 0,6 km/h (0 Bft) O 97 2 min 0,000 mm 0,0 UV-I 15 W/m 9,7 C 14,9 C 1,6 km/h (1 Bft) 95,12 %
21.05.2017 20:32 14,8 C 21,1 C 71 % 1021,9 hPa 0,0 l/m 1,1 km/h (1 Bft) O 97 2 min 0,000 mm 0,0 UV-I 13 W/m 9,6 C 14,8 C 1,6 km/h (1 Bft) 98,00 %
21.05.2017 20:34 14,8 C 21,1 C 72 % 1021,9 hPa 0,0 l/m 0,7 km/h (0 Bft) O 97 0 min 0,000 mm 0,0 UV-I 12 W/m 9,8 C 14,8 C 3,2 km/h (1 Bft) 93,62 %
21.05.2017 20:36 14,7 C 21,1 C 71 % 1021,9 hPa 0,0 l/m 1,8 km/h (1 Bft) O 97 0 min 0,000 mm 0,0 UV-I 12 W/m 9,5 C 14,7 C 3,2 km/h (1 Bft) 89,47 %
21.05.2017 20:38 14,5 C 21,1 C 72 % 1021,9 hPa 0,0 l/m 2,2 km/h (1 Bft) O 97 0 min 0,000 mm 0,0 UV-I 10 W/m 9,5 C 14,5 C 3,2 km/h (1 Bft) 96,23 %
21.05.2017 20:40 14,4 C 21,1 C 72 % 1022,0 hPa 0,0 l/m 2,8 km/h (1 Bft) O 97 0 min 0,000 mm 0,0 UV-I 9 W/m 9,4 C 14,4 C 4,8 km/h (1 Bft) 96,00 %
21.05.2017 20:42 14,3 C 21,1 C 72 % 1022,0 hPa 0,0 l/m 3,9 km/h (1 Bft) O 97 0 min 0,000 mm 0,0 UV-I 9 W/m 9,3 C 14,3 C 4,8 km/h (1 Bft) 97,37 %
21.05.2017 20:44 14,2 C 21,1 C 72 % 1021,9 hPa 0,0 l/m 2,6 km/h (1 Bft) O 97 0 min 0,000 mm 0,0 UV-I 7 W/m 9,2 C 14,2 C 4,8 km/h (1 Bft) 92,86 %
21.05.2017 20:46 14,1 C 21,1 C 73 % 1021,9 hPa 0,0 l/m 0,7 km/h (0 Bft) O 97 0 min 0,000 mm 0,0 UV-I 7 W/m 9,3 C 14,1 C 1,6 km/h (1 Bft) 95,74 %
21.05.2017 20:48 14,1 C 21,1 C 73 % 1021,9 hPa 0,0 l/m 2,3 km/h (1 Bft) O 97 0 min 0,000 mm 0,0 UV-I 7 W/m 9,3 C 14,1 C 3,2 km/h (1 Bft) 92,31 %
21.05.2017 20:50 14,0 C 21,1 C 74 % 1021,9 hPa 0,0 l/m 2,2 km/h (1 Bft) O 97 0 min 0,000 mm 0,0 UV-I 5 W/m 9,4 C 14,0 C 3,2 km/h (1 Bft) 94,00 %
21.05.2017 20:52 13,8 C 20,6 C 74 % 1021,9 hPa 0,0 l/m 2,4 km/h (1 Bft) O 97 0 min 0,000 mm 0,0 UV-I 5 W/m 9,2 C 13,8 C 3,2 km/h (1 Bft) 96,00 %
21.05.2017 20:54 13,7 C 21,1 C 74 % 1021,9 hPa 0,0 l/m 1,2 km/h (1 Bft) O 97 0 min 0,000 mm 0,0 UV-I 5 W/m 9,2 C 13,7 C 3,2 km/h (1 Bft) 98,00 %
21.05.2017 20:56 13,7 C 20,6 C 75 % 1021,9 hPa 0,0 l/m 1,8 km/h (1 Bft) O 97 0 min 0,000 mm 0,0 UV-I 5 W/m 9,3 C 13,7 C 3,2 km/h (1 Bft) 97,37 %
21.05.2017 20:58 13,6 C 20,6 C 75 % 1021,9 hPa 0,0 l/m 1,6 km/h (1 Bft) O 97 0 min 0,000 mm 0,0 UV-I 2 W/m 9,3 C 13,6 C 3,2 km/h (1 Bft) 96,00 %
21.05.2017 21:00 13,6 C 20,6 C 74 % 1021,9 hPa 0,0 l/m 1,6 km/h (1 Bft) O 97 0 min 0,000 mm 0,0 UV-I 0 W/m 9,1 C 13,6 C 3,2 km/h (1 Bft) 93,62 %
21.05.2017 21:02 13,5 C 20,6 C 75 % 1021,9 hPa 0,0 l/m 2,3 km/h (1 Bft) O 97 0 min 0,026 mm 0,0 UV-I 0 W/m 9,2 C 13,5 C 3,2 km/h (1 Bft) 98,00 %
21.05.2017 21:04 13,4 C 20,6 C 75 % 1021,9 hPa 0,0 l/m 2,0 km/h (1 Bft) O 97 0 min 0,000 mm 0,0 UV-I 0 W/m 9,1 C 13,4 C 3,2 km/h (1 Bft) 97,56 %
21.05.2017 21:06 13,4 C 20,6 C 75 % 1021,9 hPa 0,0 l/m 1,6 km/h (1 Bft) O 97 0 min 0,000 mm 0,0 UV-I 0 W/m 9,1 C 13,4 C 3,2 km/h (1 Bft) 94,00 %
21.05.2017 21:08 13,3 C 20,6 C 76 % 1021,9 hPa 0,0 l/m 1,6 km/h (1 Bft) O 97 0 min 0,000 mm 0,0 UV-I 0 W/m 9,2 C 13,3 C 4,8 km/h (1 Bft) 93,62 %
21.05.2017 21:10 13,2 C 20,6 C 76 % 1021,9 hPa 0,0 l/m 0,4 km/h (0 Bft) O 97 0 min 0,000 mm 0,0 UV-I 0 W/m 9,1 C 13,2 C 1,6 km/h (1 Bft) 92,11 %
21.05.2017 21:12 13,2 C 20,6 C 76 % 1021,9 hPa 0,0 l/m 0,6 km/h (0 Bft) O 97 0 min 0,000 mm 0,0 UV-I 0 W/m 9,1 C 13,2 C 3,2 km/h (1 Bft) 88,24 %
21.05.2017 21:14 13,1 C 20,6 C 77 % 1021,9 hPa 0,0 l/m 1,8 km/h (1 Bft) O 97 0 min 0,000 mm 0,0 UV-I 0 W/m 9,2 C 13,1 C 3,2 km/h (1 Bft) 98,00 %
21.05.2017 21:16 12,9 C 20,6 C 78 % 1021,9 hPa 0,0 l/m 2,3 km/h (1 Bft) O 97 0 min 0,000 mm 0,0 UV-I 0 W/m 9,2 C 12,9 C 4,8 km/h (1 Bft) 97,73 %
21.05.2017 21:18 12,9 C 20,6 C 78 % 1021,9 hPa 0,0 l/m 2,6 km/h (1 Bft) O 97 0 min 0,000 mm 0,0 UV-I 0 W/m 9,2 C 12,9 C 4,8 km/h (1 Bft) 100,00 %
21.05.2017 21:20 12,9 C 20,6 C 78 % 1021,9 hPa 0,0 l/m 1,7 km/h (1 Bft) O 97 0 min 0,000 mm 0,0 UV-I 0 W/m 9,2 C 12,9 C 4,8 km/h (1 Bft) 97,87 %
21.05.2017 21:22 12,9 C 20,6 C 78 % 1022,0 hPa 0,0 l/m 1,6 km/h (1 Bft) O 97 0 min 0,000 mm 0,0 UV-I 0 W/m 9,2 C 12,9 C 4,8 km/h (1 Bft) 100,00 %
21.05.2017 21:24 12,9 C 20,6 C 79 % 1021,9 hPa 0,0 l/m 1,5 km/h (1 Bft) O 97 0 min 0,000 mm 0,0 UV-I 0 W/m 9,3 C 12,9 C 3,2 km/h (1 Bft) 97,62 %
21.05.2017 21:26 12,8 C 20,6 C 80 % 1021,9 hPa 0,0 l/m 0,8 km/h (0 Bft) O 97 0 min 0,000 mm 0,0 UV-I 0 W/m 9,4 C 12,8 C 3,2 km/h (1 Bft) 95,74 %
21.05.2017 21:28 12,8 C 20,6 C 81 % 1021,9 hPa 0,0 l/m 0,9 km/h (0 Bft) O 97 0 min 0,000 mm 0,0 UV-I 0 W/m 9,6 C 12,8 C 1,6 km/h (1 Bft) 95,12 %
21.05.2017 21:30 12,7 C 20,6 C 82 % 1021,9 hPa 0,0 l/m 0,2 km/h (0 Bft) O 97 0 min 0,000 mm 0,0 UV-I 0 W/m 9,7 C 12,7 C 1,6 km/h (1 Bft) 100,00 %
21.05.2017 21:32 12,6 C 20,6 C 82 % 1021,9 hPa 0,0 l/m 1,0 km/h (0 Bft) O 97 0 min 0,000 mm 0,0 UV-I 0 W/m 9,6 C 12,6 C 3,2 km/h (1 Bft) 97,87 %
21.05.2017 21:34 12,6 C 20,6 C 82 % 1022,0 hPa 0,0 l/m 0,5 km/h (0 Bft) O 97 0 min 0,000 mm 0,0 UV-I 0 W/m 9,6 C 12,6 C 3,2 km/h (1 Bft) 100,00 %
21.05.2017 21:36 12,6 C 20,6 C 82 % 1022,0 hPa 0,0 l/m 0,1 km/h (0 Bft) O 97 0 min 0,000 mm 0,0 UV-I 0 W/m 9,6 C 12,6 C 1,6 km/h (1 Bft) 98,00 %
21.05.2017 21:38 12,6 C 20,6 C 82 % 1022,0 hPa 0,0 l/m 0,0 km/h (0 Bft) O 97 0 min 0,000 mm 0,0 UV-I 0 W/m 9,6 C 12,6 C 0,0 km/h (0 Bft) 97,87 %
21.05.2017 21:40 12,6 C 20,6 C 82 % 1022,0 hPa 0,0 l/m 0,0 km/h (0 Bft) O 97 0 min 0,000 mm 0,0 UV-I 0 W/m 9,6 C 12,6 C 0,0 km/h (0 Bft) 97,87 %
21.05.2017 21:42 12,6 C 20,6 C 82 % 1022,0 hPa 0,0 l/m 0,0 km/h (0 Bft) O 97 0 min 0,000 mm 0,0 UV-I 0 W/m 9,6 C 12,6 C 0,0 km/h (0 Bft) 100,00 %
21.05.2017 21:44 12,6 C 20,6 C 82 % 1022,0 hPa 0,0 l/m 0,0 km/h (0 Bft) O 97 0 min 0,000 mm 0,0 UV-I 0 W/m 9,6 C 12,6 C 0,0 km/h (0 Bft) 98,00 %
21.05.2017 21:46 12,6 C 20,6 C 82 % 1022,0 hPa 0,0 l/m 0,0 km/h (0 Bft) O 97 0 min 0,000 mm 0,0 UV-I 0 W/m 9,6 C 12,6 C 0,0 km/h (0 Bft) 100,00 %
21.05.2017 21:48 12,6 C 20,6 C 82 % 1022,0 hPa 0,0 l/m 0,0 km/h (0 Bft) O 97 0 min 0,000 mm 0,0 UV-I 0 W/m 9,6 C 12,6 C 0,0 km/h (0 Bft) 98,00 %
21.05.2017 21:50 12,4 C 20,6 C 81 % 1022,0 hPa 0,0 l/m 0,7 km/h (0 Bft) O 97 0 min 0,000 mm 0,0 UV-I 0 W/m 9,2 C 12,4 C 3,2 km/h (1 Bft) 97,87 %
21.05.2017 21:52 12,4 C 20,6 C 82 % 1022,0 hPa 0,0 l/m 2,8 km/h (1 Bft) O 97 0 min 0,000 mm 0,0 UV-I 0 W/m 9,4 C 12,4 C 6,4 km/h (2 Bft) 97,37 %
21.05.2017 21:54 12,3 C 20,6 C 82 % 1022,0 hPa 0,0 l/m 2,6 km/h (1 Bft) O 97 0 min 0,000 mm 0,0 UV-I 0 W/m 9,3 C 12,3 C 3,2 km/h (1 Bft) 96,61 %
21.05.2017 21:56 12,2 C 20,6 C 82 % 1022,0 hPa 0,0 l/m 2,6 km/h (1 Bft) O 97 0 min 0,000 mm 0,0 UV-I 0 W/m 9,2 C 12,2 C 4,8 km/h (1 Bft) 95,45 %
21.05.2017 21:58 12,1 C 20,6 C 81 % 1022,0 hPa 0,0 l/m 2,1 km/h (1 Bft) O 97 0 min 0,000 mm 0,0 UV-I 0 W/m 8,9 C 12,1 C 3,2 km/h (1 Bft) 96,00 %
21.05.2017 22:00 11,9 C 20,6 C 81 % 1022,0 hPa 0,0 l/m 2,3 km/h (1 Bft) O 97 0 min 0,000 mm 0,0 UV-I 0 W/m 8,7 C 11,9 C 3,2 km/h (1 Bft) 93,62 %
21.05.2017 22:02 11,9 C 20,6 C 81 % 1022,0 hPa 0,0 l/m 1,6 km/h (1 Bft) O 97 0 min 0,000 mm 0,0 UV-I 0 W/m 8,7 C 11,9 C 3,2 km/h (1 Bft) 93,62 %
21.05.2017 22:04 11,9 C 20,6 C 81 % 1021,9 hPa 0,0 l/m 1,3 km/h (1 Bft) O 97 0 min 0,000 mm 0,0 UV-I 0 W/m 8,7 C 11,9 C 3,2 km/h (1 Bft) 95,12 %
21.05.2017 22:06 11,9 C 20,6 C 82 % 1022,0 hPa 0,0 l/m 2,0 km/h (1 Bft) O 97 0 min 0,000 mm 0,0 UV-I 0 W/m 8,9 C 11,9 C 4,8 km/h (1 Bft) 95,83 %
21.05.2017 22:08 11,9 C 20,6 C 83 % 1021,9 hPa 0,0 l/m 3,0 km/h (1 Bft) O-SO 119 0 min 0,000 mm 0,0 UV-I 0 W/m 9,1 C 11,9 C 9,7 km/h (2 Bft) 93,62 %
21.05.2017 22:10 12,0 C 20,6 C 82 % 1021,9 hPa 0,0 l/m 2,6 km/h (1 Bft) O-SO 123 0 min 0,000 mm 0,0 UV-I 0 W/m 9,0 C 12,0 C 4,8 km/h (1 Bft) 94,00 %
21.05.2017 22:12 12,0 C 20,6 C 82 % 1021,9 hPa 0,0 l/m 2,2 km/h (1 Bft) O-SO 123 0 min 0,000 mm 0,0 UV-I 0 W/m 9,0 C 12,0 C 4,8 km/h (1 Bft) 97,56 %
21.05.2017 22:14 12,1 C 20,6 C 81 % 1021,9 hPa 0,0 l/m 2,3 km/h (1 Bft) O-SO 123 0 min 0,000 mm 0,0 UV-I 0 W/m 8,9 C 12,1 C 4,8 km/h (1 Bft) 96,00 %
21.05.2017 22:16 12,1 C 20,6 C 81 % 1021,9 hPa 0,0 l/m 2,3 km/h (1 Bft) O-SO 123 0 min 0,000 mm 0,0 UV-I 0 W/m 8,9 C 12,1 C 3,2 km/h (1 Bft) 96,00 %
21.05.2017 22:18 12,2 C 20,6 C 81 % 1021,9 hPa 0,0 l/m 0,7 km/h (0 Bft) O-SO 123 0 min 0,000 mm 0,0 UV-I 0 W/m 9,0 C 12,2 C 3,2 km/h (1 Bft) 97,37 %
21.05.2017 22:20 12,2 C 20,6 C 82 % 1021,9 hPa 0,0 l/m 0,6 km/h (0 Bft) O-SO 123 0 min 0,000 mm 0,0 UV-I 0 W/m 9,2 C 12,2 C 3,2 km/h (1 Bft) 95,74 %
21.05.2017 22:22 12,0 C 20,6 C 82 % 1021,9 hPa 0,0 l/m 1,1 km/h (1 Bft) O-SO 123 0 min 0,000 mm 0,0 UV-I 0 W/m 9,0 C 12,0 C 3,2 km/h (1 Bft) 94,00 %
21.05.2017 22:24 11,9 C 20,6 C 83 % 1021,9 hPa 0,0 l/m 2,1 km/h (1 Bft) O-SO 123 0 min 0,000 mm 0,0 UV-I 0 W/m 9,1 C 11,9 C 4,8 km/h (1 Bft) 96,00 %
21.05.2017 22:26 11,8 C 20,6 C 83 % 1021,9 hPa 0,0 l/m 1,8 km/h (1 Bft) O-SO 122 0 min 0,000 mm 0,0 UV-I 0 W/m 9,0 C 11,8 C 4,8 km/h (1 Bft) 95,12 %
21.05.2017 22:28 11,8 C 20,6 C 83 % 1021,9 hPa 0,0 l/m 2,6 km/h (1 Bft) O-SO 123 0 min 0,000 mm 0,0 UV-I 0 W/m 9,0 C 11,8 C 4,8 km/h (1 Bft) 94,64 %
21.05.2017 22:30 11,8 C 20,6 C 83 % 1022,0 hPa 0,0 l/m 1,4 km/h (1 Bft) O-SO 123 0 min 0,000 mm 0,0 UV-I 0 W/m 9,0 C 11,8 C 4,8 km/h (1 Bft) 95,12 %
21.05.2017 22:33 11,8 C 20,6 C 83 % 1022,0 hPa 0,0 l/m 0,4 km/h (0 Bft) O-SO 123 0 min 0,000 mm 0,0 UV-I 0 W/m 9,0 C 11,8 C 1,6 km/h (1 Bft) 97,30 %
21.05.2017 22:34 11,9 C 20,6 C 83 % 1022,0 hPa 0,0 l/m 1,4 km/h (1 Bft) O-SO 123 0 min 0,000 mm 0,0 UV-I 0 W/m 9,1 C 11,9 C 4,8 km/h (1 Bft) 100,00 %
21.05.2017 22:36 11,8 C 20,6 C 83 % 1022,0 hPa 0,0 l/m 1,1 km/h (1 Bft) O-SO 123 0 min 0,000 mm 0,0 UV-I 0 W/m 9,0 C 11,8 C 3,2 km/h (1 Bft) 94,64 %
21.05.2017 22:38 11,8 C 20,6 C 83 % 1022,0 hPa 0,0 l/m 2,1 km/h (1 Bft) O-SO 122 0 min 0,000 mm 0,0 UV-I 0 W/m 9,0 C 11,8 C 4,8 km/h (1 Bft) 97,37 %
21.05.2017 22:40 11,7 C 20,6 C 83 % 1021,9 hPa 0,0 l/m 1,6 km/h (1 Bft) O-SO 123 0 min 0,000 mm 0,0 UV-I 0 W/m 8,9 C 11,7 C 3,2 km/h (1 Bft) 100,00 %
21.05.2017 22:42 11,7 C 20,6 C 83 % 1021,9 hPa 0,0 l/m 2,1 km/h (1 Bft) O-SO 123 0 min 0,000 mm 0,0 UV-I 0 W/m 8,9 C 11,7 C 4,8 km/h (1 Bft) 97,22 %
21.05.2017 22:44 11,7 C 20,6 C 83 % 1021,9 hPa 0,0 l/m 1,2 km/h (1 Bft) O-SO 123 0 min 0,000 mm 0,0 UV-I 0 W/m 8,9 C 11,7 C 3,2 km/h (1 Bft) 100,00 %
21.05.2017 22:46 11,7 C 20,6 C 84 % 1021,9 hPa 0,0 l/m 0,6 km/h (0 Bft) O-SO 123 0 min 0,000 mm 0,0 UV-I 0 W/m 9,1 C 11,7 C 1,6 km/h (1 Bft) 97,87 %
21.05.2017 22:48 11,6 C 20,6 C 84 % 1021,9 hPa 0,0 l/m 0,2 km/h (0 Bft) O-SO 123 0 min 0,000 mm 0,0 UV-I 0 W/m 9,0 C 11,6 C 1,6 km/h (1 Bft) 97,22 %
21.05.2017 22:50 11,6 C 20,6 C 84 % 1021,9 hPa 0,0 l/m 1,2 km/h (1 Bft) O-SO 123 0 min 0,000 mm 0,0 UV-I 0 W/m 9,0 C 11,6 C 3,2 km/h (1 Bft) 100,00 %
21.05.2017 22:52 11,6 C 20,6 C 84 % 1021,8 hPa 0,0 l/m 1,9 km/h (1 Bft) O-SO 123 0 min 0,000 mm 0,0 UV-I 0 W/m 9,0 C 11,6 C 3,2 km/h (1 Bft) 95,74 %
21.05.2017 22:54 11,6 C 20,6 C 84 % 1021,9 hPa 0,0 l/m 0,5 km/h (0 Bft) O-SO 123 0 min 0,000 mm 0,0 UV-I 0 W/m 9,0 C 11,6 C 1,6 km/h (1 Bft) 100,00 %
21.05.2017 22:56 11,7 C 20,6 C 83 % 1021,8 hPa 0,0 l/m 0,1 km/h (0 Bft) O-SO 123 0 min 0,000 mm 0,0 UV-I 0 W/m 8,9 C 11,7 C 1,6 km/h (1 Bft) 98,00 %
21.05.2017 22:58 11,6 C 20,6 C 83 % 1021,8 hPa 0,0 l/m 0,2 km/h (0 Bft) O-SO 123 0 min 0,000 mm 0,0 UV-I 0 W/m 8,8 C 11,6 C 1,6 km/h (1 Bft) 100,00 %
21.05.2017 23:00 11,6 C 20,6 C 83 % 1021,8 hPa 0,0 l/m 0,1 km/h (0 Bft) O-SO 123 0 min 0,000 mm 0,0 UV-I 0 W/m 8,8 C 11,6 C 1,6 km/h (1 Bft) 96,23 %
21.05.2017 23:02 11,5 C 20,6 C 83 % 1021,8 hPa 0,0 l/m 0,2 km/h (0 Bft) O-SO 123 0 min 0,000 mm 0,0 UV-I 0 W/m 8,7 C 11,5 C 1,6 km/h (1 Bft) 95,12 %
21.05.2017 23:04 11,4 C 20,6 C 84 % 1021,8 hPa 0,0 l/m 0,0 km/h (0 Bft) O-SO 123 0 min 0,000 mm 0,0 UV-I 0 W/m 8,8 C 11,4 C 0,0 km/h (0 Bft) 97,87 %
21.05.2017 23:06 11,3 C 20,6 C 84 % 1021,8 hPa 0,0 l/m 0,0 km/h (0 Bft) O-SO 123 0 min 0,000 mm 0,0 UV-I 0 W/m 8,7 C 11,3 C 0,0 km/h (0 Bft) 97,87 %
21.05.2017 23:08 11,3 C 20,6 C 84 % 1021,8 hPa 0,0 l/m 0,0 km/h (0 Bft) O-SO 123 0 min 0,000 mm 0,0 UV-I 0 W/m 8,7 C 11,3 C 0,0 km/h (0 Bft) 97,87 %
21.05.2017 23:10 11,3 C 20,6 C 84 % 1021,8 hPa 0,0 l/m 0,0 km/h (0 Bft) O-SO 123 0 min 0,000 mm 0,0 UV-I 0 W/m 8,7 C 11,3 C 0,0 km/h (0 Bft) 97,87 %
21.05.2017 23:12 11,3 C 20,6 C 84 % 1021,8 hPa 0,0 l/m 0,0 km/h (0 Bft) O-SO 123 0 min 0,000 mm 0,0 UV-I 0 W/m 8,7 C 11,3 C 0,0 km/h (0 Bft) 95,74 %
21.05.2017 23:14 11,2 C 20,6 C 84 % 1021,7 hPa 0,0 l/m 0,0 km/h (0 Bft) O-SO 123 0 min 0,000 mm 0,0 UV-I 0 W/m 8,6 C 11,2 C 0,0 km/h (0 Bft) 98,00 %
21.05.2017 23:16 11,2 C 20,6 C 84 % 1021,7 hPa 0,0 l/m 0,0 km/h (0 Bft) O-SO 123 0 min 0,000 mm 0,0 UV-I 0 W/m 8,6 C 11,2 C 0,0 km/h (0 Bft) 98,00 %
21.05.2017 23:18 11,2 C 20,6 C 85 % 1021,7 hPa 0,0 l/m 0,0 km/h (0 Bft) O-SO 123 0 min 0,000 mm 0,0 UV-I 0 W/m 8,8 C 11,2 C 0,0 km/h (0 Bft) 97,37 %
21.05.2017 23:20 11,1 C 20,6 C 85 % 1021,7 hPa 0,0 l/m 0,0 km/h (0 Bft) O-SO 123 0 min 0,000 mm 0,0 UV-I 0 W/m 8,7 C 11,1 C 0,0 km/h (0 Bft) 96,23 %
21.05.2017 23:22 11,1 C 20,6 C 84 % 1021,7 hPa 0,0 l/m 0,0 km/h (0 Bft) O-SO 123 0 min 0,000 mm 0,0 UV-I 0 W/m 8,5 C 11,1 C 0,0 km/h (0 Bft) 96,00 %
21.05.2017 23:24 11,1 C 20,6 C 84 % 1021,7 hPa 0,0 l/m 0,0 km/h (0 Bft) O-SO 123 0 min 0,000 mm 0,0 UV-I 0 W/m 8,5 C 11,1 C 0,0 km/h (0 Bft) 94,87 %
21.05.2017 23:26 11,0 C 20,6 C 84 % 1021,7 hPa 0,0 l/m 0,0 km/h (0 Bft) O-SO 123 0 min 0,000 mm 0,0 UV-I 0 W/m 8,4 C 11,0 C 0,0 km/h (0 Bft) 98,00 %
21.05.2017 23:28 11,0 C 20,6 C 84 % 1021,7 hPa 0,0 l/m 1,0 km/h (0 Bft) O-SO 123 0 min 0,000 mm 0,0 UV-I 0 W/m 8,4 C 11,0 C 3,2 km/h (1 Bft) 95,74 %
21.05.2017 23:30 10,9 C 20,6 C 85 % 1021,7 hPa 0,0 l/m 1,5 km/h (1 Bft) O-SO 123 0 min 0,000 mm 0,0 UV-I 0 W/m 8,5 C 10,9 C 3,2 km/h (1 Bft) 100,00 %
21.05.2017 23:32 10,9 C 20,6 C 85 % 1021,7 hPa 0,0 l/m 0,4 km/h (0 Bft) O-SO 123 0 min 0,000 mm 0,0 UV-I 0 W/m 8,5 C 10,9 C 1,6 km/h (1 Bft) 97,37 %
21.05.2017 23:34 10,9 C 20,6 C 85 % 1021,7 hPa 0,0 l/m 0,0 km/h (0 Bft) O-SO 123 0 min 0,000 mm 0,0 UV-I 0 W/m 8,5 C 10,9 C 0,0 km/h (0 Bft) 100,00 %
21.05.2017 23:36 10,8 C 20,6 C 85 % 1021,8 hPa 0,0 l/m 0,0 km/h (0 Bft) O-SO 123 0 min 0,000 mm 0,0 UV-I 0 W/m 8,4 C 10,8 C 0,0 km/h (0 Bft) 96,23 %
21.05.2017 23:38 10,8 C 20,6 C 86 % 1021,7 hPa 0,0 l/m 0,0 km/h (0 Bft) O-SO 123 0 min 0,000 mm 0,0 UV-I 0 W/m 8,6 C 10,8 C 1,6 km/h (1 Bft) 92,68 %
21.05.2017 23:40 10,8 C 20,6 C 86 % 1021,7 hPa 0,0 l/m 0,0 km/h (0 Bft) O-SO 123 0 min 0,000 mm 0,0 UV-I 0 W/m 8,6 C 10,8 C 0,0 km/h (0 Bft) 97,87 %
21.05.2017 23:42 10,8 C 20,6 C 86 % 1021,7 hPa 0,0 l/m 0,0 km/h (0 Bft) O-SO 123 0 min 0,000 mm 0,0 UV-I 0 W/m 8,6 C 10,8 C 0,0 km/h (0 Bft) 95,74 %
21.05.2017 23:44 10,8 C 20,6 C 86 % 1021,7 hPa 0,0 l/m 0,0 km/h (0 Bft) O-SO 123 0 min 0,000 mm 0,0 UV-I 0 W/m 8,6 C 10,8 C 0,0 km/h (0 Bft) 98,00 %
21.05.2017 23:46 10,8 C 20,6 C 86 % 1021,7 hPa 0,0 l/m 0,1 km/h (0 Bft) O-SO 123 0 min 0,000 mm 0,0 UV-I 0 W/m 8,6 C 10,8 C 1,6 km/h (1 Bft) 96,00 %
21.05.2017 23:48 10,8 C 20,6 C 86 % 1021,7 hPa 0,0 l/m 0,3 km/h (0 Bft) O-SO 123 0 min 0,000 mm 0,0 UV-I 0 W/m 8,6 C 10,8 C 1,6 km/h (1 Bft) 94,74 %
21.05.2017 23:50 10,8 C 20,6 C 86 % 1021,7 hPa 0,0 l/m 0,4 km/h (0 Bft) O-SO 123 0 min 0,000 mm 0,0 UV-I 0 W/m 8,6 C 10,8 C 1,6 km/h (1 Bft) 96,23 %
21.05.2017 23:52 10,8 C 20,6 C 85 % 1021,7 hPa 0,0 l/m 0,9 km/h (0 Bft) O-SO 123 0 min 0,000 mm 0,0 UV-I 0 W/m 8,4 C 10,8 C 1,6 km/h (1 Bft) 92,68 %
21.05.2017 23:54 10,8 C 20,6 C 86 % 1021,7 hPa 0,0 l/m 0,0 km/h (0 Bft) O-SO 123 0 min 0,000 mm 0,0 UV-I 0 W/m 8,6 C 10,8 C 0,0 km/h (0 Bft) 95,74 %
21.05.2017 23:56 10,8 C 20,6 C 86 % 1021,7 hPa 0,0 l/m 0,0 km/h (0 Bft) O-SO 123 0 min 0,000 mm 0,0 UV-I 0 W/m 8,6 C 10,8 C 1,6 km/h (1 Bft) 94,00 %
21.05.2017 23:58 10,7 C 20,6 C 86 % 1021,8 hPa 0,0 l/m 0,2 km/h (0 Bft) O-SO 123 0 min 0,000 mm 0,0 UV-I 0 W/m 8,5 C 10,7 C 1,6 km/h (1 Bft) 94,34 %
_ Min-Zeit 23:58 04:16 18:00 23:14 - 00:26 - - - - - - 17:38 05:30 00:26 10:36
Minimum _ 10,7 C 20,6 C 54 % 1021,7 hPa - 0,0 km/h (0 Bft) - - - - - - 8,3 C 9,1 C 0,0 km/h (0 Bft) 86,84 %
_ Max-Zeit 15:50 00:00 23:38 09:18 00:00 00:02 - - 14:42 16:02 15:46 15:48 09:26 15:50 00:06 00:02
Maximum _ 18,2 C 21,1 C 86 % 1025,3 hPa 0,0 l/m 13,0 km/h
N-NO (3 Bft)
- - 2 min 0,279 mm 3,7 UV-I 961 W/m 10,6 C 18,2 C 19,3 km/h
NO (3 Bft)
100,00 %
Durchschnitt _ 14,3 C 20,8 C 72 % 1023,5 hPa #0,0 l/m 4,4 km/h (1 Bft) SW - #4:32 h #2,337 mm 1,8 UV-I 234 W/m 9,2 C 14,0 C 7,5 km/h (2 Bft) 96,53 %